[[{"header":{"parameterUnit":"m.s-1","parameterCategory":1,"la1":30.6,"la2":28.766,"lo1":-90.7593,"lo2":-88.6598,"dy":0.0162,"dx":0.0183,"nx":116,"ny":114,"refTime":"2023-07-13T06:00:00:Z","depth":0,"parameterNumber":2,"parameterNumberName":"U-component_of_WINDS"},"data":[0.0,0.0,0.0,0.0,0.0,0.0,0.0,0.0,0.0,0.0,0.0,0.0,0.0,0.0,0.0,0.0,0.0,0.0,0.0,0.0,0.0,0.0,0.0,0.0,0.0,0.0,0.0,0.0,0.0,0.0,0.0,0.0,0.0,0.0,0.0,0.0,0.0,0.0,0.0,0.0,0.0,0.0,0.0,0.0,0.0,0.0,0.0,0.0,0.0,0.0,0.0,0.0,0.0,0.0,0.0,0.0,0.0,0.0,0.0,0.0,0.0,0.0,0.0,0.0,0.0,0.0,0.0,0.0,0.0,0.0,0.0,0.0,0.0,0.0,0.0,0.0,0.0,0.0,0.0,0.0,0.0,0.0,0.0,0.0,0.0,0.0,0.0,0.0,0.0,0.0,0.0,0.0,0.0,0.0,0.0,0.0,0.0,0.0,0.0,0.0,0.0,0.0,0.0,0.0,0.0,0.0,0.0,0.0,0.0,0.0,0.0,0.0,0.0,0.0,0.0,0.0,0.0,0.0,0.0,0.0,0.0,0.0,0.0,0.0,0.0,0.0,0.0,0.0,0.0,0.0,0.0,0.0,0.0,0.0,0.0,0.0,0.0,0.0,0.0,0.0,0.0,0.0,0.0,0.0,0.0,0.0,0.0,0.0,0.0,0.0,0.0,0.0,0.0,0.0,0.0,0.0,0.0,0.0,0.0,0.0,0.0,0.0,0.0,0.0,0.0,0.0,0.0,0.0,0.0,0.0,0.0,0.0,0.0,0.0,0.0,0.0,0.0,0.0,0.0,0.0,0.0,0.0,0.0,0.0,0.0,0.0,0.0,0.0,0.0,0.0,0.0,0.0,0.0,0.0,0.0,0.0,0.0,0.0,0.0,0.0,0.0,0.0,0.0,0.0,0.0,0.0,0.0,0.0,0.0,0.0,0.0,0.0,0.0,0.0,0.0,0.0,0.0,0.0,0.0,0.0,0.0,0.0,0.0,0.0,0.0,0.0,0.0,0.0,0.0,0.0,0.0,0.0,0.0,0.0,0.0,0.0,0.0,0.0,0.0,0.0,0.0,0.0,0.0,0.0,0.0,0.0,0.0,0.0,0.0,0.0,0.0,0.0,0.0,0.0,0.0,0.0,0.0,0.0,0.0,0.0,0.0,0.0,0.0,0.0,0.0,0.0,0.0,0.0,0.0,0.0,0.0,0.0,0.0,0.0,0.0,0.0,0.0,0.0,0.0,0.0,0.0,0.0,0.0,0.0,0.0,0.0,0.0,0.0,0.0,0.0,0.0,0.0,0.0,0.0,0.0,0.0,0.0,0.0,0.0,0.0,0.0,0.0,0.0,0.0,0.0,0.0,0.0,0.0,0.0,0.0,0.0,0.0,0.0,0.0,0.0,0.0,0.0,0.0,0.0,0.0,0.0,0.0,0.0,0.0,0.0,0.0,0.0,0.0,0.0,0.0,0.0,0.0,0.0,0.0,0.0,0.0,0.0,0.0,0.0,0.0,0.0,0.0,0.0,0.0,0.0,0.0,0.0,0.0,0.0,0.0,0.0,0.0,0.0,0.0,0.0,0.0,0.0,0.0,0.0,0.0,0.0,0.0,0.0,0.0,0.0,0.0,0.0,0.0,0.0,0.0,0.0,0.0,0.0,0.0,0.0,0.0,0.0,0.0,0.0,0.0,0.0,0.0,0.0,0.0,0.0,0.0,0.0,0.0,0.0,0.0,0.0,0.0,0.0,0.0,0.0,0.0,0.0,0.0,0.0,0.0,0.0,0.0,0.0,0.0,0.0,0.0,0.0,0.0,0.0,0.0,0.0,0.0,0.0,0.0,0.0,0.0,0.0,0.0,0.0,0.0,0.0,0.0,0.0,0.0,0.0,0.0,0.0,0.0,0.0,0.0,0.0,0.0,0.0,0.0,0.0,0.0,0.0,0.0,0.0,0.0,0.0,0.0,0.0,0.0,0.0,0.0,0.0,0.0,0.0,0.0,0.0,0.0,0.0,0.0,0.0,0.0,0.0,0.0,0.0,0.0,0.0,0.0,0.0,0.0,0.0,0.0,0.0,0.0,0.0,0.0,0.0,0.0,0.0,0.0,0.0,0.0,0.0,0.0,0.0,0.0,0.0,0.0,0.0,0.0,0.0,0.0,0.0,0.0,0.0,0.0,0.0,0.0,0.0,0.0,0.0,0.0,0.0,0.0,0.0,0.0,0.0,0.0,0.0,0.0,0.0,0.0,0.0,0.0,0.0,0.0,0.0,0.0,0.0,0.0,0.0,0.0,0.0,0.0,0.0,0.0,0.0,0.0,0.0,0.0,0.0,0.0,0.0,0.0,0.0,0.0,0.0,0.0,0.0,0.0,0.0,0.0,0.0,0.0,0.0,0.0,0.0,0.0,0.0,0.0,0.0,0.0,0.0,0.0,0.0,0.0,0.0,0.0,0.0,0.0,0.0,0.0,0.0,0.0,0.0,0.0,0.0,0.0,0.0,0.0,0.0,0.0,0.0,0.0,0.0,0.0,0.0,0.0,0.0,0.0,0.0,0.0,0.0,0.0,0.0,0.0,0.0,0.0,0.0,0.0,0.0,0.0,0.0,0.0,0.0,0.0,0.0,0.0,0.0,0.0,0.0,0.0,0.0,0.0,0.0,0.0,0.0,0.0,0.0,0.0,0.0,0.0,0.0,0.0,0.0,0.0,0.0,0.0,0.0,0.0,0.0,0.0,0.0,0.0,0.0,0.0,0.0,0.0,0.0,0.0,0.0,0.0,0.0,0.0,0.0,0.0,0.0,0.0,0.0,0.0,0.0,0.0,0.0,0.0,0.0,0.0,0.0,0.0,0.0,0.0,0.0,0.0,0.0,0.0,0.0,0.0,0.0,0.0,0.0,0.0,0.0,0.0,0.0,0.0,0.0,0.0,0.0,0.0,0.0,0.0,0.0,0.0,0.0,0.0,0.0,0.0,0.0,0.0,0.0,0.0,0.0,0.0,0.0,0.0,0.0,0.0,0.0,0.0,0.0,0.0,0.0,0.0,0.0,0.0,0.0,0.0,0.0,0.0,0.0,0.0,0.0,0.0,0.0,0.0,0.0,0.0,0.0,0.0,0.0,0.0,0.0,0.0,0.0,0.0,0.0,0.0,0.0,0.0,0.0,0.0,0.0,0.0,0.0,0.0,0.0,0.0,0.0,0.0,0.0,0.0,0.0,0.0,0.0,0.0,0.0,0.0,0.0,0.0,0.0,0.0,0.0,0.0,0.0,0.0,0.0,0.0,0.0,0.0,0.0,0.0,0.0,0.0,0.0,0.0,0.0,0.0,0.0,0.0,0.0,0.0,0.0,0.0,0.0,0.0,0.0,0.0,0.0,0.0,0.0,0.0,0.0,0.0,0.0,0.0,0.0,0.0,0.0,0.0,0.0,0.0,0.0,0.0,0.0,0.0,0.0,0.0,0.0,0.0,0.0,0.0,0.0,0.0,0.0,0.0,0.0,0.0,0.0,0.0,0.0,0.0,0.0,0.0,0.0,0.0,0.0,0.0,0.0,0.0,0.0,0.0,0.0,0.0,0.0,0.0,0.0,0.0,0.0,0.0,0.0,0.0,0.0,0.0,0.0,0.0,0.0,0.0,0.0,0.0,0.0,0.0,0.0,0.0,0.0,0.0,0.0,0.0,0.0,0.0,0.0,0.0,0.0,0.0,0.0,0.0,0.0,0.0,0.0,0.0,0.0,0.0,0.0,0.0,0.0,0.0,0.0,0.0,0.0,0.0,0.0,0.0,0.0,0.0,0.0,0.0,0.0,0.0,0.0,0.0,0.0,0.0,0.0,0.0,0.0,0.0,0.0,0.0,0.0,0.0,0.0,0.0,0.0,0.0,0.0,0.0,0.0,0.0,0.0,0.0,0.0,0.0,0.0,0.0,0.0,0.0,0.0,0.0,0.0,0.0,0.0,0.0,0.0,0.0,0.0,0.0,0.0,0.0,0.0,0.0,0.0,0.0,0.0,0.0,0.0,0.0,0.0,0.0,0.0,0.0,0.0,0.0,0.0,0.0,0.0,0.0,0.0,0.0,0.0,0.0,0.0,0.0,0.0,0.0,0.0,0.0,0.0,0.0,0.0,0.0,0.0,0.0,0.0,0.0,0.0,0.0,0.0,0.0,0.0,0.0,0.0,0.0,0.0,0.0,0.0,0.0,0.0,0.0,0.0,0.0,0.0,0.0,0.0,0.0,0.0,0.0,0.0,0.0,0.0,0.0,0.0,0.0,0.0,0.0,0.0,0.0,0.0,0.0,0.0,0.0,0.0,0.0,0.0,0.0,0.0,0.0,0.0,0.0,0.0,0.0,0.0,0.0,0.0,0.0,0.0,0.0,0.0,0.0,0.0,0.0,0.0,0.0,0.0,0.0,0.0,0.0,0.0,0.0,0.0,0.0,0.0,0.0,0.0,0.0,0.0,0.0,0.0,0.0,0.0,0.0,0.0,0.0,0.0,0.0,0.0,0.0,0.0,0.0,0.0,0.0,0.0,0.0,0.0,0.0,0.0,0.0,0.0,0.0,0.0,0.0,0.0,0.0,0.0,0.0,0.0,0.0,0.0,0.0,0.0,0.0,0.0,0.0,0.0,0.0,0.0,0.0,0.0,0.0,0.0,0.0,0.0,0.0,0.0,0.0,0.0,0.0,0.0,0.0,0.0,0.0,0.0,0.0,0.0,0.0,0.0,0.0,0.0,0.0,0.0,0.0,0.0,0.0,0.0,0.0,0.0,0.0,0.0,0.0,0.0,0.0,0.0,0.0,0.0,0.0,0.0,0.0,0.0,0.0,0.0,0.0,0.0,0.0,0.0,0.0,0.0,0.0,0.0,0.0,0.0,0.0,0.0,0.0,0.0,0.0,0.0,0.0,0.0,0.0,0.0,0.0,0.0,0.0,0.0,0.0,0.0,0.0,0.0,0.0,0.0,0.0,0.0,0.0,0.0,0.0,0.0,0.0,0.0,0.0,0.0,0.0,0.0,0.0,0.0,0.0,0.0,0.0,0.0,0.0,0.0,0.0,0.0,0.0,0.0,0.0,0.0,0.0,0.0,0.0,0.0,0.0,0.0,0.0,0.0,0.0,0.0,0.0,0.0,0.0,0.0,0.0,0.0,0.0,0.0,0.0,0.0,0.0,0.0,0.0,0.0,0.0,0.0,0.0,0.0,0.0,0.0,0.0,0.0,0.0,0.0,0.0,0.0,0.0,0.0,0.0,0.0,0.0,0.0,0.0,0.0,0.0,0.0,0.0,0.0,0.0,0.0,0.0,0.0,0.0,0.0,0.0,0.0,0.0,0.0,0.0,0.0,0.0,0.0,0.0,0.0,0.0,0.0,0.0,0.0,0.0,0.0,0.0,0.0,0.0,0.0,0.0,0.0,0.0,0.0,0.0,0.0,0.0,0.0,0.0,0.0,0.0,0.0,0.0,0.0,0.0,0.0,0.0,0.0,0.0,0.0,0.0,0.0,0.0,0.0,0.0,0.0,0.0,0.0,0.0,0.0,0.0,0.0,0.0,0.0,0.0,0.0,0.0,0.0,0.0,0.0,0.0,0.0,0.0,0.0,0.0,0.0,0.0,0.0,0.0,0.0,0.0,0.0,0.0,0.0,0.0,0.0,0.0,0.0,0.0,0.0,0.0,0.0,0.0,0.0,0.0,0.0,0.0,0.0,0.0,0.0,0.0,0.0,0.0,0.0,0.0,0.0,0.0,0.0,0.0,0.0,0.0,0.0,0.0,0.0,0.0,0.0,0.0,0.0,0.0,0.0,0.0,0.0,0.0,0.0,0.0,0.0,0.0,0.0,0.0,0.0,0.0,0.0,0.0,0.0,0.0,0.0,0.0,0.0,0.0,0.0,0.0,0.0,0.0,0.0,0.0,0.0,0.0,0.0,0.0,0.0,0.0,0.0,0.0,0.0,0.0,0.0,0.0,0.0,0.0,0.0,0.0,0.0,0.0,0.0,0.0,0.0,0.0,0.0,0.0,0.0,0.0,0.0,0.0,0.0,0.0,0.0,0.0,0.0,0.0,0.0,0.0,0.0,0.0,0.0,0.0,0.0,0.0,0.0,0.0,-3.4645,0.0,0.0,0.0,0.0,0.0,0.0,0.0,0.0,0.0,0.0,0.0,0.0,0.0,0.0,0.0,0.0,0.0,0.0,0.0,0.0,0.0,0.0,0.0,0.0,0.0,0.0,0.0,0.0,0.0,0.0,0.0,0.0,0.0,0.0,0.0,0.0,0.0,0.0,0.0,0.0,-3.9186,-3.9339,-3.9027,-3.898,-3.9109,0.0,0.0,0.0,0.0,0.0,0.0,0.0,0.0,0.0,0.0,0.0,0.0,0.0,0.0,0.0,0.0,0.0,0.0,0.0,0.0,0.0,0.0,0.0,0.0,0.0,0.0,0.0,0.0,0.0,0.0,0.0,0.0,0.0,0.0,0.0,0.0,0.0,0.0,0.0,0.0,0.0,0.0,0.0,0.0,0.0,0.0,0.0,0.0,0.0,0.0,0.0,0.0,0.0,0.0,0.0,0.0,0.0,0.0,0.0,0.0,0.0,0.0,0.0,0.0,0.0,0.0,0.0,0.0,0.0,0.0,0.0,-3.2925,0.0,0.0,0.0,0.0,0.0,0.0,0.0,0.0,0.0,0.0,0.0,0.0,0.0,0.0,0.0,0.0,0.0,0.0,0.0,0.0,0.0,0.0,0.0,0.0,0.0,0.0,0.0,0.0,0.0,0.0,0.0,0.0,0.0,0.0,0.0,0.0,0.0,0.0,-3.899,-3.9099,-3.9099,-3.9099,-3.9238,-3.9505,0.0,0.0,0.0,0.0,0.0,0.0,0.0,0.0,0.0,0.0,0.0,0.0,0.0,0.0,0.0,0.0,0.0,0.0,0.0,0.0,0.0,0.0,0.0,0.0,0.0,0.0,0.0,0.0,0.0,0.0,0.0,0.0,0.0,0.0,0.0,0.0,0.0,0.0,0.0,0.0,0.0,0.0,0.0,0.0,0.0,0.0,0.0,0.0,0.0,0.0,0.0,0.0,0.0,0.0,0.0,0.0,0.0,0.0,0.0,0.0,0.0,0.0,0.0,0.0,0.0,0.0,-3.1982,-3.303,-3.1755,-2.8667,-3.1978,-3.081,-2.6942,0.0,0.0,0.0,0.0,0.0,0.0,0.0,0.0,0.0,0.0,0.0,0.0,0.0,0.0,0.0,0.0,0.0,0.0,0.0,0.0,0.0,0.0,0.0,0.0,0.0,0.0,0.0,0.0,0.0,0.0,0.0,0.0,0.0,0.0,0.0,0.0,0.0,-3.899,-3.9099,-3.9099,-3.9099,-3.9107,-3.916,-3.9125,0.0,0.0,0.0,0.0,0.0,0.0,0.0,0.0,0.0,0.0,0.0,0.0,0.0,0.0,0.0,0.0,0.0,0.0,0.0,0.0,0.0,0.0,0.0,0.0,0.0,0.0,0.0,0.0,0.0,0.0,0.0,0.0,0.0,0.0,0.0,0.0,0.0,0.0,0.0,0.0,0.0,0.0,0.0,-2.5136,-2.5048,0.0,0.0,0.0,0.0,0.0,0.0,0.0,0.0,0.0,0.0,0.0,0.0,0.0,0.0,-2.7702,-2.6052,-2.6335,-2.8571,-2.7049,-2.699,-2.839,-2.8564,-2.8367,-2.785,-2.7767,0.0,-2.7236,-2.5899,0.0,0.0,0.0,0.0,0.0,0.0,0.0,0.0,0.0,0.0,0.0,0.0,0.0,0.0,0.0,0.0,0.0,0.0,0.0,0.0,0.0,0.0,0.0,0.0,0.0,0.0,0.0,0.0,0.0,0.0,0.0,0.0,0.0,0.0,0.0,0.0,-3.8894,-3.8961,-3.9099,-3.9099,-3.9008,-3.8884,-3.9036,-3.8961,-3.8707,-3.8707,0.0,0.0,0.0,0.0,0.0,0.0,0.0,0.0,0.0,0.0,0.0,0.0,0.0,0.0,0.0,0.0,0.0,0.0,0.0,0.0,0.0,0.0,0.0,0.0,0.0,0.0,0.0,0.0,0.0,0.0,0.0,0.0,0.0,0.0,0.0,0.0,0.0,0.0,0.0,-2.6747,-2.6531,-2.7484,-2.5769,-2.5161,0.0,0.0,0.0,0.0,0.0,0.0,0.0,0.0,0.0,-2.3065,-2.3467,-2.4286,-2.5616,-2.4015,-2.4578,-2.7105,-2.6211,-2.6309,-2.7183,-2.7183,-2.6483,-2.5417,-2.5158,-2.4699,-2.4222,-2.3899,-2.4165,-2.4636,0.0,0.0,0.0,0.0,0.0,0.0,0.0,0.0,0.0,0.0,0.0,0.0,0.0,0.0,0.0,0.0,0.0,0.0,0.0,0.0,0.0,-3.719,0.0,0.0,0.0,0.0,0.0,0.0,0.0,0.0,0.0,0.0,0.0,-3.8999,-3.8803,-3.8803,-3.8999,-3.8999,-3.8894,-3.8707,-3.8923,-3.8884,-3.8707,-3.8707,-3.8707,0.0,0.0,0.0,0.0,0.0,0.0,0.0,0.0,0.0,0.0,0.0,0.0,0.0,0.0,0.0,0.0,0.0,0.0,0.0,0.0,0.0,0.0,0.0,0.0,0.0,0.0,0.0,0.0,0.0,0.0,0.0,0.0,0.0,0.0,0.0,0.0,0.0,0.0,-2.743,-2.7261,-2.8743,-2.5931,-2.4756,0.0,0.0,0.0,0.0,0.0,0.0,-2.2303,-2.3196,-2.3246,-2.2114,-2.2492,-2.3104,-2.3779,-2.3051,-2.3664,-2.5838,-2.5838,-2.6074,-2.6423,-2.6423,-2.5648,-2.4196,-2.389,-2.2929,-2.1877,-2.223,-2.1378,-1.9727,-1.908,-1.8979,0.0,-1.8555,-1.7462,-1.6646,0.0,0.0,0.0,0.0,0.0,0.0,0.0,0.0,0.0,0.0,0.0,0.0,0.0,0.0,-3.719,-3.719,-3.721,-3.7433,0.0,0.0,0.0,0.0,0.0,0.0,0.0,0.0,0.0,-3.8719,-3.8707,-3.8707,-3.8719,-3.8719,-3.8719,-3.8707,-3.8719,-3.8719,-3.8707,-3.8707,-3.8707,-3.8707,0.0,0.0,0.0,0.0,0.0,0.0,0.0,0.0,0.0,0.0,0.0,0.0,0.0,0.0,0.0,0.0,0.0,0.0,0.0,0.0,0.0,0.0,0.0,0.0,0.0,0.0,0.0,0.0,0.0,0.0,0.0,0.0,0.0,0.0,0.0,0.0,0.0,0.0,0.0,-2.6554,-2.3624,0.0,0.0,0.0,0.0,-2.4607,-2.3614,-2.2417,-2.1219,-2.121,-2.0811,-1.9753,-2.1225,-2.2646,-2.3789,-2.4088,-2.46,-2.5124,-2.5124,-2.5359,-2.579,-2.579,-2.5713,-2.5538,-2.4205,-2.3085,-2.1955,-2.0465,-2.0303,-2.0921,-1.853,-1.8331,-1.893,-1.5161,-1.3426,-1.2384,0.0,0.0,0.0,0.0,0.0,0.0,0.0,0.0,0.0,0.0,0.0,0.0,0.0,-3.6165,-3.6333,-3.6643,-3.6981,-3.7396,-3.7859,0.0,0.0,0.0,0.0,0.0,0.0,0.0,-3.8707,-3.8707,-3.8884,-3.8961,-3.8961,-3.9189,-3.9163,-3.8961,-3.8961,-3.8855,-3.8707,-3.8707,-3.8707,-3.8707,-3.8707,-3.8101,0.0,0.0,0.0,0.0,0.0,0.0,0.0,0.0,0.0,0.0,0.0,0.0,0.0,0.0,0.0,0.0,0.0,0.0,0.0,0.0,0.0,0.0,0.0,0.0,0.0,0.0,0.0,0.0,0.0,0.0,0.0,0.0,0.0,0.0,0.0,0.0,0.0,-2.526,-2.2892,0.0,0.0,-2.0766,-1.9637,-2.1157,-1.9488,-1.8627,-1.922,-2.0054,-2.0744,-2.1511,-2.2035,-2.3094,-2.4609,-2.3985,-2.4278,-2.5498,-2.5498,-2.5072,-2.4402,-2.4402,-2.3527,-2.2117,-2.1601,-2.0763,-1.9708,-1.9168,-1.7948,-1.6314,-1.4525,-1.3446,-1.2791,-1.1419,-1.0819,-0.9824,0.0,0.0,0.0,0.0,0.0,0.0,0.0,0.0,0.0,0.0,0.0,-3.5622,-3.5622,-3.5622,-3.5739,-3.6097,-3.644,-3.6943,-3.7614,0.0,0.0,0.0,0.0,0.0,0.0,-3.8707,-3.8707,-3.8707,-3.8884,-3.8961,-3.899,-3.9171,-3.9189,-3.8961,-3.8961,-3.8855,-3.8707,-3.8707,-3.8707,-3.8707,-3.8707,-3.8201,-3.7433,0.0,0.0,0.0,0.0,0.0,0.0,0.0,0.0,0.0,0.0,0.0,0.0,0.0,0.0,0.0,0.0,0.0,0.0,0.0,0.0,0.0,0.0,0.0,0.0,0.0,0.0,0.0,0.0,0.0,0.0,0.0,0.0,0.0,0.0,0.0,-2.4925,-2.5176,-2.2892,-2.1868,-2.3322,-2.0889,-1.957,-2.0771,-1.873,-1.7904,-1.8977,-1.9836,-2.0855,-2.21,-2.3131,-2.4288,-2.5508,-2.4856,-2.4857,-2.5438,-2.5855,-2.5438,-2.4088,-2.4601,-2.3715,-2.165,-2.1129,-2.0372,-1.9278,-1.8276,-1.6386,-1.4029,-1.2969,-1.1248,-0.9459,-0.9476,-0.9517,-0.8719,0.0,0.0,0.0,0.0,0.0,0.0,0.0,0.0,0.0,0.0,-3.5622,-3.5622,-3.5622,-3.5622,-3.5622,-3.5605,-3.5605,-3.6097,-3.7135,-3.721,0.0,0.0,0.0,0.0,-3.8707,-3.8707,-3.8707,-3.8707,-3.8726,-3.8744,-3.8744,-3.8793,-3.8811,-3.8811,-3.8811,-3.8781,-3.8781,-3.8762,-3.8744,-3.8744,-3.8707,-3.8382,-3.7859,0.0,0.0,0.0,0.0,0.0,0.0,0.0,0.0,0.0,0.0,0.0,0.0,0.0,0.0,0.0,0.0,0.0,0.0,0.0,0.0,0.0,0.0,0.0,0.0,0.0,0.0,0.0,0.0,0.0,0.0,0.0,0.0,0.0,-2.6307,-2.5462,-2.5126,-2.6224,-2.3384,-2.2189,-2.4457,-2.3032,-2.2419,-2.3619,-2.1808,-2.0691,-2.0699,-2.0707,-2.0881,-2.1337,-2.4128,-2.5878,-2.6406,-2.6816,-2.6266,-2.4864,-2.6368,-2.6153,-2.476,-2.6256,-2.605,-2.4569,-2.319,-2.1884,-2.0662,-1.7717,-1.5804,-1.4559,-1.4009,-1.2138,-0.9615,-0.9615,-0.9717,-0.8861,0.0,0.0,0.0,0.0,0.0,0.0,0.0,0.0,0.0,0.0,-3.5622,-3.5622,-3.5622,-3.5622,-3.5739,-3.6139,-3.6182,-3.6626,-3.7649,0.0,0.0,0.0,0.0,0.0,-3.8707,-3.8707,-3.8707,-3.8707,-3.9475,-3.9861,-3.988,-4.0709,-4.1008,-4.0807,-4.0807,-4.0677,-4.0414,-3.9827,-3.957,-3.9515,-3.8927,-3.8382,-3.7911,0.0,0.0,0.0,0.0,0.0,0.0,0.0,0.0,0.0,0.0,0.0,0.0,0.0,0.0,0.0,0.0,0.0,0.0,0.0,0.0,0.0,0.0,0.0,0.0,0.0,0.0,0.0,0.0,0.0,0.0,0.0,0.0,-2.4872,-2.521,-2.4296,-2.3357,-2.2775,-2.2184,-2.1735,-2.1416,-2.1232,-2.1285,-2.1569,-2.1332,-2.1663,-2.2939,-2.2223,-2.2952,-2.531,-2.5219,-2.5656,-2.6836,-2.6953,-2.6798,-2.6368,-2.6798,-2.5731,-2.3279,-2.3702,-2.2675,-2.0545,-2.0107,-1.9843,-1.9679,-1.7683,-1.5959,-1.447,-1.3163,-1.1503,-0.9764,-0.9764,-0.9802,-0.9233,0.0,0.0,0.0,0.0,0.0,0.0,0.0,0.0,0.0,0.0,-3.5622,-3.5622,-3.5622,-3.5622,-3.5739,-3.6054,-3.6266,-3.6746,-3.7542,0.0,0.0,0.0,0.0,-3.8707,-3.8707,-3.8707,-3.8872,-3.9203,-3.9852,-4.0293,-4.0644,-4.1295,-4.1556,-4.1385,-4.1385,-4.128,-4.1075,-4.0598,-4.0396,-4.0359,-3.99,-3.91,-3.8216,-3.798,-3.7614,-3.7152,-3.6603,-3.6266,-3.6028,-3.5694,0.0,0.0,0.0,0.0,0.0,0.0,0.0,0.0,0.0,0.0,0.0,0.0,0.0,0.0,0.0,0.0,0.0,0.0,0.0,0.0,0.0,0.0,0.0,0.0,-2.5136,-2.4196,-2.439,-2.3829,-2.3133,-2.2471,-2.2756,-2.2732,-2.1955,-2.2464,-2.2804,-2.2804,-2.29,-2.3314,-2.4271,-2.378,-2.4391,-2.639,-2.6191,-2.6503,-2.7549,-2.7549,-2.7217,-2.6674,-2.7226,-2.6349,-2.4167,-2.4167,-2.2982,0.0,-2.0316,-1.9759,-1.9249,-1.6973,-1.5429,0.0,0.0,0.0,0.0,0.0,-0.9836,-0.9487,0.0,0.0,0.0,0.0,0.0,0.0,0.0,0.0,0.0,0.0,0.0,-3.5622,-3.5622,-3.5622,-3.5622,-3.5622,-3.6097,-3.6643,0.0,0.0,0.0,-3.8707,-3.8707,-3.8707,-3.8707,-3.8799,-3.9184,-3.99,-4.0065,-4.0543,-4.1258,-4.135,-4.1387,-4.1387,-4.1387,-4.1387,-4.1368,-4.1277,-4.1258,-4.124,-4.1148,-4.0194,-3.8774,-3.8244,-3.7721,-3.721,-3.6603,-3.6097,-3.5694,-3.5622,0.0,0.0,0.0,0.0,0.0,0.0,0.0,0.0,0.0,0.0,0.0,0.0,0.0,0.0,0.0,0.0,0.0,0.0,0.0,0.0,0.0,0.0,0.0,0.0,-2.4636,-2.3359,-2.3799,-2.3906,-2.3916,-2.3867,-2.4277,-2.457,-2.457,-2.5361,-2.5879,-2.5879,-2.546,-2.5249,0.0,0.0,0.0,0.0,0.0,-2.7795,-2.8281,-2.8291,-2.7618,-2.6381,-2.7501,-2.7276,-2.5827,-2.5709,-2.4735,-2.3328,-2.1979,-2.0543,-1.8979,-1.599,-1.4436,-1.3952,-1.247,-1.102,-0.9822,-0.9822,-0.9836,0.0,0.0,0.0,0.0,0.0,0.0,0.0,0.0,0.0,0.0,-3.5622,-3.5622,-3.5622,-3.5622,-3.5622,-3.5622,-3.5622,-3.6097,-3.6786,0.0,0.0,-3.8707,-3.8707,-3.8707,-3.8707,-3.8707,-3.9331,-3.9735,-3.99,-4.1203,-4.1919,-4.2084,-4.2727,-4.3039,-4.3039,-4.3039,-4.3039,-4.2983,-4.2341,-4.2066,-4.2011,-4.1368,-4.0524,-3.9612,-3.9075,-3.8418,-3.7649,-3.6724,-3.6333,-3.6182,-3.5739,-3.5622,-3.5571,-3.5463,0.0,0.0,0.0,0.0,0.0,0.0,0.0,0.0,0.0,0.0,0.0,0.0,0.0,0.0,0.0,0.0,0.0,0.0,0.0,0.0,-2.6903,-2.5103,-2.3809,-2.4238,-2.46,-2.4687,-2.4336,-2.5,-2.5488,-2.5488,-2.626,-2.6768,-2.6768,-2.703,-2.7207,-2.7207,-2.631,0.0,-2.7718,-2.6929,-2.6976,-2.8291,-2.8291,-2.8184,-2.7843,0.0,0.0,-2.4156,-2.3039,-2.1735,-2.051,-2.0282,-1.9337,-1.7839,-1.5985,-1.3527,-1.1036,-1.0523,-1.0061,-0.9822,-0.9822,-0.9825,-0.9852,0.0,0.0,0.0,0.0,0.0,0.0,0.0,0.0,0.0,0.0,-3.5622,-3.5622,-3.5622,-3.5854,-3.6028,-3.6028,-3.6706,0.0,0.0,0.0,0.0,-3.8707,-3.8707,-3.8707,-3.8707,-3.9478,-4.0102,-4.0506,-4.1717,-4.2506,-4.291,-4.3296,-4.3497,-4.3497,-4.3497,-4.3497,-4.3461,-4.3057,-4.2892,-4.2873,-4.2451,-4.1827,-4.1005,-4.002,-3.9265,-3.8592,-3.7801,-3.7361,-3.7086,-3.6847,-3.6772,-3.673,-3.6733,-3.6037,-3.5202,0.0,0.0,0.0,0.0,0.0,0.0,0.0,0.0,0.0,0.0,0.0,0.0,0.0,0.0,-2.9624,0.0,0.0,-2.6657,-2.6314,-2.5002,-2.4258,-2.4687,-2.5127,-2.5322,-2.5098,-2.5664,-2.6152,-2.6357,-2.6963,-2.7344,-2.7344,-2.7734,-2.7978,-2.7978,-2.7504,-2.7511,-2.8291,-2.7809,-2.7815,-2.8603,-2.8828,-2.8935,-2.8935,-2.7327,-2.6184,-2.5396,-2.3113,-2.1723,-2.1068,-1.938,-1.824,-1.7368,-1.5003,-1.2523,-1.0263,-1.011,-1.0049,-1.0049,-1.0049,-1.0049,-1.0066,0.0,0.0,0.0,0.0,0.0,0.0,0.0,0.0,0.0,0.0,0.0,-3.5667,-3.5739,-3.6139,-3.6498,0.0,0.0,0.0,0.0,0.0,0.0,0.0,-3.8707,-3.8707,-3.8707,-3.9643,-4.0451,-4.1111,-4.2066,-4.2855,-4.3497,-4.3497,-4.3497,-4.3497,-4.3497,-4.3497,-4.3497,-4.3497,-4.3497,-4.3497,-4.3497,-4.3059,-4.2262,-4.0979,-4.0096,-3.9411,-3.8695,-3.8242,-3.7905,-3.7905,-3.7905,-3.7874,-3.7701,-3.6842,-3.5991,-3.6353,-3.566,0.0,0.0,0.0,0.0,0.0,0.0,0.0,0.0,0.0,-2.9792,-2.9792,-2.988,-2.9696,-2.8754,-2.7845,-2.694,-2.6192,-2.5199,-2.4727,-2.5254,-2.5635,-2.5928,-2.6094,-2.6426,-2.6768,-2.7109,-2.7529,-2.7783,-2.7783,-2.8096,-2.8291,-2.8291,-2.8369,-2.8418,-2.8418,-2.8828,-2.9043,-2.9043,-2.9394,-2.957,-2.957,-2.7937,-2.7007,-2.654,-2.3756,-2.2393,-2.198,-1.8717,-1.7264,-1.701,-1.3627,-1.1494,-1.0368,-1.0368,-1.0368,-1.0358,-1.03,-1.028,-1.029,0.0,0.0,0.0,0.0,0.0,0.0,0.0,0.0,0.0,0.0,0.0,0.0,0.0,0.0,0.0,0.0,0.0,0.0,0.0,0.0,0.0,0.0,-3.8707,-3.8707,-3.8707,-4.0194,-4.102,-4.1111,-4.2616,-4.3406,-4.3497,-4.3497,-4.3497,-4.3497,-4.3497,-4.3497,-4.3497,-4.3497,-4.3497,-4.3497,-4.3497,-4.3159,-4.2587,-4.1889,-4.0737,-3.937,-3.8334,-3.7936,-3.7905,-3.7905,-3.7905,-3.7748,-3.7048,-3.6749,-3.6426,-3.5827,0.0,-3.54,-3.5489,-3.5439,-3.5067,-3.4095,-3.3171,-3.2249,0.0,0.0,-2.9792,-2.9792,-3.0181,-3.044,-3.0348,-2.8987,-2.7908,-2.8166,-2.6403,-2.5283,-2.6123,-2.6279,-2.6602,-2.7363,-2.749,-2.7539,-2.7588,-2.7969,-2.8223,-2.8223,-2.8262,-2.8291,-2.8291,-2.8643,-2.8848,-2.8848,-2.9268,-2.9502,-2.9502,-2.9541,-2.957,-2.957,-2.806,-2.654,-2.5136,-2.3402,-2.2045,-2.0752,-1.7551,-1.61,-1.5843,-1.2354,-1.0798,-1.067,-1.067,-1.067,-1.0639,-1.0378,-1.028,-1.0307,0.0,0.0,0.0,0.0,0.0,0.0,0.0,0.0,0.0,0.0,0.0,0.0,0.0,0.0,0.0,0.0,0.0,0.0,0.0,0.0,0.0,0.0,-3.8707,-3.8707,-3.8707,-3.9827,-4.0634,-4.1111,-4.2249,-4.3039,-4.3497,-4.3497,-4.3497,-4.3497,-4.3497,-4.3497,-4.3497,-4.3497,-4.3497,-4.3497,-4.3497,-4.3178,-4.2616,-4.2021,-4.1173,-4.0236,-3.9447,-3.9174,0.0,0.0,-3.9174,-3.9109,-3.8783,-3.803,-3.7249,-3.6917,-3.6196,0.0,-3.5504,-3.5504,0.0,0.0,-3.331,-3.2321,-3.1389,-3.0482,-2.988,-3.0206,-3.0457,-3.0536,-3.0171,-2.9687,-2.895,0.0,-2.7233,-2.6794,-2.6427,-2.6816,-2.7266,-2.7627,-2.7881,-2.8027,-2.8027,-2.8193,-2.8291,-2.8291,-2.8291,-2.8398,-2.8643,-2.8818,-2.9033,-2.9287,-2.9717,-2.9932,-2.9932,-3.0205,-3.0342,-3.0342,-2.8765,-2.7081,-2.553,-2.387,-2.1871,-1.9259,-1.691,-1.5265,-1.4232,-1.1765,-1.0721,-1.0721,-1.0721,-1.0721,-1.0707,-1.0582,-1.0544,-1.0568,0.0,0.0,0.0,0.0,0.0,0.0,0.0,0.0,0.0,0.0,0.0,0.0,0.0,0.0,0.0,0.0,0.0,0.0,0.0,0.0,0.0,0.0,-3.8707,0.0,-3.8707,-3.9478,-4.0194,-4.0781,-4.1809,-4.2598,-4.3167,-4.3387,-4.3497,-4.3497,-4.3497,-4.3497,-4.3497,-4.3497,-4.3497,-4.3497,-4.3497,-4.3087,-4.2382,-4.1979,-4.1313,-4.0607,-4.0254,-4.007,0.0,0.0,-4.007,-4.002,-3.9627,-3.8723,-3.7706,-3.7294,-3.6368,-3.5504,-3.5504,0.0,0.0,-3.4245,-3.3518,-3.272,-3.1662,-3.0853,-3.0455,-3.0788,-3.0959,-3.0916,-3.0518,-3.0577,0.0,-2.8327,-2.8481,-2.8399,-2.7202,-2.7782,-2.8311,-2.8421,-2.8308,-2.8601,-2.9303,-2.8698,-2.8495,-2.8794,-2.8603,-2.881,-2.9431,-2.9361,-2.9414,-2.9736,-3.0166,-3.0391,-3.0391,-3.0723,-3.0889,-3.0889,-2.9157,-2.7563,-2.5976,-2.3799,-2.1566,-1.903,-1.6824,-1.5135,-1.384,-1.1633,-1.0721,-1.0721,-1.0721,-1.0721,-1.0721,-1.0727,-1.0741,-1.0755,0.0,0.0,0.0,0.0,0.0,0.0,0.0,0.0,0.0,0.0,0.0,0.0,0.0,0.0,0.0,0.0,0.0,0.0,0.0,0.0,0.0,0.0,-3.8707,-3.8707,-3.8707,-3.9478,-3.99,-3.9937,-4.1515,-4.2304,-4.2359,-4.313,-4.3497,-4.3497,-4.3497,-4.3497,-4.3497,-4.3497,-4.3497,-4.3497,-4.3497,-4.281,-4.1853,-4.181,-4.1122,-4.0121,-4.0138,0.0,0.0,-4.007,-4.007,-3.985,-3.8318,-3.7806,0.0,-3.6037,-3.5569,-3.5504,0.0,0.0,-3.5279,-3.4245,-3.3959,-3.3619,-3.2244,-3.1935,-3.1811,-3.1478,-3.1788,-3.2177,-3.2106,-3.165,-3.111,-3.111,-3.0549,-2.9829,-2.8848,-2.9231,-2.9814,-3.014,-2.9092,-2.9303,0.0,-2.9807,-2.8794,-3.011,-2.9387,-2.9431,-3.0914,-3.0459,-3.0166,-3.0176,-3.0635,-3.0869,-3.0869,-3.0889,-3.0889,-3.0889,-2.9157,-2.7563,-2.5855,-2.2695,-2.1109,-2.0849,-1.7339,-1.5913,-1.5524,-1.2153,-1.0721,-1.0721,-1.0721,-1.0721,-1.0724,-1.0744,-1.0755,-1.0761,0.0,0.0,0.0,0.0,0.0,0.0,0.0,0.0,0.0,0.0,0.0,0.0,0.0,0.0,0.0,0.0,0.0,0.0,0.0,0.0,0.0,0.0,-3.8707,-3.8707,-3.8707,-3.8964,-3.9368,-3.99,-4.0432,-4.0983,-4.1534,-4.2323,-4.269,-4.2727,-4.3259,-4.3497,-4.3497,-4.3497,-4.3497,-4.3497,-4.3497,-4.281,-4.181,-4.181,-4.1076,-4.007,0.0,0.0,-4.007,-4.007,-3.9731,-3.9193,-3.869,-3.7831,-3.6814,-3.5797,-3.5504,-3.5504,-3.5504,0.0,-3.5279,-3.4245,-3.4329,-3.4411,-3.3303,-3.3063,-3.3152,-3.3382,-3.2975,-3.2704,-3.3092,-3.2811,-3.2152,-3.1311,-3.1583,-3.1444,-3.037,-3.0888,-3.1447,-3.1611,-3.1224,0.0,0.0,0.0,0.0,-3.0758,-3.1338,-3.1806,-3.1881,-3.1774,-3.1748,-3.2055,-3.1361,-3.0889,-3.0889,-3.0889,-3.0889,-3.0889,-2.8179,-2.6461,-2.5855,-2.2577,-2.1109,-2.0849,-1.7468,-1.5913,-1.5654,-1.2153,-1.0721,-1.0721,-1.0721,-1.0721,-1.0724,-1.0638,-0.9149,-0.7519,0.0,0.0,0.0,0.0,0.0,0.0,0.0,0.0,0.0,0.0,0.0,0.0,0.0,0.0,0.0,0.0,0.0,0.0,0.0,0.0,0.0,0.0,-3.8707,-3.8707,-3.8707,-3.8707,-3.8946,-3.946,-3.9753,-4.0157,-4.0689,-4.1497,-4.1882,-4.1901,-4.2415,-4.2635,-4.2653,-4.2947,-4.291,-4.2671,-4.2947,-4.2393,-4.1361,-4.1361,-4.0833,0.0,0.0,0.0,-4.007,-4.007,-3.9782,-3.9262,-3.869,-3.744,-3.6165,-3.5943,-3.5733,-3.5554,-3.5831,-3.5899,-3.5702,-3.5028,-3.5361,-3.5604,-3.4652,-3.4436,-3.4388,-3.4333,-3.3503,-3.2949,-3.333,-3.3021,-3.2657,-3.2228,-3.3044,-3.3357,-3.23,-3.2765,-3.3273,-3.3021,-3.2644,0.0,0.0,0.0,0.0,-3.2531,-3.3042,-3.3592,-3.3954,-3.3627,-3.3311,-3.3067,-3.2207,-3.1441,-3.0898,-3.0889,-3.0274,-2.9166,-2.6961,-2.5375,-2.4155,-2.209,-2.1109,-2.0849,-1.7468,-1.5913,-1.5654,-1.2153,-1.0721,-1.0721,-1.0721,-1.0721,-1.0727,-1.0652,-0.8478,-0.5501,0.0,0.0,0.0,0.0,0.0,0.0,0.0,0.0,0.0,0.0,0.0,0.0,0.0,0.0,0.0,0.0,0.0,0.0,0.0,0.0,0.0,-3.8707,-3.8707,-3.8707,-3.8707,-3.8707,-3.8707,-3.8707,-3.946,-3.9827,-3.9845,-4.0671,-4.1056,-4.1056,-4.1093,-4.1111,-4.1167,-4.1919,-4.1809,-4.1185,-4.1937,-4.1542,-4.0565,-4.0565,0.0,0.0,0.0,0.0,0.0,-4.007,0.0,0.0,-3.8262,-3.6784,-3.5733,-3.6446,-3.6117,-3.5733,-3.643,-3.6572,-3.6492,-3.6522,-3.6971,-3.7114,-3.6171,-3.5928,-3.5611,-3.4627,-3.3553,-3.2856,0.0,0.0,-3.2485,-3.3524,-3.4647,-3.5141,-3.4399,-3.4769,-3.4984,0.0,0.0,0.0,0.0,0.0,0.0,-3.5394,0.0,-3.4806,-3.6588,-3.5898,-3.4736,-3.3293,-3.3191,-3.2426,-3.0889,-3.0889,-2.9294,-2.6227,-2.6098,-2.4401,-2.1355,-2.1229,-2.1109,-2.0849,-1.7468,-1.5913,-1.5654,-1.2153,-1.0721,-1.0721,-1.0721,-1.0721,-1.0727,-1.0652,-0.8478,-0.4829,0.0,0.0,0.0,0.0,0.0,0.0,0.0,0.0,0.0,0.0,0.0,0.0,0.0,0.0,0.0,0.0,0.0,0.0,0.0,0.0,0.0,0.0,0.0,0.0,0.0,0.0,0.0,0.0,0.0,-3.9019,-3.9019,-3.9827,-4.0212,-4.023,-4.0836,-4.1111,-4.113,-4.1332,-4.1295,-4.113,0.0,-4.0763,-3.9792,-3.9792,0.0,0.0,0.0,0.0,0.0,0.0,0.0,0.0,0.0,-3.7531,-3.7235,-3.7456,-3.6919,-3.6445,-3.7172,-3.6923,-3.6596,-3.706,-3.73,-3.7336,-3.7045,-3.6689,-3.6295,-3.5991,-3.4482,-3.322,0.0,0.0,0.0,-3.2542,-3.3216,0.0,-3.4525,-3.5036,0.0,-3.5891,0.0,-3.5815,-3.6923,-3.6796,0.0,0.0,-3.771,-3.7491,-3.7345,-3.7074,-3.6259,-3.4736,-3.3631,-3.2426,-3.0889,-3.0889,-3.0518,-2.9658,-2.7202,-2.5619,-2.4648,-2.2208,-2.1109,-2.0849,-1.7468,-1.5913,-1.5654,-1.2153,-1.0721,-1.0721,-1.0721,-1.0721,-1.0727,-1.0652,-0.8478,-0.4829,0.0,0.0,0.0,0.0,0.0,0.0,0.0,0.0,0.0,0.0,0.0,0.0,0.0,0.0,0.0,0.0,0.0,0.0,0.0,0.0,0.0,0.0,0.0,0.0,0.0,0.0,0.0,0.0,0.0,0.0,-3.8707,-3.9166,-3.9368,-3.9386,-3.9863,-4.0065,-4.0084,-4.0432,0.0,0.0,0.0,0.0,-3.8956,0.0,0.0,0.0,0.0,0.0,0.0,0.0,0.0,-3.8854,-3.8414,-3.8035,-3.7863,-3.8206,0.0,-3.6938,-3.834,-3.7807,-3.7166,-3.8189,-3.8084,-3.7764,-3.7479,-3.6926,-3.632,-3.5577,-3.4128,0.0,0.0,0.0,0.0,0.0,0.0,0.0,-3.5199,-3.566,-3.5991,0.0,-3.6571,0.0,-3.7149,-3.7626,-3.8191,0.0,-3.8868,-3.8776,-3.8441,-3.8465,-3.7808,-3.6271,-3.4836,-3.3088,-3.0889,-3.0889,-3.0518,-2.9776,-2.7202,-2.5619,-2.4901,-2.2334,-2.1109,-2.0849,0.0,-1.5913,-1.5654,-1.2153,-1.0721,-1.0721,-1.0721,-1.0721,-1.0724,-1.0635,-0.8467,-0.4827,0.0,0.0,0.0,0.0,0.0,0.0,0.0,0.0,0.0,0.0,0.0,0.0,0.0,0.0,0.0,0.0,0.0,0.0,0.0,0.0,0.0,0.0,0.0,0.0,0.0,0.0,0.0,0.0,0.0,0.0,0.0,0.0,0.0,0.0,0.0,0.0,0.0,0.0,0.0,0.0,0.0,0.0,0.0,0.0,0.0,0.0,0.0,0.0,0.0,0.0,-3.961,-3.9086,-3.9086,-3.8635,-3.8206,-3.8854,-3.8044,-3.7421,-3.9649,-3.898,-3.8068,-3.938,-3.9084,-3.8217,-3.7434,-3.6724,-3.5748,-3.4293,0.0,-3.2177,-3.1315,0.0,-3.1121,-3.2437,0.0,-3.4186,-3.5778,-3.6005,-3.6146,-3.6407,-3.6847,-3.7211,-3.7287,-3.8253,-3.8906,-3.8981,-3.8981,-3.9195,-3.9672,-3.9697,-3.8921,-3.7252,-3.5617,-3.354,-3.0889,-3.0889,-3.002,-2.8417,-2.6712,-2.5138,-2.3574,-2.1846,-2.1109,-2.0849,0.0,0.0,-1.5654,-1.2153,-1.0721,-1.0721,-1.0721,-1.0721,-1.0724,-1.0744,-0.8728,-0.5499,0.0,0.0,0.0,0.0,0.0,0.0,0.0,0.0,0.0,0.0,0.0,0.0,0.0,0.0,0.0,0.0,0.0,0.0,0.0,0.0,0.0,0.0,0.0,0.0,0.0,0.0,0.0,0.0,0.0,0.0,0.0,0.0,0.0,0.0,0.0,0.0,0.0,0.0,0.0,0.0,0.0,0.0,0.0,0.0,0.0,0.0,0.0,0.0,0.0,0.0,-4.002,-3.9901,-3.9901,-3.9782,-3.9731,-3.9833,-3.9262,-3.8858,-4.0426,-4.0151,-3.9487,-3.9695,-3.9183,-3.8284,-3.6977,-3.5524,0.0,0.0,0.0,-3.1389,-3.1254,-3.1123,0.0,-3.1029,0.0,0.0,0.0,0.0,-3.5297,0.0,0.0,0.0,0.0,0.0,0.0,0.0,0.0,0.0,-3.9685,-3.9697,-3.8477,-3.5727,-3.3098,-3.145,-3.0889,-3.0889,-3.002,-2.8417,-2.6712,-2.5138,-2.3574,-2.1846,-2.1109,-2.0849,0.0,0.0,-1.5654,-1.2153,-1.0721,-1.0721,-1.0721,-1.0721,-1.0724,-1.0744,-1.0365,-0.889,0.0,0.0,0.0,0.0,0.0,0.0,0.0,0.0,0.0,0.0,-3.5622,-3.5622,0.0,0.0,0.0,0.0,0.0,0.0,0.0,0.0,0.0,0.0,0.0,0.0,0.0,0.0,0.0,0.0,0.0,0.0,0.0,0.0,0.0,0.0,0.0,0.0,0.0,0.0,0.0,0.0,0.0,0.0,0.0,0.0,0.0,0.0,0.0,0.0,0.0,0.0,-4.007,-4.007,-4.007,-4.007,-4.007,-4.007,-3.9542,-3.9292,-4.1166,-4.0516,-3.9492,-4.0166,-3.9264,-3.7864,-3.6737,0.0,0.0,0.0,-3.289,-3.1742,-3.1315,0.0,0.0,0.0,0.0,0.0,0.0,0.0,0.0,0.0,0.0,0.0,0.0,0.0,0.0,0.0,0.0,0.0,0.0,-3.9025,-3.7583,-3.5398,-3.3201,-3.1662,-3.0889,-3.0889,-3.002,-2.8417,-2.6712,-2.5138,-2.3574,-2.1846,-2.0589,-1.9546,0.0,0.0,-1.4362,-1.1762,-1.0721,-1.0721,-1.0721,-1.0721,-1.0721,-1.0731,-1.0765,-0.9984,0.0,0.0,0.0,0.0,0.0,0.0,0.0,-3.5622,-3.5622,-3.5622,-3.5622,-3.5622,-3.5622,-3.5622,0.0,0.0,0.0,0.0,0.0,0.0,0.0,0.0,0.0,0.0,0.0,0.0,0.0,0.0,0.0,0.0,0.0,0.0,0.0,0.0,0.0,0.0,0.0,0.0,0.0,0.0,0.0,0.0,0.0,0.0,0.0,0.0,0.0,0.0,0.0,0.0,-4.007,-4.007,-3.9901,-3.9952,-4.007,-4.007,-3.9662,-3.9598,-4.1519,-4.0696,-3.9531,-4.0344,-3.9217,-3.7607,-3.6547,-3.5732,0.0,0.0,-3.3241,-3.2393,-3.1683,0.0,0.0,0.0,0.0,0.0,0.0,0.0,0.0,0.0,0.0,0.0,0.0,0.0,0.0,0.0,0.0,0.0,0.0,-3.8019,-3.6487,-3.5288,-3.3529,-3.2092,-3.0889,-3.0889,-3.002,-2.8417,-2.6712,-2.5138,-2.3574,-2.1846,-2.0195,-1.8378,0.0,0.0,0.0,-1.1372,-1.0721,-1.0721,-1.0721,-1.0721,-1.0721,-1.0724,-1.0761,-1.0261,0.0,0.0,0.0,0.0,0.0,0.0,0.0,-3.5622,-3.5622,-3.5622,-3.5622,-3.5622,-3.5622,-3.5622,0.0,0.0,0.0,0.0,0.0,0.0,0.0,0.0,0.0,0.0,0.0,0.0,0.0,0.0,0.0,0.0,0.0,0.0,0.0,0.0,0.0,0.0,0.0,0.0,0.0,0.0,0.0,0.0,0.0,0.0,0.0,0.0,0.0,0.0,0.0,0.0,0.0,-3.9952,-3.9262,-3.9489,-4.007,-4.007,0.0,0.0,-4.1085,-4.1133,-4.0712,-3.9418,-3.8926,-3.8191,-3.6073,0.0,0.0,-3.4027,-3.3241,-3.2593,-3.2464,-3.2393,-3.2132,0.0,0.0,-3.3719,0.0,0.0,0.0,0.0,0.0,0.0,0.0,0.0,0.0,0.0,0.0,0.0,0.0,-3.7049,-3.5398,-3.5288,-3.254,-3.0995,-3.0889,-3.0889,-3.002,-2.8417,-2.6712,-2.5138,-2.3574,-2.1846,-2.0195,-1.8378,0.0,0.0,0.0,-1.1372,-1.0721,-1.0721,-1.0721,-1.0721,-1.0721,-1.0744,-1.0642,-1.0675,0.0,0.0,0.0,0.0,0.0,0.0,0.0,-3.5622,-3.5622,-3.5622,-3.5622,-3.5622,-3.5622,-3.5622,-3.5622,0.0,0.0,0.0,0.0,0.0,0.0,0.0,0.0,0.0,0.0,0.0,0.0,0.0,0.0,0.0,0.0,0.0,0.0,0.0,0.0,0.0,0.0,0.0,0.0,0.0,0.0,0.0,0.0,0.0,0.0,0.0,0.0,0.0,0.0,0.0,0.0,0.0,-3.9714,-3.9489,0.0,0.0,-3.9731,-4.024,-4.1001,-4.0882,-4.0285,-3.9201,-3.8584,-3.7745,-3.5906,0.0,-3.4905,-3.4905,-3.4109,-3.3449,-3.3449,-3.2522,-3.1815,0.0,0.0,0.0,0.0,0.0,0.0,0.0,0.0,0.0,0.0,0.0,0.0,0.0,0.0,0.0,0.0,0.0,-3.5288,-3.5288,-3.2436,-3.0889,-3.0889,-3.0889,-2.953,-2.6953,-2.6349,-2.4648,-2.2097,-2.1355,-2.0195,0.0,0.0,0.0,0.0,-1.1372,-1.0721,-1.0721,-1.0721,-1.0721,-1.0724,-1.0744,-0.9407,-0.7801,0.0,0.0,0.0,0.0,0.0,0.0,-3.5622,-3.5622,-3.5622,-3.5622,-3.5622,-3.5622,-3.5622,-3.5622,-3.5622,-3.5622,0.0,0.0,0.0,0.0,0.0,0.0,0.0,0.0,0.0,0.0,0.0,0.0,0.0,0.0,0.0,0.0,0.0,0.0,0.0,0.0,0.0,0.0,0.0,0.0,0.0,0.0,0.0,0.0,0.0,0.0,0.0,0.0,0.0,0.0,0.0,0.0,0.0,0.0,0.0,0.0,-3.9489,-3.99,-4.0662,-4.0493,-3.9848,-3.882,-3.8174,-3.7413,0.0,0.0,-3.5504,-3.5504,-3.492,-3.4461,-3.4461,-3.3101,-3.2249,-3.289,0.0,-3.3268,0.0,0.0,0.0,0.0,0.0,0.0,0.0,0.0,0.0,0.0,0.0,0.0,0.0,0.0,-3.5288,-3.5288,-3.2871,-3.1325,-3.0889,-3.0889,-2.953,-2.6712,-2.6227,-2.4525,-2.1846,-2.1355,-2.0195,0.0,0.0,0.0,0.0,-1.1372,-1.0721,-1.0721,-1.0721,-1.0721,-1.0724,-1.0758,-0.8462,-0.5635,0.0,0.0,0.0,0.0,0.0,0.0,0.0,-3.5622,-3.5622,-3.5622,-3.5622,-3.5622,-3.5622,-3.5622,-3.5622,-3.5622,0.0,0.0,0.0,0.0,0.0,0.0,0.0,0.0,0.0,0.0,0.0,-3.5622,0.0,0.0,0.0,0.0,0.0,0.0,0.0,0.0,0.0,0.0,0.0,0.0,0.0,0.0,0.0,0.0,0.0,0.0,0.0,0.0,0.0,0.0,0.0,0.0,0.0,0.0,0.0,0.0,-3.9542,-3.9086,-3.9901,-4.0087,-3.9731,-3.8222,-3.7822,-3.7413,0.0,0.0,-3.5504,-3.5504,-3.5504,-3.5504,-3.5504,-3.4691,-3.3959,-3.3959,-3.4545,0.0,0.0,0.0,0.0,0.0,0.0,0.0,0.0,0.0,0.0,0.0,0.0,0.0,0.0,0.0,-3.5288,-3.5288,-3.3856,-3.2426,-3.0889,-3.0889,-3.002,-2.8417,-2.6712,-2.5138,-2.3574,-2.1853,0.0,0.0,0.0,0.0,0.0,-1.1372,-1.0721,-1.0721,-1.0721,-1.0721,-1.0727,-1.0648,-0.8478,-0.4829,0.0,0.0,0.0,0.0,0.0,0.0,0.0,-3.5622,-3.5622,-3.5622,-3.5622,-3.5622,-3.5622,-3.5622,-3.5622,-3.5622,0.0,0.0,0.0,0.0,0.0,0.0,0.0,0.0,0.0,0.0,-3.5622,-3.5622,-3.5622,-3.5711,0.0,0.0,0.0,0.0,0.0,0.0,0.0,0.0,0.0,0.0,0.0,0.0,0.0,0.0,0.0,0.0,0.0,0.0,0.0,0.0,0.0,0.0,0.0,0.0,0.0,-3.8978,0.0,0.0,-3.8596,-3.8541,-3.8262,-3.7263,-3.6964,-3.6753,-3.5733,0.0,-3.5504,-3.5504,-3.5504,-3.5504,-3.5504,-3.4691,-3.4027,-3.4027,-3.4185,0.0,0.0,0.0,0.0,0.0,0.0,0.0,0.0,0.0,0.0,0.0,0.0,0.0,0.0,0.0,0.0,-3.53,-3.2871,-3.1325,-3.0889,-3.0889,-2.953,-2.6712,-2.6219,-2.4525,-2.1846,0.0,0.0,0.0,0.0,0.0,0.0,-1.1894,-1.0721,-1.0721,-1.0721,-1.0721,-1.0727,-1.0652,-0.8478,-0.4829,0.0,0.0,0.0,0.0,0.0,0.0,0.0,-3.5622,-3.5622,-3.5622,-3.5622,-3.5622,-3.5622,-3.5622,-3.5622,-3.5622,0.0,0.0,0.0,0.0,0.0,0.0,0.0,0.0,0.0,-3.5622,-3.5622,-3.5622,-3.5622,-3.5622,-3.5622,-3.5622,-3.5622,0.0,0.0,0.0,0.0,0.0,0.0,0.0,0.0,0.0,-3.5622,0.0,0.0,0.0,0.0,0.0,0.0,0.0,0.0,0.0,0.0,0.0,0.0,0.0,-3.8044,-3.8003,0.0,-3.7822,-3.7632,-3.6783,-3.6615,0.0,0.0,0.0,-3.5504,-3.5504,-3.5504,-3.5504,-3.5504,-3.4986,-3.4543,-3.4543,-3.4543,0.0,0.0,0.0,0.0,0.0,0.0,0.0,0.0,0.0,0.0,0.0,0.0,0.0,0.0,0.0,0.0,-3.53,-3.2985,-3.1441,-3.0898,-3.0889,-2.9285,-2.5976,-2.5976,-2.4278,-2.1109,0.0,0.0,0.0,0.0,0.0,0.0,-1.2153,-1.0721,-1.0721,-1.0721,-1.0721,-1.0727,-1.0652,-0.8478,-0.4829,0.0,0.0,0.0,0.0,0.0,0.0,0.0,0.0,0.0,0.0,-3.5622,-3.5622,-3.5622,-3.5622,-3.5622,0.0,0.0,0.0,0.0,0.0,0.0,0.0,0.0,0.0,0.0,-3.5622,-3.5622,-3.5622,-3.5622,-3.5622,-3.5622,-3.5622,-3.5622,-3.5622,-3.5622,-3.5622,-3.5622,-3.5622,-3.5622,-3.5622,-3.5622,-3.5622,0.0,0.0,0.0,0.0,0.0,0.0,0.0,0.0,0.0,0.0,0.0,0.0,0.0,0.0,0.0,0.0,0.0,-3.7648,0.0,0.0,0.0,0.0,0.0,0.0,0.0,-3.5504,-3.5504,-3.5504,-3.5504,-3.5504,-3.5504,-3.5504,-3.5549,0.0,0.0,0.0,0.0,0.0,0.0,0.0,0.0,0.0,0.0,0.0,0.0,0.0,0.0,0.0,0.0,0.0,-3.3636,-3.225,-3.0889,-3.0762,-2.9166,-2.5976,-2.5855,-2.4155,-2.1109,0.0,0.0,0.0,0.0,0.0,0.0,-1.2153,-1.0721,-1.0721,-1.0721,-1.0721,-1.0727,-1.0652,-0.8478,-0.4829,0.0,0.0,0.0,0.0,0.0,0.0,0.0,0.0,0.0,0.0,0.0,-3.5622,-3.5622,-3.5622,0.0,0.0,0.0,0.0,0.0,0.0,0.0,0.0,0.0,0.0,0.0,-3.5622,-3.5622,-3.5622,-3.5622,-3.5622,-3.5622,-3.5622,-3.5622,-3.5622,-3.5622,-3.5622,-3.5622,-3.5622,-3.5622,-3.5622,-3.5622,-3.5622,0.0,0.0,0.0,0.0,-3.8531,-3.9326,0.0,0.0,0.0,0.0,0.0,0.0,0.0,0.0,-3.6228,-3.5782,-3.5958,0.0,-3.6022,-3.5782,-3.5782,-3.5733,0.0,0.0,0.0,0.0,0.0,-3.5504,-3.5504,-3.5504,-3.5504,-3.5504,-3.5923,0.0,0.0,0.0,0.0,0.0,0.0,0.0,0.0,0.0,0.0,0.0,0.0,0.0,0.0,0.0,0.0,0.0,-3.1698,-3.0527,-3.0889,-2.9648,-2.7931,-2.5976,-2.4778,-2.3076,0.0,0.0,0.0,0.0,0.0,0.0,0.0,-1.2153,-1.0721,-1.0721,-1.0721,-1.0721,-1.0727,-1.0652,-0.8478,-0.4829,0.0,0.0,0.0,0.0,0.0,0.0,0.0,0.0,0.0,0.0,0.0,0.0,0.0,0.0,0.0,0.0,0.0,0.0,0.0,0.0,0.0,0.0,0.0,0.0,-3.5622,-3.5622,-3.5622,-3.5622,-3.5622,-3.5622,-3.5622,-3.5622,-3.5622,-3.5622,-3.5622,-3.5622,-3.5622,-3.5622,-3.5622,-3.5622,-3.5622,0.0,0.0,0.0,0.0,0.0,-3.8734,-3.9462,0.0,-4.007,-3.9558,-3.8908,0.0,0.0,0.0,0.0,-3.6054,-3.5504,-3.5504,-3.5504,-3.5504,-3.5504,-3.5504,-3.5504,-3.5504,0.0,0.0,0.0,0.0,-3.5504,-3.5504,-3.5133,-3.4986,-3.5424,0.0,0.0,0.0,0.0,0.0,0.0,0.0,0.0,0.0,0.0,0.0,0.0,0.0,0.0,0.0,0.0,0.0,0.0,0.0,-2.9893,-3.0566,-2.8997,-2.7397,-2.5976,-2.4417,-2.2709,0.0,0.0,0.0,0.0,0.0,0.0,-1.4488,-1.1762,-1.0721,-1.0721,-1.0721,-1.0727,-1.0741,-1.0655,-0.9442,-0.7134,0.0,0.0,0.0,0.0,0.0,0.0,0.0,0.0,0.0,0.0,0.0,0.0,0.0,0.0,0.0,0.0,0.0,0.0,0.0,0.0,0.0,0.0,0.0,-3.5622,-3.5622,-3.5622,-3.5622,-3.5622,-3.5622,-3.5622,-3.5622,-3.5622,-3.5622,-3.5622,-3.5622,-3.5622,-3.5622,-3.5622,-3.5622,-3.5622,-3.5622,0.0,0.0,0.0,0.0,0.0,0.0,0.0,0.0,-4.007,-3.9558,-3.8854,-3.8745,0.0,0.0,0.0,0.0,0.0,-3.5504,-3.5504,-3.5504,-3.5504,-3.5504,-3.5504,-3.5504,0.0,0.0,0.0,0.0,0.0,0.0,0.0,0.0,0.0,0.0,0.0,0.0,0.0,0.0,0.0,0.0,0.0,0.0,0.0,0.0,0.0,0.0,0.0,0.0,0.0,0.0,0.0,0.0,0.0,-2.964,-2.8126,-2.6924,-2.5894,-2.4024,-2.2466,-2.1109,0.0,0.0,0.0,0.0,0.0,-1.3193,-1.1372,-1.0721,-1.0721,-1.0721,-1.0734,-1.0622,-1.0108,-1.027,-0.9609,0.0,0.0,0.0,0.0,0.0,0.0,0.0,0.0,0.0,0.0,0.0,0.0,0.0,0.0,0.0,0.0,0.0,0.0,0.0,0.0,0.0,0.0,-3.5622,-3.5622,-3.5622,-3.5622,-3.5622,-3.5622,-3.5622,-3.5622,-3.5622,-3.5622,-3.5622,-3.5622,-3.5622,-3.5622,-3.5622,-3.5622,-3.5622,-3.5622,-3.5622,0.0,0.0,0.0,0.0,0.0,0.0,0.0,0.0,-4.007,-3.9558,-3.8799,-3.8149,0.0,0.0,0.0,0.0,0.0,-3.5504,-3.5504,-3.5504,-3.5504,-3.5504,-3.5504,-3.5504,-3.5504,0.0,0.0,0.0,0.0,0.0,0.0,0.0,0.0,0.0,0.0,0.0,0.0,0.0,0.0,0.0,0.0,0.0,0.0,0.0,0.0,0.0,0.0,0.0,0.0,0.0,0.0,0.0,0.0,0.0,-2.6196,-2.5583,-2.5403,-2.2689,-2.1355,-2.1109,-2.1109,0.0,0.0,0.0,0.0,-1.3193,-1.1372,-1.0721,-1.0721,-1.0721,-1.0734,-1.0349,-0.7381,-0.8081,-0.9609,0.0,0.0,0.0,0.0,0.0,0.0,0.0,0.0,0.0,0.0,0.0,0.0,0.0,0.0,0.0,0.0,0.0,0.0,0.0,0.0,0.0,-3.5622,-3.5622,-3.5622,-3.5622,-3.5622,-3.5622,-3.5622,-3.5622,-3.5622,-3.5622,-3.5622,-3.5622,-3.5622,-3.5622,-3.5622,-3.5622,-3.5622,-3.5622,-3.5622,0.0,0.0,0.0,0.0,0.0,0.0,0.0,0.0,0.0,0.0,-3.8924,-3.8189,-3.7381,0.0,0.0,0.0,0.0,0.0,-3.5504,-3.5504,-3.5504,-3.5504,-3.5504,-3.5504,-3.5504,-3.5504,0.0,0.0,0.0,0.0,0.0,0.0,0.0,0.0,0.0,0.0,0.0,0.0,0.0,0.0,0.0,0.0,0.0,0.0,0.0,0.0,0.0,0.0,0.0,0.0,0.0,0.0,0.0,0.0,0.0,-2.5286,-2.459,-2.4139,-2.1899,-2.0955,-2.1109,-2.1109,-1.9674,0.0,0.0,-1.4362,-1.1894,-1.0979,-1.0721,-1.0721,-1.0721,-1.0744,-0.9968,-0.4565,-0.3496,-0.4444,0.0,0.0,0.0,0.0,0.0,0.0,0.0,0.0,0.0,0.0,0.0,0.0,0.0,0.0,0.0,0.0,0.0,0.0,0.0,0.0,-3.5622,-3.5622,-3.5622,-3.5622,-3.5622,-3.5622,-3.5622,-3.5622,-3.5622,-3.5622,-3.5622,-3.5622,-3.5622,-3.5622,-3.5622,-3.5515,-3.5362,-3.5515,-3.5515,-3.5362,0.0,0.0,0.0,0.0,0.0,0.0,0.0,0.0,0.0,0.0,0.0,0.0,0.0,0.0,0.0,-3.5504,-3.5504,-3.5504,-3.5504,-3.5504,-3.5504,-3.5504,0.0,-3.5504,-3.5504,-3.5504,0.0,0.0,0.0,0.0,0.0,0.0,0.0,0.0,0.0,0.0,0.0,0.0,0.0,0.0,0.0,0.0,0.0,0.0,0.0,0.0,0.0,0.0,0.0,0.0,0.0,0.0,0.0,0.0,0.0,-2.4777,-2.3805,-2.2961,-2.1361,-2.0828,-2.1109,-2.1109,-1.9158,-1.5913,-1.5913,-1.397,-1.0721,-1.0721,-1.0721,-1.0721,-1.0721,-1.0206,-0.8753,-0.2286,-0.0,-0.0,0.0,0.0,0.0,0.0,0.0,0.0,0.0,0.0,0.0,0.0,0.0,0.0,0.0,0.0,0.0,0.0,0.0,0.0,0.0,0.0,-3.5622,-3.5622,-3.5622,-3.5622,-3.5622,-3.5622,-3.5622,-3.5622,-3.5622,-3.5622,-3.5622,-3.5622,-3.5622,-3.5622,-3.5622,-3.5253,-3.4736,-3.5362,-3.5253,-3.4736,-3.5362,0.0,0.0,0.0,0.0,0.0,0.0,0.0,0.0,0.0,0.0,0.0,0.0,0.0,-3.5504,-3.5504,-3.5504,-3.5504,-3.5504,-3.5504,-3.5504,-3.5504,-3.5504,0.0,-3.5504,-3.5504,0.0,-3.5504,0.0,0.0,0.0,0.0,0.0,0.0,0.0,0.0,0.0,0.0,0.0,0.0,0.0,0.0,0.0,0.0,0.0,0.0,0.0,0.0,0.0,0.0,0.0,0.0,0.0,0.0,0.0,0.0,-2.3438,-2.252,-2.1264,-2.0828,-2.1109,-2.1109,-1.9158,-1.5913,-1.5913,-1.397,-1.0721,-1.0721,-1.0721,-1.0721,-1.0721,-0.8709,-0.5366,-0.1479,-0.0,-0.0,0.0,0.0,0.0,0.0,0.0,0.0,0.0,0.0,0.0,0.0,0.0,0.0,0.0,0.0,0.0,0.0,0.0,0.0,0.0,0.0,-3.5622,-3.5622,-3.5622,-3.5622,-3.5622,-3.5622,-3.5622,-3.5622,-3.5191,-3.4988,-3.4988,-3.4988,-3.5207,-3.5577,-3.5144,-3.4847,-3.4576,-3.4447,-3.4447,-3.4576,-3.4447,-3.53,0.0,0.0,0.0,0.0,0.0,0.0,0.0,0.0,-3.7068,-3.6492,0.0,-3.5718,-3.5504,-3.5504,-3.5504,-3.5504,-3.5504,-3.5504,-3.5504,-3.5504,-3.5504,0.0,0.0,-3.5504,-3.5504,-3.5504,-3.4691,0.0,0.0,0.0,0.0,0.0,0.0,0.0,0.0,0.0,0.0,0.0,0.0,0.0,0.0,0.0,0.0,0.0,0.0,0.0,0.0,0.0,0.0,0.0,0.0,0.0,0.0,0.0,-2.2839,-2.0788,-2.0497,-2.0555,-2.0842,-1.9859,-1.8122,-1.5789,-1.4749,-1.2931,-1.0721,-1.0721,-1.0721,-1.0721,-1.0734,-0.8584,-0.4961,-0.1342,-0.0,-0.0,0.0,0.0,0.0,0.0,0.0,0.0,0.0,0.0,0.0,0.0,0.0,0.0,0.0,0.0,0.0,0.0,0.0,0.0,0.0,-3.5622,-3.5622,-3.5622,-3.5622,-3.5622,-3.5622,-3.5622,-3.5515,-3.5299,-3.4592,-3.4284,-3.4284,-3.4284,-3.4544,-3.4958,-3.4496,-3.4186,-3.3987,-3.3937,-3.3937,-3.4003,-3.4145,-3.5261,0.0,0.0,0.0,0.0,0.0,0.0,0.0,0.0,-3.6446,0.0,0.0,0.0,0.0,-3.5504,-3.5504,-3.5504,-3.5504,-3.5504,-3.5504,-3.5504,0.0,0.0,-3.5504,-3.5504,-3.5424,-3.5067,-3.4636,0.0,0.0,0.0,0.0,0.0,0.0,0.0,0.0,0.0,0.0,0.0,0.0,0.0,0.0,0.0,0.0,0.0,0.0,0.0,0.0,0.0,0.0,0.0,0.0,0.0,0.0,0.0,-2.2609,-2.0344,-2.0186,-2.0301,-2.0681,-1.9594,-1.8047,-1.5784,-1.4619,-1.2804,-1.0721,-1.0721,-1.0721,-1.0724,-1.0758,-0.9279,-0.6445,-0.1745,-0.0,-0.0,0.0,0.0,0.0,0.0,0.0,0.0,0.0,0.0,0.0,0.0,0.0,0.0,0.0,0.0,0.0,0.0,0.0,0.0,-3.5622,-3.5622,-3.5622,-3.5622,-3.5622,-3.5622,-3.5622,-3.5577,-3.5253,-3.4576,-3.3937,-3.3582,-3.3582,-3.3582,-3.3582,-3.3582,-3.3582,-3.3235,-3.2695,-3.4037,-3.3786,-3.2757,-3.4797,-3.6074,-3.6884,0.0,0.0,0.0,0.0,0.0,0.0,0.0,-3.6117,-3.5504,0.0,0.0,0.0,-3.5504,-3.5504,-3.5504,-3.5504,-3.5504,-3.5504,0.0,0.0,0.0,-3.5439,-3.5504,-3.5213,-3.4177,0.0,0.0,0.0,0.0,0.0,0.0,0.0,0.0,0.0,0.0,0.0,0.0,0.0,0.0,0.0,0.0,0.0,0.0,0.0,0.0,0.0,0.0,0.0,0.0,0.0,0.0,0.0,0.0,-2.3039,-2.1586,-2.0337,-2.01,-2.0668,-2.0675,-1.8908,-1.5913,-1.5913,-1.397,-1.0721,-1.0721,-1.0721,-1.0724,-1.0648,-1.0672,-0.985,-0.269,-0.0,-0.0,0.0,0.0,0.0,0.0,0.0,0.0,0.0,0.0,0.0,0.0,0.0,0.0,0.0,0.0,0.0,0.0,0.0,0.0,-3.5622,-3.5622,-3.5622,-3.5622,-3.5622,-3.5622,-3.5622,-3.4657,-3.4103,-3.3887,-3.3251,-3.2895,-3.2895,-3.2895,-3.3145,-3.3582,-3.3093,-3.2788,-3.2586,-3.2461,-3.2724,-3.3228,-3.3388,-3.4431,-3.5938,0.0,0.0,0.0,0.0,0.0,0.0,0.0,0.0,0.0,0.0,0.0,0.0,-3.5504,-3.5504,-3.5504,-3.5504,-3.4986,0.0,0.0,0.0,0.0,0.0,-3.4491,0.0,0.0,0.0,0.0,0.0,0.0,0.0,0.0,0.0,0.0,0.0,0.0,0.0,0.0,0.0,0.0,0.0,0.0,0.0,0.0,0.0,0.0,0.0,0.0,0.0,0.0,0.0,0.0,0.0,0.0,0.0,-2.004,-1.9679,-1.9693,-2.0074,-1.9224,-1.7656,-1.5568,-1.4558,-1.2804,-1.0721,-1.0721,-1.0721,-1.0721,-1.0738,-0.9131,-0.6715,-0.4562,-0.2149,-0.0,0.0,0.0,0.0,0.0,0.0,0.0,0.0,0.0,0.0,0.0,0.0,0.0,0.0,0.0,0.0,0.0,0.0,0.0,0.0,0.0,-3.547,-3.5207,-3.5207,-3.5052,-3.48,-3.3751,-3.3182,-3.3182,-3.2516,-3.2176,-3.2176,-3.2176,-3.2367,-3.2772,-3.2312,-3.2176,-3.216,-3.2007,-3.2372,-3.3096,-3.3269,-3.4193,-3.5579,0.0,0.0,0.0,0.0,0.0,0.0,0.0,0.0,0.0,0.0,0.0,0.0,-3.4986,-3.4905,-3.4839,-3.4476,-3.3905,0.0,0.0,0.0,0.0,0.0,0.0,0.0,0.0,0.0,0.0,0.0,0.0,0.0,0.0,0.0,0.0,0.0,0.0,0.0,0.0,0.0,0.0,0.0,0.0,0.0,0.0,0.0,0.0,0.0,0.0,0.0,0.0,0.0,0.0,0.0,0.0,0.0,0.0,-1.9366,-1.9459,-1.9646,-1.9,-1.7558,-1.5346,-1.3244,-1.1633,-1.0721,-1.0721,-1.0721,-1.0721,-1.0731,-0.9389,-0.7109,-0.4289,-0.1878,-0.0,0.0,0.0,0.0,0.0,0.0,0.0,0.0,0.0,0.0,0.0,-3.5622,0.0,0.0,0.0,0.0,0.0,0.0,0.0,0.0,0.0,-3.5316,-3.4624,-3.4528,-3.4186,-3.3531,-3.2895,-3.2586,-3.2492,-3.1853,-3.1482,-3.1482,-3.1482,-3.1482,-3.1482,-3.1482,-3.1482,-3.1539,-3.2293,-3.2593,-3.2706,-3.4007,-3.4963,-3.5643,-3.626,0.0,0.0,0.0,0.0,0.0,0.0,0.0,0.0,0.0,-3.5504,-3.5294,-3.4394,-3.4095,-3.3808,-3.2961,0.0,0.0,0.0,0.0,0.0,0.0,0.0,0.0,0.0,0.0,0.0,0.0,0.0,0.0,0.0,0.0,0.0,0.0,0.0,0.0,0.0,0.0,0.0,0.0,0.0,0.0,0.0,0.0,0.0,0.0,0.0,0.0,0.0,0.0,0.0,0.0,0.0,0.0,0.0,-1.9366,-1.9366,-1.9379,-1.9666,-1.8258,-1.5346,-1.2065,-1.0707,-1.0721,-1.0721,-1.0721,-1.0721,-1.0741,-1.0751,-0.994,-0.335,-0.0537,-0.0,0.0,0.0,0.0,0.0,0.0,0.0,0.0,0.0,0.0,0.0,0.0,0.0,0.0,0.0,0.0,0.0,0.0,0.0,0.0,0.0,-3.5316,-3.4624,-3.4087,-3.3495,-3.2841,-3.2695,-3.2327,-3.1754,-3.1582,-3.1482,-3.1482,-3.1482,-3.1482,-3.1482,-3.1482,-3.1482,-3.1569,-3.2254,-3.2796,-3.335,-3.4164,-3.4904,-3.5522,-3.5672,-3.5718,0.0,0.0,0.0,0.0,0.0,0.0,0.0,-3.5504,-3.5504,-3.5439,-3.5213,-3.461,-3.3959,0.0,-3.2593,0.0,0.0,0.0,0.0,0.0,0.0,0.0,0.0,0.0,0.0,0.0,0.0,0.0,0.0,0.0,0.0,0.0,0.0,0.0,0.0,0.0,0.0,0.0,0.0,0.0,0.0,0.0,0.0,0.0,0.0,0.0,0.0,0.0,0.0,0.0,-2.3822,-2.2266,0.0,-1.9366,-1.9366,-1.9379,-1.9666,-1.8258,-1.5336,-1.1938,-1.0609,-1.0721,-1.0721,-1.0721,-1.0721,-1.0724,-1.0738,-1.0488,-0.9018,-0.4833,-0.0,0.0,0.0,0.0,0.0,0.0,0.0,0.0,0.0,0.0,0.0,0.0,0.0,0.0,0.0,0.0,0.0,0.0,0.0,0.0,0.0,0.0,-3.3684,-3.2971,-3.2407,-3.2064,-3.2064,-3.191,-3.1482,-3.1482,-3.1482,-3.1482,-3.1482,-3.1482,-3.1482,-3.1482,-3.1704,-3.2018,-3.2362,-3.308,-3.3993,-3.4337,-3.4891,-3.5504,-3.5504,-3.5504,-3.5504,-3.5504,0.0,0.0,0.0,0.0,0.0,0.0,0.0,-3.5439,-3.4905,-3.4394,-3.3808,0.0,0.0,0.0,0.0,0.0,0.0,0.0,0.0,0.0,0.0,0.0,0.0,0.0,0.0,0.0,0.0,0.0,0.0,0.0,0.0,0.0,0.0,0.0,0.0,0.0,0.0,0.0,0.0,0.0,0.0,0.0,0.0,0.0,0.0,0.0,0.0,-2.3822,-2.3822,-2.2266,-1.9366,-1.9366,-1.9366,-1.9372,-1.8819,-1.726,-1.5022,-1.2619,-1.1235,-1.0612,-1.0612,-1.0653,-1.0721,-1.0721,-1.0727,-1.0744,-1.0655,-0.7261,-0.2279,0.0,0.0,0.0,0.0,0.0,0.0,0.0,0.0,0.0,0.0,0.0,0.0,0.0,0.0,0.0,0.0,0.0,0.0,0.0,0.0,0.0,-3.2641,-3.1894,-3.1482,-3.1482,-3.1482,-3.1482,-3.1482,-3.1482,-3.1482,-3.1482,-3.1482,-3.1482,-3.1482,-3.1601,-3.2003,-3.2527,-3.2766,-3.3484,-3.4487,-3.4607,-3.4996,-3.5504,-3.5504,-3.5504,-3.5504,-3.5504,-3.5504,-3.5504,-3.5504,0.0,0.0,0.0,0.0,-3.5359,-3.4476,-3.4163,-3.3671,0.0,0.0,0.0,0.0,0.0,0.0,0.0,0.0,0.0,0.0,0.0,0.0,0.0,0.0,0.0,0.0,0.0,0.0,0.0,0.0,0.0,0.0,0.0,0.0,0.0,0.0,0.0,0.0,0.0,0.0,0.0,0.0,0.0,0.0,0.0,-2.6834,-2.3822,-2.3822,-2.2266,-1.9366,-1.9366,-1.9366,-1.9379,-1.8164,-1.6583,-1.4684,-1.3265,-1.1826,-1.0456,-1.048,-1.0565,-1.0683,-1.0711,-1.0721,-1.0727,-1.0645,-0.8475,-0.4829,0.0,0.0,0.0,0.0,0.0,0.0,0.0,0.0,0.0,0.0,0.0,0.0,0.0,0.0,0.0,0.0,0.0,0.0,-3.556,0.0,0.0,-3.2641,-3.1894,-3.1482,-3.1482,-3.1482,-3.1482,-3.1482,-3.1482,-3.1482,-3.1482,-3.1482,-3.1482,-3.1497,-3.2138,-3.2437,-3.2587,-3.3724,-3.4322,-3.4532,-3.513,-3.5429,-3.5504,-3.5504,-3.5504,-3.5504,-3.5504,-3.5504,-3.5504,-3.5504,-3.5504,0.0,0.0,0.0,0.0,-3.5359,-3.4691,-3.3959,0.0,0.0,0.0,0.0,0.0,0.0,0.0,0.0,0.0,0.0,0.0,0.0,0.0,0.0,0.0,0.0,0.0,0.0,0.0,0.0,0.0,0.0,0.0,0.0,0.0,0.0,0.0,0.0,0.0,0.0,0.0,0.0,0.0,-2.8291,-2.8291,0.0,-2.3822,-2.3822,-2.2266,-1.9366,-1.9366,-1.9366,-1.9372,-1.9166,-1.7505,-1.4674,-1.3128,-1.1654,-1.0317,-1.0439,-1.0504,-1.0534,-1.067,-1.0721,-1.0724,-1.0751,-0.8459,-0.4827,0.0,0.0,0.0,0.0,0.0,0.0,0.0,0.0,0.0,0.0,0.0,0.0,0.0,0.0,0.0,-3.4447,-3.4186,-3.3987,-3.3903,-3.3355,-3.2734,-3.2007,-3.1682,-3.1482,-3.1482,-3.1482,-3.1482,-3.1482,-3.1482,-3.1482,-3.1482,-3.1855,-3.2078,-3.2093,-3.2377,-3.2916,-3.3649,-3.4233,-3.4696,-3.5085,-3.5385,-3.5504,-3.5504,-3.5504,-3.5504,-3.5504,-3.5504,-3.5504,-3.5504,-3.5504,-3.5504,-3.5504,-3.5504,0.0,0.0,0.0,-3.4327,0.0,-3.2749,0.0,0.0,0.0,0.0,0.0,0.0,0.0,0.0,0.0,0.0,0.0,0.0,0.0,0.0,0.0,0.0,0.0,0.0,0.0,0.0,0.0,0.0,0.0,0.0,0.0,0.0,0.0,0.0,0.0,0.0,-2.8291,-2.8291,-2.8291,-2.8291,0.0,-2.3822,-2.3822,-2.2266,-1.9366,-1.9366,-1.9366,-1.9366,-1.8519,-1.6796,-1.462,-1.3903,-1.2327,-1.0154,-1.0219,-1.0341,-1.05,-1.0565,-1.0643,-1.0724,-1.0744,-0.9682,-0.7529,0.0,0.0,0.0,0.0,0.0,0.0,0.0,0.0,0.0,0.0,0.0,0.0,0.0,0.0,0.0,0.0,-3.3427,-3.3145,-3.2641,-3.2586,-3.2272,-3.1524,-3.1482,-3.1482,-3.1482,-3.1482,-3.1482,-3.1482,-3.1482,-3.1556,-3.1794,-3.2287,-3.2691,-3.3021,-3.3021,-3.3559,-3.4487,-3.4666,-3.504,-3.5504,-3.5504,-3.5504,-3.5504,-3.5504,-3.5504,-3.5504,-3.5504,-3.5504,-3.5504,-3.5504,-3.5504,-3.5504,-3.5504,-3.5344,0.0,0.0,0.0,0.0,0.0,0.0,0.0,0.0,0.0,0.0,0.0,0.0,0.0,0.0,0.0,0.0,0.0,0.0,0.0,0.0,0.0,0.0,0.0,0.0,0.0,0.0,0.0,0.0,0.0,0.0,0.0,0.0,0.0,0.0,0.0,-2.8232,-2.8291,-2.8291,-2.796,-2.6499,-2.3822,-2.3047,-2.1601,-1.9366,-1.9366,-1.9366,-1.9366,-1.7689,-1.6138,-1.4604,-1.4128,-1.2414,-0.9995,-1.0032,-1.0181,-1.0388,-1.0463,-1.0561,-1.067,-1.0724,-1.0638,-0.9847,0.0,0.0,0.0,0.0,0.0,0.0,0.0,0.0,0.0,0.0,0.0,0.0,-3.3735,-3.3039,-3.2895,-3.3531,-3.3039,-3.2641,-3.2586,-3.2586,-3.2272,-3.1524,-3.1482,0.0,-3.1482,-3.1482,-3.1482,-3.1482,-3.1482,-3.1854,-3.2467,-3.2497,-3.3185,-3.4382,-3.4382,-3.4412,-3.4517,0.0,0.0,0.0,-3.5504,-3.5504,-3.5504,-3.5504,-3.5504,-3.5504,-3.5504,-3.5504,-3.5504,-3.5504,-3.5504,-3.5504,-3.5504,-3.4839,-3.4095,0.0,0.0,0.0,0.0,0.0,0.0,0.0,0.0,0.0,0.0,0.0,0.0,0.0,0.0,0.0,0.0,0.0,0.0,0.0,0.0,0.0,0.0,0.0,0.0,0.0,0.0,0.0,0.0,0.0,0.0,0.0,0.0,0.0,-2.7695,-2.8076,-2.8291,-2.8291,-2.6943,-2.5489,-2.3822,-2.1045,-1.9597,-1.9366,-1.9366,-1.9366,-1.9366,-1.7689,-1.6138,-1.4485,-1.2928,-1.1382,-0.9842,-0.9988,-1.0059,-1.01,-1.0382,-1.0497,-1.0521,-1.0666,-1.0758,-1.012,0.0,0.0,0.0,0.0,0.0,0.0,0.0,0.0,0.0,0.0,0.0,0.0,0.0,-3.2942,-3.2813,-3.3514,-3.3343,-3.3182,-3.3182,-3.3182,-3.3064,-3.2796,-3.2796,-3.2796,-3.2796,-3.2796,-3.2796,0.0,-3.2796,-3.2916,-3.3155,-3.3574,-3.4023,-3.4472,-3.4472,-3.4726,-3.516,-3.54,0.0,0.0,0.0,0.0,-3.5504,-3.5504,0.0,0.0,0.0,0.0,0.0,-3.5504,-3.5504,-3.5359,-3.4758,-3.4312,-3.3739,-3.2522,-3.196,0.0,0.0,0.0,0.0,0.0,0.0,0.0,0.0,0.0,0.0,0.0,0.0,0.0,0.0,0.0,0.0,0.0,0.0,0.0,0.0,0.0,0.0,0.0,0.0,0.0,0.0,0.0,0.0,0.0,0.0,0.0,-2.7246,-2.7656,-2.7439,-2.6435,-2.6245,-2.4931,-2.2363,-2.0371,-1.9366,-1.9366,-1.9366,-1.9366,-1.9366,-1.6621,-1.5192,-1.4485,-1.1856,-1.0301,-0.9825,-0.988,-0.9961,-1.0059,-1.0164,-1.0324,-1.05,-1.0555,-1.0673,-1.0257,0.0,0.0,0.0,0.0,0.0,0.0,0.0,0.0,0.0,-3.584,0.0,0.0,0.0,0.0,-3.3021,-3.3455,-3.3499,-3.3499,-3.3499,-3.3499,-3.3499,-3.3499,-3.3499,-3.3499,-3.3499,-3.3275,-3.3275,0.0,0.0,0.0,0.0,-3.4262,-3.4607,-3.4816,-3.4816,-3.507,0.0,0.0,0.0,-3.5504,0.0,0.0,-3.5504,0.0,0.0,0.0,0.0,0.0,0.0,0.0,0.0,-3.5344,-3.4312,-3.3602,-3.2749,-3.1193,-3.0771,0.0,-3.0011,0.0,0.0,0.0,0.0,0.0,0.0,0.0,0.0,0.0,0.0,0.0,0.0,0.0,0.0,0.0,0.0,0.0,0.0,0.0,0.0,0.0,0.0,0.0,0.0,0.0,0.0,0.0,0.0,0.0,-2.6807,-2.6775,-2.5977,-2.4028,-2.4395,-2.3367,-2.0923,-1.9924,-1.9366,-1.9366,-1.9366,-1.9366,-1.9249,-1.6031,-1.4604,-1.4361,-1.1257,-0.9822,-0.9822,-0.9822,-0.988,-0.9978,-1.0029,-1.0202,-1.0426,-1.0473,-1.0626,-1.0257,0.0,0.0,0.0,0.0,0.0,0.0,0.0,0.0,-3.7386,-3.5959,0.0,0.0,0.0,0.0,0.0,-3.3559,-3.3559,-3.3559,-3.3559,-3.3559,-3.3559,-3.3559,-3.3559,-3.3559,-3.3559,-3.2931,-3.2916,0.0,0.0,0.0,0.0,0.0,-3.4861,-3.5504,-3.5504,-3.5504,-3.5504,0.0,-3.5504,-3.5504,0.0,-3.5504,-3.5504,0.0,0.0,0.0,-3.5504,-3.5504,0.0,0.0,0.0,0.0,0.0,0.0,-3.097,-3.0075,-2.9792,0.0,0.0,0.0,0.0,0.0,0.0,0.0,0.0,0.0,0.0,0.0,0.0,0.0,0.0,0.0,0.0,0.0,0.0,0.0,0.0,0.0,0.0,0.0,0.0,0.0,0.0,0.0,0.0,0.0,0.0,-2.6367,-2.6367,-2.5386,-2.3751,-2.1307,-2.1406,-2.0802,-1.9366,-1.9366,-1.9366,-1.9366,-1.9366,-1.9366,-1.9249,-1.6031,-1.4604,-1.4361,-1.114,-0.9822,-0.9822,-0.9822,-0.9822,-0.9836,-0.9985,-1.0137,-1.029,-1.0432,-1.0619,-1.0251,0.0,0.0,0.0,0.0,0.0,0.0,0.0,0.0,-3.8371,0.0,0.0,0.0,-3.5045,-3.4984,-3.4951,-3.4951,-3.4951,-3.4951,-3.4951,-3.4951,-3.4951,-3.4951,-3.4951,-3.4951,-3.4951,-3.4771,-3.4771,0.0,0.0,0.0,0.0,0.0,0.0,0.0,-3.5504,-3.5504,-3.5504,-3.5504,0.0,0.0,-3.5504,-3.5504,0.0,0.0,0.0,0.0,0.0,-3.5504,0.0,0.0,-3.5504,-3.5213,0.0,0.0,-3.0139,0.0,0.0,-2.9792,-2.9792,0.0,0.0,0.0,0.0,0.0,0.0,0.0,0.0,0.0,0.0,0.0,0.0,0.0,0.0,0.0,0.0,0.0,0.0,0.0,0.0,0.0,0.0,0.0,0.0,0.0,0.0,0.0,0.0,-2.447,-2.447,-2.2568,-2.1363,-2.1196,-2.0202,-1.959,-1.9366,-1.9366,-1.9366,-1.9366,-1.9366,-1.8765,-1.7566,-1.5553,-1.4004,-1.2693,-1.066,-0.9822,-0.9822,-0.9822,-0.9822,-0.9825,-0.9869,-0.9978,-1.0131,-1.0283,-1.047,-1.0251,0.0,0.0,0.0,0.0,0.0,0.0,0.0,-3.9715,-3.9211,0.0,0.0,0.0,-3.5661,-3.5555,-3.5504,-3.5504,-3.5504,-3.5504,-3.5504,-3.5504,-3.5504,-3.5504,-3.5504,-3.5504,-3.5504,-3.522,-3.522,0.0,0.0,0.0,0.0,0.0,0.0,0.0,0.0,0.0,0.0,0.0,0.0,0.0,-3.4624,0.0,0.0,-3.4409,-3.4274,0.0,0.0,0.0,-3.492,-3.5359,-3.4986,0.0,0.0,0.0,0.0,0.0,0.0,-2.9792,-2.9792,-2.9792,0.0,0.0,0.0,0.0,0.0,-2.7959,0.0,0.0,0.0,0.0,0.0,0.0,0.0,0.0,0.0,0.0,0.0,0.0,0.0,0.0,0.0,0.0,0.0,0.0,0.0,0.0,-2.3583,-2.2567,-2.2064,-2.0771,-2.0045,-2.0022,-1.9296,-1.9065,-1.9366,-1.9366,-1.9366,-1.9366,-1.8765,-1.7923,-1.6968,-1.4594,-1.3053,-1.2093,-1.0543,-0.9822,-0.9822,-0.9822,-0.9822,-0.9822,-0.9822,-0.9914,-1.007,-1.0222,-1.0409,-1.0195,0.0,0.0,0.0,0.0,0.0,0.0,0.0,-4.007,-3.9833,0.0,-3.8302,-3.7235,-3.5683,-3.5504,-3.5504,-3.5504,-3.5504,-3.5504,-3.5504,-3.5504,-3.5504,-3.5504,-3.5504,-3.5504,-3.5504,-3.4906,-3.4891,0.0,0.0,0.0,0.0,0.0,0.0,0.0,0.0,0.0,0.0,0.0,0.0,-3.5001,-3.3325,-3.3171,0.0,0.0,-3.2593,0.0,-3.3518,-3.3808,-3.4027,-3.4986,-3.4056,0.0,0.0,0.0,0.0,0.0,-2.9792,-2.9792,-2.9792,-2.9792,-2.9792,0.0,0.0,0.0,-2.7302,-2.6894,0.0,0.0,0.0,0.0,0.0,0.0,0.0,0.0,0.0,0.0,0.0,0.0,0.0,0.0,0.0,0.0,0.0,0.0,0.0,-2.3484,-2.2265,-2.0837,-1.942,-1.9702,-1.9384,-1.843,-1.8724,-1.9018,-1.9319,-1.9352,-1.9366,-1.9127,-1.7683,-1.6844,-1.6374,-1.3522,-1.2093,-1.1856,-1.0418,-0.9822,-0.9822,-0.9822,-0.9822,-0.9822,-0.9822,-0.9903,-1.0042,-1.0202,-1.0385,-1.0172,-4.007,0.0,0.0,0.0,0.0,0.0,0.0,-4.007,-4.002,-3.9901,-3.8652,-3.7235,-3.5683,-3.5504,-3.5504,-3.5504,-3.5504,-3.5504,-3.5504,-3.5504,-3.5504,-3.5504,-3.5504,-3.5504,-3.5504,-3.537,-3.537,0.0,0.0,0.0,0.0,0.0,0.0,0.0,0.0,0.0,0.0,0.0,0.0,-3.3115,-3.2749,0.0,-3.3876,-3.2961,-3.2593,-3.2593,-3.282,-3.289,-3.3031,0.0,-3.3031,-3.1609,0.0,0.0,0.0,0.0,0.0,0.0,0.0,0.0,0.0,0.0,0.0,0.0,-2.9287,-2.9131,0.0,0.0,0.0,0.0,0.0,0.0,0.0,0.0,0.0,0.0,0.0,0.0,0.0,0.0,0.0,0.0,0.0,0.0,0.0,-2.2156,-2.0845,-1.942,-1.8094,-1.8051,-1.8122,-1.8123,-1.8417,-1.8718,-1.9005,-1.9252,-1.8765,-1.7443,-1.7202,-1.566,-1.3168,-1.2453,-1.1499,-1.0301,-0.994,-0.9822,-0.9822,-0.9822,-0.9822,-0.9822,-0.9822,-0.9839,-0.9886,-1.0059,-1.0239,-1.0287,-4.007,0.0,0.0,0.0,0.0,0.0,0.0,0.0,-4.007,-4.007,-3.8778,-3.7235,-3.5683,-3.5504,-3.5504,-3.5504,-3.5504,-3.5504,-3.5504,-3.5504,-3.5504,-3.5504,-3.5504,-3.5504,-3.5504,-3.5504,-3.5504,0.0,0.0,0.0,0.0,0.0,0.0,0.0,0.0,0.0,0.0,0.0,-3.2033,-3.3171,-3.1769,0.0,-3.2536,-3.1549,-3.1206,-3.1267,-3.1756,-3.2177,-3.2664,-3.3171,-3.2393,0.0,0.0,-3.0908,-2.9792,0.0,-2.9792,-2.9792,0.0,0.0,0.0,-2.9792,0.0,0.0,0.0,-2.8937,-2.8609,0.0,0.0,0.0,0.0,0.0,0.0,0.0,0.0,0.0,0.0,0.0,0.0,0.0,0.0,0.0,0.0,0.0,-2.1553,-1.9811,-1.9013,-1.8297,-1.7687,-1.7582,-1.7722,-1.8036,-1.819,-1.8477,-1.8918,-1.8244,-1.767,-1.6968,-1.5419,-1.376,-1.2217,-1.1378,-1.0539,-0.9822,-0.9822,-0.9822,-0.9822,-0.9822,-0.9822,-0.9822,-0.9822,-0.9829,-0.9856,-1.0025,-1.0076,-1.0125,-4.007,0.0,0.0,0.0,0.0,0.0,0.0,0.0,-4.002,-3.9901,-3.8761,-3.7456,-3.6085,-3.5973,-3.5973,-3.5973,-3.5973,-3.5846,-3.5733,-3.5733,-3.5668,-3.5504,-3.5504,-3.5504,-3.5504,-3.5504,-3.5504,-3.5504,0.0,0.0,0.0,0.0,0.0,0.0,0.0,0.0,0.0,0.0,0.0,-3.3241,0.0,-3.0495,-3.1328,-3.0216,-2.9792,-2.9934,-3.062,-3.1402,-3.2119,-3.2249,0.0,-3.097,-3.1106,-3.0558,0.0,0.0,0.0,0.0,0.0,0.0,0.0,0.0,0.0,-2.9546,0.0,0.0,0.0,-2.6964,0.0,0.0,0.0,0.0,0.0,0.0,0.0,0.0,0.0,0.0,0.0,0.0,0.0,0.0,0.0,0.0,-2.0131,-1.7991,-1.7962,-1.7891,-1.7582,-1.7582,-1.7695,-1.7949,-1.8016,-1.8077,-1.8366,-1.7134,-1.6356,-1.6015,-1.3402,-1.2097,-1.1736,-1.0418,-0.9822,-0.9822,-0.9822,-0.9822,-0.9822,-0.9822,-0.9822,-0.9822,-0.9822,-0.9836,-0.9747,-0.924,-0.94,-0.9707,-4.007,-4.007,0.0,0.0,0.0,0.0,0.0,0.0,-3.9833,-3.9139,-3.8854,-3.8469,-3.7648,-3.7531,0.0,-3.7531,0.0,0.0,-3.6492,0.0,-3.6165,-3.5504,-3.5504,-3.5504,-3.5504,-3.5504,-3.5504,-3.5504,0.0,0.0,0.0,0.0,0.0,0.0,-3.2249,0.0,0.0,0.0,-3.0558,0.0,-3.0279,-3.0846,0.0,-3.0495,-2.9792,-2.9792,-2.9934,-2.9998,-3.0216,0.0,-3.0771,-3.0062,0.0,-3.0558,0.0,0.0,0.0,0.0,0.0,0.0,0.0,0.0,-2.9792,0.0,0.0,0.0,-2.8096,-2.7924,0.0,0.0,0.0,0.0,0.0,0.0,0.0,0.0,0.0,0.0,0.0,0.0,0.0,0.0,0.0,0.0,0.0,-1.8898,-1.9162,-1.8812,-1.7687,-1.7582,-1.7602,-1.7629,-1.7903,-1.7528,-1.647,-1.6462,-1.5189,-1.2689,-1.2333,-1.1499,-1.0061,-0.994,-0.9822,-0.9822,-0.9822,-0.9822,-0.9822,-0.9822,-0.9822,-0.9822,-0.9822,-0.9836,-0.9483,-0.6528,-0.7371,-0.8925,-4.007,-4.007,-4.007,0.0,0.0,0.0,0.0,0.0,-3.9262,-3.8962,-3.8525,-3.7962,0.0,0.0,0.0,0.0,0.0,-3.6964,0.0,0.0,-3.6275,-3.5504,0.0,0.0,-3.5504,-3.5504,-3.5504,-3.5504,-3.5504,0.0,0.0,0.0,0.0,0.0,-3.2393,0.0,-3.2321,0.0,0.0,0.0,0.0,0.0,0.0,-3.0279,-2.9792,-2.9792,-2.9792,-2.9792,-2.9869,0.0,-3.0139,0.0,0.0,0.0,0.0,0.0,0.0,0.0,0.0,0.0,0.0,0.0,0.0,0.0,0.0,0.0,-2.7209,0.0,0.0,0.0,0.0,0.0,0.0,0.0,0.0,0.0,0.0,0.0,0.0,0.0,0.0,0.0,0.0,0.0,0.0,0.0,0.0,-1.8722,-1.7674,-1.7582,-1.7582,-1.7582,-1.7709,-1.7143,-1.5969,-1.5197,-1.3943,-1.2052,-1.1211,-1.0422,-0.9822,-0.9822,-0.9822,-0.9822,-0.9822,-0.9822,-0.9822,-0.9822,-0.9822,-0.9822,-0.9836,-0.9859,-0.9384,-0.6151,-0.4602,-0.3671,-4.007,-4.007,0.0,0.0,0.0,0.0,0.0,0.0,0.0,0.0,0.0,0.0,-3.7642,-3.7526,0.0,0.0,-3.7526,-3.7467,0.0,0.0,-3.6569,0.0,0.0,0.0,0.0,-3.5504,-3.5504,-3.5504,-3.5213,0.0,0.0,0.0,0.0,0.0,0.0,-3.1756,-3.1536,0.0,0.0,-3.1106,-3.0216,-3.0216,-3.0758,-3.0075,-2.9792,-2.9792,-2.9792,-2.9792,-2.9792,-2.9792,-2.9792,0.0,-2.9792,0.0,0.0,0.0,0.0,0.0,-2.9792,0.0,0.0,0.0,0.0,0.0,0.0,0.0,0.0,0.0,0.0,0.0,0.0,0.0,0.0,0.0,0.0,0.0,0.0,0.0,0.0,0.0,0.0,0.0,0.0,0.0,0.0,0.0,-1.8937,0.0,-1.7553,-1.7542,-1.7364,-1.7041,-1.7035,-1.6196,-1.4691,-1.358,-1.2547,-1.1358,-1.0343,-0.9822,-0.9822,-0.9822,-0.9822,-0.9822,-0.9822,-0.9822,-0.9822,-0.9822,-0.9822,-0.9822,-0.9846,-0.9249,-0.8273,-0.678,-0.3598,-0.0,-4.007,-4.007,0.0,0.0,0.0,0.0,0.0,0.0,0.0,0.0,0.0,0.0,0.0,0.0,0.0,0.0,0.0,-3.9662,-3.8854,0.0,-3.7397,0.0,0.0,-3.5504,0.0,0.0,-3.5504,-3.5504,-3.4543,0.0,0.0,0.0,0.0,0.0,0.0,-3.0846,-3.2464,-3.0646,-3.0343,-3.1106,-3.0216,-2.9792,-2.9869,0.0,-2.9792,-2.9792,-2.9792,0.0,0.0,-2.9792,-2.9792,0.0,0.0,0.0,0.0,0.0,0.0,0.0,0.0,0.0,0.0,-2.8426,0.0,0.0,0.0,0.0,-2.4872,0.0,0.0,0.0,0.0,0.0,-2.3135,-2.3135,0.0,0.0,0.0,0.0,0.0,0.0,0.0,0.0,0.0,0.0,0.0,0.0,-2.0516,0.0,-1.736,-1.7428,-1.6935,-1.5524,-1.5417,-1.4234,-1.1479,-1.1558,-1.0949,-0.9731,-0.9754,-0.9822,-0.9822,-0.9822,-0.9822,-0.9822,-0.9822,-0.9822,-0.9822,-0.9822,-0.9822,-0.9822,-0.9846,-0.7872,-0.5414,-0.8547,-0.5565,-0.0,-4.007,0.0,0.0,0.0,0.0,0.0,0.0,-3.9662,0.0,0.0,0.0,0.0,0.0,0.0,-3.9315,0.0,0.0,-3.9193,-3.8908,-3.8206,0.0,0.0,0.0,-3.5733,0.0,0.0,-3.5504,-3.5504,-3.4461,0.0,0.0,0.0,0.0,0.0,0.0,-3.0139,0.0,0.0,0.0,0.0,0.0,-2.9792,-2.9792,0.0,0.0,-2.9792,-2.9792,-2.9792,0.0,-2.9792,-2.9792,-2.9792,-2.9792,-2.9792,-2.9792,-2.9792,-2.9792,0.0,0.0,0.0,-2.9702,-2.9287,0.0,0.0,0.0,0.0,0.0,0.0,0.0,0.0,0.0,0.0,-2.3135,-2.3135,-2.3135,-2.3135,0.0,0.0,0.0,0.0,0.0,0.0,0.0,0.0,0.0,-1.8799,-1.9143,-1.8711,0.0,-1.7422,-1.6929,-1.5417,-1.5417,-1.4051,-1.1194,-1.1264,-1.0776,-0.9459,-0.9608,-0.973,-0.9822,-0.9822,-0.9822,-0.9822,-0.9822,-0.9822,-0.9822,-0.9822,-0.9822,-0.9825,-0.9747,-0.7766,-0.5289,-0.8547,-0.5686,-0.0,-4.002,0.0,0.0,0.0,0.0,0.0,0.0,0.0,0.0,0.0,-3.9662,0.0,-3.9315,0.0,-3.9315,0.0,-3.9315,-3.9209,-3.8908,-3.8469,0.0,-3.7397,-3.6415,0.0,0.0,-3.5718,-3.5344,-3.4986,-3.3959,-3.3031,0.0,0.0,0.0,0.0,0.0,0.0,0.0,0.0,-2.9792,0.0,0.0,-2.9792,0.0,0.0,-2.9792,0.0,0.0,-2.9792,-2.9792,-2.9792,-2.9792,-2.9792,-2.9792,-2.9792,-2.9792,-2.9792,-2.9792,-2.9792,-2.9792,-2.9792,0.0,0.0,-2.8119,0.0,-2.6047,0.0,0.0,0.0,0.0,0.0,0.0,0.0,-2.3222,-2.3637,-2.3387,-2.3135,0.0,-2.3135,0.0,0.0,0.0,0.0,0.0,0.0,-1.9962,-1.8078,-1.8578,-1.8422,0.0,0.0,-1.6076,-1.4663,-1.4121,-1.2724,-1.0351,-1.0512,-1.0096,-0.9303,-0.951,-0.9656,-0.9747,-0.9798,-0.9822,-0.9822,-0.9822,-0.9822,-0.9822,-0.9822,-0.9822,-0.9825,-0.9761,-0.7774,-0.5042,-0.5929,-0.3581,-0.0,0.0,0.0,0.0,0.0,-3.9368,0.0,0.0,0.0,-3.9193,0.0,-4.007,-4.007,-4.007,-4.007,-4.007,-4.007,-4.007,0.0,-3.9016,-3.8908,0.0,0.0,-3.6661,-3.6275,-3.5619,-3.5569,-3.4986,0.0,0.0,0.0,0.0,0.0,0.0,0.0,-2.9792,0.0,-2.9792,-2.9792,-2.9792,-2.9792,-2.9792,-2.9792,-2.9792,-2.9792,0.0,-2.9792,-2.9792,-2.9792,-2.9792,-2.9792,-2.9792,-2.9714,-2.9792,-2.9792,-2.9714,-2.9792,-2.9792,-2.9792,-2.9792,-2.9792,-2.9534,-2.8347,0.0,0.0,0.0,0.0,-2.4702,0.0,0.0,0.0,0.0,0.0,0.0,-2.4542,-2.379,-2.3047,-2.3047,0.0,0.0,0.0,0.0,0.0,0.0,-2.2306,-2.1498,-1.7963,-1.8996,0.0,0.0,0.0,0.0,-1.3244,-1.186,-1.0347,-0.894,-0.9076,-0.9147,-0.9157,-0.9449,-0.9595,-0.9615,-0.9747,-0.9815,-0.9822,-0.9822,-0.9822,-0.9822,-0.9822,-0.9822,-0.9825,-0.9761,-0.7649,-0.4303,-0.1109,-0.0,-0.0,-3.843,-3.8206,-3.8149,0.0,-3.8206,-3.8318,0.0,0.0,0.0,0.0,-4.007,-4.007,-4.007,-4.007,-4.007,-4.007,-4.007,0.0,0.0,0.0,0.0,-3.9209,-3.7526,-3.6798,-3.7175,-3.6085,0.0,-3.4027,0.0,0.0,-3.118,0.0,0.0,0.0,0.0,0.0,-2.9792,-2.9792,-2.9792,-2.9792,-2.9792,-2.9792,0.0,0.0,-2.9792,-2.9792,-2.9792,-2.9792,-2.9792,-2.9792,-2.9275,-2.8676,-2.9534,-2.9197,-2.8688,-2.9534,-2.9792,-2.9792,-2.9792,-2.9792,-2.9534,-2.8347,-2.7522,-2.6543,0.0,0.0,0.0,0.0,0.0,0.0,0.0,0.0,0.0,-2.3474,-2.2561,-2.1756,0.0,0.0,0.0,0.0,0.0,0.0,-2.1132,-2.0773,-1.9679,-1.787,-1.7421,0.0,0.0,0.0,0.0,-1.1638,-1.125,-1.0347,-0.894,-0.8974,-0.9049,-0.9154,-0.9232,-0.9391,-0.9612,-0.9646,-0.972,-0.9822,-0.9822,-0.9822,-0.9822,-0.9822,-0.9822,-0.9825,-0.9856,-0.6272,-0.1107,-0.037,-0.0,-0.0,-3.7806,0.0,0.0,-3.7279,0.0,0.0,-3.8674,0.0,0.0,-3.9952,-4.007,0.0,-4.007,-4.007,-4.007,-4.007,-4.007,0.0,0.0,0.0,0.0,-3.8133,-3.7499,-3.704,-3.6768,-3.5973,0.0,-3.4027,0.0,0.0,-3.118,0.0,0.0,0.0,0.0,-2.9792,0.0,-2.9792,-2.9792,-2.9792,-2.9792,0.0,0.0,-2.9792,-2.9792,-2.9702,-2.9197,-2.9365,-2.9792,-2.9792,-2.9365,-2.8949,-2.9624,-2.9028,-2.8255,-2.8858,-2.87,-2.8383,-2.8383,-2.8383,-2.8211,-2.7533,-2.6964,-2.6224,-2.5041,-2.4296,-2.38,0.0,0.0,0.0,0.0,0.0,0.0,-2.3135,0.0,0.0,0.0,0.0,0.0,0.0,0.0,0.0,-1.9596,-1.909,-1.8172,-1.6943,0.0,0.0,0.0,0.0,0.0,0.0,-1.1246,-1.0381,-0.8937,-0.9592,-0.9632,-0.9059,-0.9123,-0.9276,-0.951,-0.9581,-0.9686,-0.9822,-0.9822,-0.9822,-0.9822,-0.9822,-0.9822,-0.9822,-0.9846,-0.751,-0.4069,-0.2713,-0.1234,-0.0,0.0,0.0,0.0,0.0,0.0,0.0,0.0,-3.8076,0.0,-3.961,0.0,-3.985,-3.9952,-3.9952,-3.9952,-3.9952,0.0,-3.9454,-3.7921,-3.9156,-3.8707,-3.591,-3.6995,-3.7011,-3.5668,-3.5554,0.0,0.0,0.0,0.0,0.0,0.0,0.0,0.0,0.0,0.0,0.0,-2.9792,-2.9792,0.0,-2.9792,-2.9792,-2.9792,-2.9624,-2.9611,-2.9443,-2.8267,-2.8609,-2.9546,-2.9378,-2.9287,-2.9209,-2.9287,-2.8609,-2.7683,-2.7844,-2.7197,-2.6483,-2.6483,-2.6483,-2.6472,-2.6307,-2.6307,-2.5975,-2.4882,-2.4542,-2.4542,-2.4542,-2.38,0.0,0.0,0.0,0.0,0.0,0.0,0.0,0.0,0.0,0.0,0.0,0.0,0.0,0.0,0.0,0.0,0.0,0.0,0.0,0.0,0.0,0.0,0.0,-1.1746,0.0,-0.9449,0.0,-1.0457,-0.9158,-0.9174,-0.9205,-0.9357,-0.949,-0.9639,-0.9791,-0.9791,-0.9802,-0.9822,-0.9822,-0.9822,-0.9822,-0.9842,-0.9761,-0.9426,-0.6541,-0.3451,-0.0617,0.0,0.0,0.0,0.0,0.0,-3.5846,-3.6843,-3.6904,-3.7144,-3.8092,-3.8206,0.0,-3.9032,-3.9086,-3.9086,-3.9086,-3.9731,0.0,0.0,0.0,0.0,-3.7472,-3.704,-3.6676,-3.6384,-3.5846,-3.4986,0.0,0.0,0.0,0.0,0.0,0.0,0.0,0.0,0.0,-2.9792,-2.9792,0.0,-2.9792,-2.9792,-2.9792,-2.9714,-2.8767,-2.8426,-2.8267,-2.7209,-2.7452,-2.8267,-2.7383,-2.6461,-2.587,-2.6801,-2.6295,-2.5535,-2.6461,-2.6637,-2.6483,-2.6483,-2.6483,-2.6307,-2.5294,-2.5126,-2.4787,-2.3637,-2.3387,-2.3387,-2.3387,-2.3222,-2.3222,-2.3637,0.0,0.0,0.0,0.0,0.0,0.0,0.0,0.0,0.0,0.0,0.0,0.0,0.0,0.0,0.0,0.0,0.0,0.0,0.0,0.0,0.0,0.0,0.0,0.0,0.0,0.0,-1.0672,-0.9507,-0.9052,-0.9195,-0.9222,-0.9384,-0.9646,-0.9646,-0.9713,-0.9822,-0.9822,-0.9822,-0.9822,-0.9825,-0.9846,-0.9744,-0.9098,-0.6877,-0.369,0.0,0.0,0.0,0.0,0.0,0.0,0.0,-3.6054,0.0,-3.7632,-3.7822,-3.7921,-3.8302,-3.8302,-3.8302,-3.8302,-3.8652,-3.843,-3.7263,-3.7905,-3.779,-3.6662,-3.6631,0.0,-3.6054,-3.5668,-3.5279,-3.4758,0.0,0.0,-3.1888,0.0,0.0,0.0,0.0,-2.9792,0.0,0.0,0.0,-2.9792,-2.9792,-2.9792,-2.9714,-2.9197,-2.8597,-2.7971,-2.7084,-2.6758,-2.6747,-2.6758,-2.6587,-2.6443,-2.6956,-2.6368,-2.5609,-2.613,-2.587,-2.5434,-2.5434,-2.5434,-2.5259,-2.474,-2.4563,-2.4424,-2.3614,-2.3477,-2.3408,-2.3184,-2.3135,-2.3135,-2.3135,-2.3135,0.0,0.0,0.0,0.0,0.0,0.0,0.0,0.0,0.0,0.0,0.0,0.0,0.0,0.0,0.0,0.0,0.0,0.0,0.0,0.0,0.0,0.0,0.0,0.0,0.0,-0.9915,-0.9265,-0.9015,-0.9154,-0.9154,-0.9276,-0.9496,-0.9574,-0.9649,-0.9717,-0.9791,-0.9822,-0.9822,-0.9822,-0.9836,-0.9852,-0.9842,-0.8741,-0.7025,0.0,-3.5504,0.0,0.0,-3.5504,0.0,0.0,-3.5504,-3.591,-3.7115,-3.7294,-3.7354,-3.7515,-3.7515,-3.7515,-3.7515,-3.769,-3.7397,-3.6446,-3.71,-3.6951,-3.5554,-3.6054,-3.6117,-3.5504,-3.5504,-3.5504,0.0,0.0,0.0,0.0,0.0,0.0,0.0,0.0,0.0,0.0,0.0,-2.9792,-2.9792,-2.9792,-2.9792,-2.9792,-2.9534,-2.8779,-2.7672,-2.701,-2.6065,-2.5316,-2.6356,-2.6824,-2.7041,-2.7041,-2.6441,-2.5754,-2.5754,-2.5138,-2.4414,-2.4414,-2.4414,-2.4414,-2.4414,-2.4414,-2.4307,-2.3887,-2.3789,-2.3662,-2.3232,-2.3135,-2.3135,-2.3135,-2.3135,0.0,0.0,0.0,0.0,0.0,0.0,0.0,0.0,0.0,0.0,0.0,0.0,0.0,0.0,0.0,0.0,0.0,0.0,0.0,0.0,0.0,0.0,-1.203,0.0,-1.2036,0.0,-0.9154,-0.8998,-0.9106,-0.9106,-0.9188,-0.934,-0.9459,-0.9551,-0.9618,-0.973,-0.9795,-0.9822,-0.9822,-0.9832,-0.9849,-0.9849,-0.9744,-0.9509,0.0,0.0,0.0,0.0,0.0,0.0,0.0,-3.5504,-3.5569,-3.5683,-3.5748,-3.5958,-3.6615,-3.6722,-3.6722,-3.6722,-3.7397,-3.7175,-3.5668,-3.6275,-3.6337,-3.5569,-3.5569,-3.5554,-3.5504,-3.5504,-3.5504,0.0,0.0,0.0,0.0,0.0,0.0,0.0,0.0,0.0,0.0,-2.9792,-2.9792,-2.9792,-2.9792,-2.9792,-2.9702,-2.8676,-2.7614,-2.6539,-2.584,-2.5074,-2.4588,-2.5085,-2.507,-2.467,-2.467,-2.468,-2.4598,-2.4598,-2.4506,-2.4414,-2.4414,-2.4414,-2.4414,-2.4414,-2.4414,-2.4307,-2.3887,-2.3789,-2.3662,-2.3232,-2.3135,-2.3135,-2.3135,-2.3135,-2.2765,0.0,0.0,0.0,0.0,0.0,0.0,0.0,0.0,0.0,0.0,0.0,0.0,0.0,0.0,0.0,0.0,0.0,0.0,0.0,0.0,-1.6144,-1.6124,-1.4003,0.0,-1.2832,-1.0131,-0.8947,-0.8957,-0.8957,-0.9035,-0.9174,-0.9191,-0.9354,-0.9612,-0.9625,-0.9703,-0.9822,-0.9822,-0.9822,-0.9825,-0.9825,-0.9825,-0.9825,0.0,0.0,0.0,0.0,0.0,0.0,0.0,-3.5504,-3.5504,-3.5504,-3.5504,-3.5619,-3.5894,-3.5943,-3.5943,-3.5943,-3.6243,-3.6148,-3.5569,-3.5782,-3.5846,-3.5504,-3.5504,-3.5504,-3.5504,-3.5504,-3.5213,0.0,0.0,0.0,0.0,0.0,0.0,0.0,0.0,-2.9792,-2.9792,-2.9792,-2.9792,-2.9792,-2.9792,-2.9792,-2.9792,-2.9275,-2.8039,-2.6456,-2.6428,-2.5529,-2.4482,-2.4922,-2.5127,-2.5205,-2.5205,-2.5205,-2.5205,-2.5205,-2.5205,-2.5205,-2.5205,-2.5205,-2.5205,-2.5205,-2.5205,-2.5029,-2.4326,-2.417,-2.3975,-2.3281,-2.3135,-2.3135,-2.3135,-2.3135,-2.2677,0.0,0.0,0.0,0.0,0.0,0.0,0.0,0.0,0.0,0.0,0.0,0.0,0.0,0.0,0.0,0.0,0.0,0.0,-1.5832,0.0,-1.6006,-1.5368,-1.4493,-1.389,-1.327,-1.1214,-1.0241,-1.0241,-0.9265,-0.9018,-0.9154,-0.9154,-0.9273,-0.9473,-0.9473,-0.9507,-0.9564,-0.9659,-0.9693,-0.9703,-0.9788,-0.9822,-0.9822,-3.5504,0.0,-3.5504,0.0,-3.5504,-3.5504,-3.5504,-3.5504,-3.5504,-3.5504,-3.5504,-3.5504,-3.5504,-3.5504,-3.5504,-3.5504,-3.5504,-3.5504,-3.5504,-3.5504,-3.5504,-3.5504,-3.5504,0.0,-3.5504,-3.5213,-3.4691,-3.4027,-3.282,0.0,0.0,0.0,0.0,0.0,-2.9792,-2.9792,-2.9792,-2.9792,-2.9792,-2.9792,-2.9792,-2.9624,-2.9275,-2.9275,-2.7959,-2.603,-2.6428,-2.5622,-2.4297,-2.4727,-2.5176,-2.5566,-2.5693,-2.5742,-2.5742,-2.5742,-2.5742,-2.5742,-2.5742,-2.5644,-2.5537,-2.5537,-2.5439,-2.5156,-2.4404,-2.4228,-2.4023,-2.3291,-2.3135,-2.3135,-2.3135,-2.2775,-2.2217,0.0,0.0,0.0,0.0,0.0,0.0,0.0,0.0,0.0,0.0,0.0,0.0,0.0,0.0,0.0,0.0,0.0,0.0,0.0,0.0,0.0,0.0,0.0,-1.4526,-1.3811,-1.2375,-1.1755,-1.1647,-1.0241,-0.965,-0.9752,-0.9311,-0.9174,-0.9313,-0.9313,-0.934,-0.9391,-0.95,-0.9544,-0.9554,-0.9656,-0.972,-0.9758,-3.5504,-3.5504,-3.5504,-3.5504,-3.5504,-3.5504,-3.5504,-3.5504,-3.5504,-3.5504,-3.5504,-3.5504,-3.5504,-3.5504,-3.5504,-3.5504,-3.5504,-3.5504,-3.5504,-3.5504,-3.5504,0.0,0.0,-3.5504,-3.5504,-3.4543,-3.4027,-3.4027,0.0,0.0,-3.118,0.0,0.0,-2.9792,-2.9792,-2.9792,-2.9792,-2.9792,-2.9792,-2.9792,-2.9792,-2.9118,-2.8096,-2.8096,-2.6767,-2.485,-2.5246,-2.474,-2.3867,-2.4277,-2.4717,-2.5156,-2.5596,-2.5742,-2.5742,-2.5742,-2.5742,-2.5742,-2.5742,-2.541,-2.5078,-2.5078,-2.4756,-2.4316,-2.3896,-2.3799,-2.3672,-2.3232,-2.3135,-2.3135,-2.3135,-2.212,-2.0935,-1.9761,0.0,0.0,0.0,0.0,0.0,0.0,0.0,0.0,0.0,0.0,0.0,0.0,0.0,0.0,0.0,0.0,0.0,-1.5832,-1.5832,0.0,-1.6273,-1.5144,-1.4686,-1.4943,-1.3805,-1.3264,-1.3264,-1.1755,-1.1105,-1.1,-0.9482,-0.9022,-0.9157,-0.9157,-0.9245,-0.9381,-0.9384,-0.9384,-0.9384,-0.9388,-0.9483,-0.9612,-3.5504,-3.5504,-3.5504,-3.5504,-3.5504,-3.5504,-3.5504,-3.5504,-3.5504,-3.5504,-3.5504,-3.5504,-3.5504,-3.5504,-3.5504,0.0,-3.5504,-3.5504,0.0,-3.5504,-3.5504,-3.5504,-3.5504,-3.5213,-3.4461,-3.4177,-3.338,-3.2105,0.0,0.0,0.0,-2.9934,-2.9792,-2.9792,-2.9792,-2.9792,-2.9792,-2.9792,-2.9792,-2.9702,-2.8937,-2.8426,-2.8004,-2.729,-2.6119,-2.4808,-2.4965,-2.4466,-2.3809,-2.3945,-2.4268,-2.4648,-2.4795,-2.5254,-2.5674,-2.5371,-2.5283,-2.5215,-2.4922,-2.4736,-2.4619,-2.4619,-2.4521,-2.4113,-2.2859,-2.2351,-2.1823,-2.0881,-2.1302,-2.1845,-2.1845,-2.0845,-1.9943,-1.9579,0.0,0.0,0.0,0.0,0.0,0.0,0.0,0.0,0.0,0.0,0.0,0.0,0.0,0.0,0.0,0.0,0.0,0.0,-1.5832,0.0,-1.6273,-1.596,-1.604,-1.6517,-1.5123,-1.4077,-1.3264,-1.1755,-1.1105,-1.0996,-0.9592,-0.8964,-0.9008,-0.9008,-0.9035,-0.9089,-0.9188,-0.9225,-0.9239,-0.9344,-0.9412,-0.9452,-3.5504,-3.5504,-3.5504,-3.5504,-3.5504,-3.5504,-3.5504,-3.5504,-3.5504,-3.5504,-3.5504,-3.5504,-3.5504,-3.5504,0.0,-3.5504,-3.5504,0.0,-3.5504,-3.5133,-3.5133,-3.5504,-3.5133,-3.4839,-3.4543,0.0,0.0,-3.1742,-3.1044,-3.0343,-2.9792,-2.9792,-2.9792,-2.9792,-2.9792,-2.9792,-2.9792,-2.9792,-2.9792,-2.9714,-2.9028,-2.8267,-2.7452,-2.6719,-2.5557,-2.4125,-2.4125,-2.3894,-2.3545,-2.3545,-2.3828,-2.418,-2.418,-2.4668,-2.5185,-2.4902,-2.4824,-2.4766,-2.4492,-2.4307,-2.418,-2.418,-2.4062,-2.3496,-2.2026,-2.1121,-2.0395,-1.967,-2.0124,-2.0666,-2.0666,-1.967,-1.8864,-1.8864,0.0,0.0,0.0,0.0,0.0,0.0,0.0,0.0,0.0,-1.9497,0.0,0.0,0.0,0.0,0.0,0.0,0.0,-1.5832,-1.5832,0.0,-1.6106,-1.6219,-1.6513,-1.6987,-1.6355,-1.5587,-1.4883,-1.3372,-1.2724,-1.2615,-1.1214,-1.0566,-1.0566,-1.0566,-1.0566,-1.0578,-1.0683,-1.0723,-1.0628,-1.0183,-1.0034,-1.0086,-3.5504,-3.5504,0.0,0.0,-3.5504,0.0,-3.5504,-3.5504,-3.5504,-3.5504,-3.5504,-3.5504,-3.5504,-3.5504,-3.5504,-3.5504,0.0,0.0,0.0,-3.461,-3.4543,-3.5439,-3.4543,0.0,-3.5279,-3.4327,-3.331,-3.2393,-3.0633,-2.9792,-2.9792,-2.9792,-2.9792,-2.9792,-2.9792,-2.9792,-2.9792,-2.9792,-2.9792,-2.9792,-2.9702,-2.8383,-2.6483,-2.6389,-2.5062,-2.3135,-2.3135,-2.3135,-2.3135,-2.3135,-2.3408,-2.374,-2.374,-2.4014,-2.4336,-2.4365,-2.4375,-2.4365,-2.4336,-2.4043,-2.374,-2.374,-2.326,-2.2501,-2.1302,-2.0215,-1.9497,-1.9405,-1.9405,-1.9497,-1.9497,-1.8411,-1.7598,-1.7692,-1.7692,-1.7692,-1.7598,0.0,0.0,0.0,0.0,0.0,0.0,-1.6756,-1.7109,0.0,0.0,0.0,0.0,0.0,0.0,-1.5832,-1.5832,-1.5832,-1.5832,-1.6106,-1.64,-1.6714,-1.7281,-1.7562,-1.7582,-1.6068,-1.5417,-1.531,-1.3911,-1.3264,-1.3264,-1.3264,-1.3264,-1.3264,-1.3264,-1.3264,-1.3161,-1.1755,-1.1317,-1.1239,0.0,0.0,-3.5504,-3.5504,-3.5504,-3.5504,-3.5504,-3.5504,-3.5504,-3.5504,-3.5504,-3.5504,-3.5504,-3.5504,-3.5504,-3.5504,-3.5504,-3.5504,-3.5504,-3.5279,-3.5279,-3.5504,-3.4543,-3.3808,-3.3325,-3.2321,-3.1402,-3.0419,-2.9998,-2.9792,-2.9792,-2.9792,-2.9792,-2.9792,-2.9792,-2.9792,-2.9792,-2.9792,-2.9792,-2.9702,-2.8846,-2.7706,-2.6389,-2.5546,-2.4296,-2.3135,-2.3135,-2.3135,-2.3135,-2.3135,-2.3213,-2.3291,-2.3291,-2.3359,-2.3506,-2.3848,-2.3935,-2.3867,-2.3535,-2.3369,-2.3291,-2.3291,-2.1839,-2.0042,-1.8864,-1.9039,-1.9222,-1.8319,-1.8864,-1.9497,-1.9497,-1.7762,-1.6574,-1.7505,-1.7692,-1.7318,-1.6386,0.0,0.0,0.0,-1.7692,-1.7692,-1.7692,-1.9123,-1.9488,0.0,0.0,0.0,0.0,0.0,-1.6756,-1.5832,-1.5832,-1.5832,-1.5832,-1.5899,-1.6192,-1.6707,-1.7074,-1.7368,-1.7582,-1.6068,-1.5417,-1.531,-1.3911,-1.3264,-1.3264,-1.3264,-1.3264,-1.3264,-1.3264,-1.3264,-1.3264,-1.2945,-1.2758,-1.2796,-3.5504,-3.5504,-3.5504,-3.5504,-3.5504,-3.5504,-3.5504,-3.5504,-3.5504,-3.5504,-3.5504,-3.5504,-3.5504,-3.5504,-3.5504,-3.5504,-3.5504,-3.5504,-3.5504,-3.5067,-3.4986,-3.5504,-3.4543,-3.3959,-3.3905,-3.2961,-3.1829,-3.0419,-2.9998,-2.9792,-2.9792,-2.9792,-2.9792,-2.9792,-2.9792,-2.9792,-2.9792,-2.9792,-2.9792,-2.9792,-2.9118,-2.7947,-2.6389,-2.5797,-2.4553,-2.3135,-2.3135,-2.3135,-2.3135,-2.3135,-2.3135,-2.3135,-2.3135,-2.3135,-2.3184,-2.3428,-2.3496,-2.3437,-2.3203,-2.3135,-2.3135,-2.3135,-2.1676,-2.0124,-1.9488,-1.9047,-1.8503,-1.787,-1.7762,-1.7848,-1.7848,-1.6749,-1.6015,-1.6756,-1.6857,-1.6574,-1.592,-1.6386,0.0,-1.6857,-1.6857,-1.7037,-1.7591,-1.8864,-1.9588,-1.9405,0.0,0.0,-1.8588,-1.7956,-1.7131,-1.5825,-1.5832,-1.5832,-1.5832,-1.5965,-1.6192,-1.6513,-1.6941,-1.7235,-1.7388,-1.666,-1.6393,-1.6387,-1.5636,-1.531,-1.531,-1.531,-1.531,-1.531,-1.531,-1.531,-1.5204,-1.4556,-1.4234,-1.4126,-3.5504,-3.5504,-3.5504,-3.5504,-3.5504,-3.5504,-3.5504,-3.5504,-3.5504,-3.5504,-3.5504,-3.5504,-3.5504,-3.5504,-3.5504,-3.5504,-3.5504,-3.5504,-3.5504,-3.4691,-3.4543,-3.5213,-3.4327,-3.4109,-3.4854,-3.3905,-3.2607,-3.097,-3.0216,-2.9792,-2.9792,-2.9792,-2.9792,-2.9792,-2.9792,-2.9792,-2.9792,-2.9792,-2.9792,-2.9792,-2.9792,-2.8542,-2.6719,-2.6554,-2.5221,-2.3299,-2.3135,-2.3135,-2.3135,-2.3135,-2.3135,-2.3135,-2.3135,-2.3135,-2.3135,-2.3135,-2.3135,-2.3135,-2.3135,-2.3135,-2.3047,-2.2862,-2.2031,-2.1293,-2.1025,-1.9579,-1.8234,-1.8234,-1.7397,-1.6655,-1.6655,-1.6285,-1.6109,-1.6109,-1.6109,-1.6109,-1.6109,0.0,-1.6109,-1.6109,-1.592,-1.6292,-1.7598,-1.787,-1.8864,-2.1114,-2.0395,0.0,0.0,-1.8319,-1.7225,-1.6103,-1.592,-1.5832,-1.5832,-1.6079,-1.6226,-1.6279,-1.678,-1.7041,-1.7094,-1.7382,-1.7515,-1.7522,-1.7562,-1.7582,-1.7582,-1.7582,-1.7582,-1.7582,-1.7582,-1.7582,-1.747,-1.6174,-1.5743,-1.5524,-3.5504,-3.5504,-3.5504,-3.5504,-3.5504,-3.5504,-3.5504,-3.5504,-3.5504,-3.5504,-3.5504,-3.5504,-3.5504,-3.5504,-3.5504,-3.5504,-3.5504,-3.5504,-3.5504,-3.5359,-3.4986,-3.4245,-3.331,-3.2536,-3.1888,-3.0921,-3.0292,-2.9998,-2.9856,-2.9792,-2.9792,-2.9792,-2.9792,-2.9792,-2.9792,-2.9792,-2.9792,-2.9792,-2.9792,-2.9792,-2.9792,-2.9028,-2.7763,-2.6883,-2.5724,-2.4372,-2.3474,-2.3135,-2.3135,-2.3135,-2.3135,-2.3135,-2.3135,-2.3135,-2.3135,-2.3135,-2.3135,-2.3135,-2.3135,-2.3135,-2.2862,-2.1845,-2.148,-2.1025,-2.0034,-2.0305,-2.0755,-2.0755,-2.0567,-2.0486,-2.0413,-1.878,-1.7412,-1.7412,-1.7412,-1.7412,0.0,0.0,-1.7412,-1.7412,-1.648,-1.6292,-1.7598,-1.8588,-1.9761,-2.1203,-2.1114,-2.0576,-1.9579,-1.8319,-1.7598,-1.7412,-1.6386,-1.5832,-1.5832,-1.5872,-1.6025,-1.6273,-1.6366,-1.654,-1.678,-1.7081,-1.7215,-1.7228,-1.7475,-1.7582,-1.7582,-1.7582,-1.7582,-1.7582,-1.7582,-1.7582,-1.7582,-1.7364,-1.7252,-1.7252,-3.5504,-3.5504,-3.5504,-3.5504,-3.5504,-3.5504,-3.5504,-3.5504,-3.5504,-3.5504,-3.5504,-3.5504,-3.5504,-3.5504,-3.5504,-3.5504,-3.5504,-3.5504,-3.5504,-3.4986,-3.4259,-3.331,-3.331,-3.289,-3.196,-3.1044,-3.0279,-2.9792,-2.9792,-2.9792,-2.9792,-2.9792,-2.9792,-2.9792,-2.9792,-2.9792,-2.9792,-2.9792,-2.9792,-2.9792,-2.9792,-2.8779,-2.7209,-2.6719,-2.5389,-2.38,-2.3309,-2.3135,-2.3135,-2.3135,-2.3135,-2.3135,-2.3135,-2.3135,-2.3135,-2.3135,-2.3135,-2.3135,-2.3135,-2.3135,-2.296,-2.2403,-2.2306,-2.2129,-2.1587,-2.1391,-2.1293,-2.1293,-2.0755,-2.0305,-2.0322,-1.9413,-1.8688,-1.8688,-1.8688,0.0,0.0,-1.8234,-1.8411,-1.7777,-1.7762,-1.8303,-1.9497,-2.0124,-2.0935,-2.2217,-2.2306,-2.1756,-2.0567,-1.9943,-1.9314,-1.868,-1.749,-1.685,-1.685,-1.6109,-1.5899,-1.6039,-1.6192,-1.6339,-1.648,-1.678,-1.6907,-1.6914,-1.7054,-1.7114,-1.7121,-1.7281,-1.7348,-1.7368,-1.7522,-1.7582,-1.7582,-1.7582,-1.7582,-1.7582,-3.5504,-3.5504,-3.5504,-3.5504,-3.5504,-3.5504,-3.5504,-3.5504,-3.5504,-3.5504,-3.5504,-3.5504,-3.5504,-3.5504,-3.5504,-3.5504,-3.5504,-3.5424,-3.5133,-3.4394,-3.3671,-3.2961,-3.338,-3.3241,-3.2321,-3.1609,-3.0758,-2.9792,-2.9792,-2.9792,-2.9792,-2.9792,-2.9792,-2.9792,-2.9792,-2.9792,-2.9792,-2.9792,-2.9792,-2.9792,-2.9792,-2.8791,-2.7221,-2.6964,-2.5797,-2.4211,-2.3714,-2.3464,-2.3464,-2.3222,-2.3135,-2.3135,-2.3135,-2.3135,-2.3135,-2.3135,-2.3135,-2.3135,-2.3135,-2.3135,-2.3135,-2.3135,-2.3135,-2.3135,-2.3135,-2.2403,-2.1747,-2.1747,-2.0944,-2.0314,-2.0314,-2.0133,-1.9943,-1.9943,0.0,0.0,0.0,-1.9314,-1.9579,-1.8688,-1.9139,-1.9943,-2.1203,-2.1293,-2.1756,-2.3047,-2.2862,-2.2306,-2.1382,-2.1025,-2.0576,-1.9943,-1.8772,-1.8141,-1.8141,-1.685,-1.6197,-1.6204,-1.6155,-1.6166,-1.6179,-1.6473,-1.6607,-1.6607,-1.6673,-1.6707,-1.6727,-1.6954,-1.7048,-1.7074,-1.7368,-1.7482,-1.7488,-1.7555,-1.7582,-1.7582,-3.5504,-3.5504,-3.5504,-3.5504,-3.5504,-3.5504,-3.5504,-3.5504,-3.5504,-3.5504,-3.5504,-3.5504,-3.5504,-3.5504,-3.5504,-3.5504,-3.5504,-3.5133,-3.4177,-3.4027,-3.3959,-3.3876,-3.3101,-3.2249,-3.1315,-3.1254,-3.0758,-2.9792,-2.9792,-2.9792,-2.9792,-2.9792,-2.9792,-2.9792,-2.9792,-2.9792,-2.9792,-2.9792,-2.9792,-2.9792,-2.9792,-2.9714,-2.9456,-2.8347,-2.7844,-2.7429,-2.5452,-2.4702,-2.4542,-2.3474,-2.3135,-2.3135,-2.3135,-2.3135,-2.3135,-2.3135,-2.3135,-2.3135,-2.3135,-2.3135,-2.3135,-2.3135,-2.3135,-2.3135,-2.3135,-2.3047,-2.296,-2.296,-2.2862,-2.2862,-2.2862,-2.1943,-2.1203,-2.1203,0.0,0.0,-2.1025,-2.1114,-2.1114,-2.1025,-2.0124,-1.9943,-2.1203,-2.1293,-2.1756,-2.3047,-2.2031,-2.1382,-2.1293,-2.0215,-2.0124,-2.1114,-2.0034,-1.9405,-1.9405,-1.8141,-1.7598,-1.7505,-1.6407,-1.5865,-1.5872,-1.6166,-1.6306,-1.6319,-1.6587,-1.6707,-1.6707,-1.6727,-1.674,-1.6767,-1.7061,-1.7181,-1.7215,-1.7482,-1.7582,-1.7582,-3.6165,-3.5831,-3.5504,-3.5504,-3.5504,-3.5504,-3.5504,-3.5504,-3.5504,-3.5504,-3.5504,-3.5504,-3.5504,-3.5504,-3.5504,-3.5504,-3.5504,-3.5359,-3.4986,-3.492,-3.4624,-3.4027,-3.3101,-3.2749,-3.2961,-3.1815,-3.1044,-3.0696,-3.0075,-2.9792,-2.9792,-2.9792,-2.9792,-2.9792,-2.9792,-2.9792,-2.9792,-2.9792,-2.9792,-2.9792,-2.9792,-2.9365,-2.8688,-2.8255,-2.7683,-2.6871,-2.5378,-2.4787,-2.4628,-2.3464,-2.3135,-2.3135,-2.3135,-2.3135,-2.3135,-2.3135,-2.3135,-2.3135,-2.3135,-2.3135,-2.3135,-2.3135,-2.3135,-2.3135,-2.3135,-2.3135,-2.3135,-2.3135,-2.3135,-2.3135,-2.3135,-2.2775,-2.2403,-2.2403,0.0,-2.212,-2.1382,-2.1933,-2.2129,-2.1382,-2.1578,-2.1952,-2.2403,-2.2403,-2.2589,-2.3057,-2.2677,-2.2403,-2.2403,-2.1952,-2.1952,-2.2403,-2.1952,-2.1042,-1.9488,-1.8319,-1.7318,-1.648,-1.6015,-1.5832,-1.5832,-1.5945,-1.5999,-1.6005,-1.6112,-1.6159,-1.6179,-1.6359,-1.644,-1.6466,-1.676,-1.6874,-1.6907,-1.7208,-1.7315,-1.7341,-3.6275,-3.5831,-3.5504,-3.5504,-3.5504,-3.5504,-3.5504,-3.5504,-3.5504,-3.5504,-3.5504,-3.5504,-3.5504,-3.5504,-3.5504,-3.5504,-3.5504,-3.5504,-3.5504,-3.5504,-3.5213,-3.4476,-3.3822,-3.3671,-3.4027,-3.2464,-3.1536,-3.118,-3.0279,-2.9792,-2.9792,-2.9792,-2.9792,-2.9792,-2.9792,-2.9792,-2.9792,-2.9792,-2.9792,-2.9792,-2.9792,-2.9365,-2.8597,-2.8597,-2.8199,-2.7383,-2.6284,-2.5859,-2.5703,-2.4553,-2.4145,-2.4145,-2.4145,-2.3887,-2.3551,-2.3222,-2.3135,-2.3135,-2.3135,-2.3135,-2.3135,-2.3135,-2.3135,-2.3135,-2.3135,-2.3135,-2.3135,-2.3135,-2.3135,-2.3135,-2.3135,-2.3135,-2.3135,-2.3135,-2.3135,-2.2775,-2.1943,-2.2589,-2.2775,-2.1943,-2.2589,-2.3135,-2.3135,-2.3135,-2.3135,-2.3135,-2.3135,-2.3135,-2.3135,-2.3135,-2.3135,-2.3135,-2.3135,-2.2129,-2.0124,-1.9222,-1.8403,-1.7569,-1.6749,-1.6386,-1.6386,-1.6015,-1.5832,-1.5832,-1.5832,-1.5832,-1.5845,-1.6052,-1.6132,-1.6159,-1.6453,-1.6567,-1.6607,-1.6901,-1.7007,-1.7041,-3.5504,-3.5504,-3.5504,-3.5504,-3.5504,-3.5504,-3.5504,-3.5504,-3.5504,-3.5504,-3.5504,-3.5504,-3.5504,-3.5504,-3.5504,-3.5504,-3.5504,-3.5504,-3.5504,-3.5504,-3.5504,-3.5504,-3.5504,-3.5052,-3.4027,-3.3101,-3.2177,-3.1254,-3.0279,-2.9792,-2.9792,-2.9792,-2.9792,-2.9792,-2.9792,-2.9792,-2.9792,-2.9792,-2.9792,-2.9792,-2.9792,-2.9792,-2.9792,-2.9792,-2.9792,-2.9624,-2.8518,-2.8096,-2.7924,-2.6883,-2.6483,-2.6483,-2.6483,-2.5714,-2.4542,-2.3464,-2.3135,-2.3135,-2.3135,-2.3135,-2.3135,-2.3135,-2.3135,-2.3135,-2.3135,-2.3135,-2.3135,-2.3135,-2.3135,-2.3135,-2.3135,-2.3135,-2.3135,-2.3135,-2.3135,-2.3135,-2.3135,-2.3135,-2.3135,-2.3135,-2.3135,-2.3135,-2.3135,-2.3135,-2.3135,-2.3135,-2.3135,-2.3135,-2.3135,-2.3135,-2.3135,-2.3135,-2.3135,-2.2501,-2.1293,-2.1293,-2.1293,-2.1293,-1.8864,-1.7692,-1.7692,-1.6386,-1.5832,-1.5832,-1.5832,-1.5832,-1.5832,-1.5832,-1.5832,-1.5858,-1.6152,-1.6273,-1.6306,-1.6593,-1.67,-1.67,-3.7889,-3.7456,-3.6951,-3.6337,-3.6275,-3.6117,-3.5554,-3.5504,-3.5504,-3.5504,-3.5504,-3.5504,-3.5504,-3.5504,-3.5504,-3.5504,-3.5504,-3.5504,-3.5504,-3.5504,-3.5504,-3.5504,-3.5504,-3.5359,-3.5067,-3.4109,-3.3449,-3.3171,-3.1536,-3.0758,-3.0758,-3.0139,-2.9792,-2.9792,-2.9792,-2.9792,-2.9792,-2.9792,-2.9792,-2.9792,-2.9792,-2.9792,-2.9792,-2.9792,-2.9792,-2.9624,-2.8518,-2.8096,-2.7924,-2.6883,-2.6483,-2.6389,-2.5546,-2.5041,-2.4542,-2.3464,-2.3135,-2.3135,-2.3135,-2.3135,-2.3135,-2.3135,-2.3135,-2.3135,-2.3135,-2.3135,-2.3135,-2.3135,-2.3135,-2.3135,-2.3135,-2.3135,-2.3135,-2.3135,-2.3135,-2.3135,-2.3135,-2.3135,-2.3135,-2.3135,-2.3135,-2.3135,-2.3135,-2.3135,-2.3135,-2.3135,-2.3135,-2.3135,-2.3135,-2.3135,-2.3135,-2.3135,-2.3135,-2.296,-2.2589,-2.1747,-2.0845,-2.0034,-1.9314,-1.8503,-1.7692,-1.7318,-1.6669,-1.5832,-1.5832,-1.5832,-1.5832,-1.5832,-1.5832,-1.5838,-1.5925,-1.5965,-1.5999,-1.6293,-1.64,-1.6433,-3.8469,-3.8092,-3.7632,-3.7144,-3.7084,-3.6919,-3.6492,-3.6133,-3.5958,-3.5958,-3.5668,-3.5504,-3.5504,-3.5504,-3.5504,-3.5504,-3.5504,-3.5504,-3.5504,-3.5504,-3.5504,-3.5504,-3.5504,-3.5504,-3.5504,-3.4543,-3.4027,-3.4027,-3.2464,-3.1742,-3.1742,-3.1193,-3.0709,-3.0343,-3.0343,-3.0139,-2.9792,-2.9792,-2.9792,-2.9792,-2.9792,-2.9792,-2.9792,-2.9792,-2.9792,-2.9702,-2.9028,-2.8767,-2.8688,-2.8039,-2.7799,-2.7637,-2.6449,-2.6108,-2.5786,-2.4211,-2.38,-2.3627,-2.3222,-2.3135,-2.3135,-2.3135,-2.3135,-2.3135,-2.3135,-2.3135,-2.3135,-2.3135,-2.3135,-2.3135,-2.3135,-2.3135,-2.3135,-2.3135,-2.3135,-2.3135,-2.3135,-2.3135,-2.3135,-2.3135,-2.3135,-2.3135,-2.3135,-2.3135,-2.3135,-2.3135,-2.3135,-2.3135,-2.3135,-2.3135,-2.3135,-2.3135,-2.3135,-2.3135,-2.3135,-2.2403,-2.1667,-2.0953,-2.0395,-1.9579,-1.8411,-1.7963,-1.7037,-1.5832,-1.5832,-1.5832,-1.5832,-1.5832,-1.5832,-1.5832,-1.5832,-1.5832,-1.5852,-1.6032,-1.6099,-1.6119,-3.7994,-3.7994,-3.7978,-3.7921,-3.7921,-3.7863,-3.7806,-3.716,-3.6737,-3.6737,-3.6054,-3.5619,-3.5619,-3.5569,-3.5504,-3.5504,-3.5504,-3.5504,-3.5504,-3.5504,-3.5504,-3.5504,-3.5504,-3.5474,-3.5415,-3.4581,-3.4095,-3.4095,-3.3171,-3.2749,-3.2749,-3.2664,-3.2177,-3.1315,-3.1254,-3.0696,-2.9934,-2.9869,-2.9792,-2.9792,-2.9792,-2.9792,-2.9792,-2.9792,-2.9792,-2.9792,-2.9792,-2.9792,-2.9792,-2.9792,-2.9792,-2.9624,-2.8438,-2.8096,-2.7683,-2.5535,-2.4957,-2.4713,-2.3724,-2.3387,-2.3387,-2.3387,-2.3387,-2.3387,-2.3135,-2.3135,-2.3135,-2.3135,-2.3135,-2.3135,-2.3135,-2.3135,-2.3135,-2.3135,-2.3135,-2.3135,-2.3135,-2.3135,-2.3135,-2.3135,-2.3135,-2.3135,-2.3135,-2.3135,-2.3135,-2.3135,-2.3135,-2.3135,-2.3135,-2.3135,-2.3135,-2.3135,-2.3135,-2.3135,-2.3135,-2.3135,-2.3135,-2.3057,-2.2031,-2.0845,-1.9579,-1.8503,-1.7311,-1.6015,-1.6015,-1.5927,-1.5832,-1.5832,-1.5832,-1.5832,-1.5832,-1.5832,-1.5832,-1.5832,-1.5832,-1.5832,-3.9627,-3.9627,-3.9385,-3.8745,-3.8635,-3.8469,-3.7863,-3.7632,-3.7515,-3.7515,-3.6859,-3.6384,-3.6384,-3.5846,-3.5504,-3.5504,-3.5504,-3.5504,-3.5504,-3.5504,-3.5504,-3.5504,-3.5504,-3.525,-3.4711,-3.5011,-3.5198,-3.5198,-3.4177,-3.3671,-3.3671,-3.2961,-3.2464,-3.2249,-3.1536,-3.1106,-3.0833,-3.0139,-2.9792,-2.9792,-2.9792,-2.9792,-2.9792,-2.9792,-2.9792,-2.9792,-2.9792,-2.9792,-2.9792,-2.9792,-2.9792,-2.9624,-2.8438,-2.8096,-2.7844,-2.6543,-2.6141,-2.6058,-2.5808,-2.5724,-2.5724,-2.5724,-2.5724,-2.5305,-2.3474,-2.3135,-2.3135,-2.3135,-2.3135,-2.3135,-2.3135,-2.3135,-2.3135,-2.3135,-2.3135,-2.3135,-2.3135,-2.3135,-2.3135,-2.3135,-2.3135,-2.3135,-2.3135,-2.3135,-2.3135,-2.3135,-2.3135,-2.3135,-2.3135,-2.3135,-2.3135,-2.3135,-2.3135,-2.3135,-2.3135,-2.3135,-2.3135,-2.3135,-2.2862,-2.212,-2.0935,-2.0666,-1.9306,-1.7318,-1.7318,-1.6756,-1.5832,-1.5832,-1.5832,-1.5832,-1.5832,-1.5832,-1.5832,-1.5832,-1.5832,-1.5832,-4.007,-4.007,-3.9969,-3.9542,-3.9489,-3.9332,-3.8941,-3.8596,-3.8302,-3.8302,-3.7674,-3.7144,-3.7144,-3.6461,-3.5758,-3.5105,-3.4726,-3.4547,-3.4547,-3.4547,-3.4547,-3.4547,-3.4547,-3.4382,-3.4023,-3.4367,-3.4547,-3.4547,-3.4041,-3.3753,-3.3753,-3.3266,-3.2773,-3.2382,-3.2194,-3.1626,-3.0711,-3.0504,-3.0216,-2.9792,-2.9792,-2.9792,-2.9792,-2.9792,-2.9792,-2.9792,-2.9792,-2.9792,-2.9792,-2.9792,-2.9792,-2.9714,-2.9106,-2.8937,-2.8688,-2.7614,-2.729,-2.7128,-2.6648,-2.6483,-2.6483,-2.6483,-2.6483,-2.6224,-2.4978,-2.4296,-2.3877,-2.3877,-2.3464,-2.3135,-2.3135,-2.3135,-2.3135,-2.3135,-2.3135,-2.3135,-2.3135,-2.3135,-2.3135,-2.3135,-2.3135,-2.3135,-2.3135,-2.3135,-2.3135,-2.3135,-2.3135,-2.3135,-2.3135,-2.3135,-2.3135,-2.3135,-2.3135,-2.3135,-2.3135,-2.3135,-2.3135,-2.3135,-2.3135,-2.2492,-2.1293,-2.1293,-2.0305,-1.8503,-1.7963,-1.7684,-1.7483,-1.6936,-1.6669,-1.6669,-1.6669,-1.6386,-1.5832,-1.5832,-1.5832,-1.5832,-3.9884,-3.9986,-4.007,-4.007,-4.007,-4.007,-4.007,-3.9441,-3.8904,-3.8904,-3.8137,-3.7625,-3.7625,-3.6916,-3.5997,-3.482,-3.4091,-3.3653,-3.3653,-3.3546,-3.3499,-3.3499,-3.3499,-3.344,-3.3335,-3.332,-3.338,-3.3499,-3.3499,-3.3499,-3.3499,-3.3499,-3.3084,-3.2376,-3.2717,-3.1982,-3.0334,-3.0752,-3.0336,-2.9515,-2.9603,-2.9641,-2.9654,-2.9754,-2.9792,-2.9792,-2.9792,-2.9792,-2.9792,-2.9792,-2.9792,-2.9792,-2.9792,-2.9792,-2.9624,-2.8688,-2.8426,-2.8187,-2.7302,-2.7058,-2.7058,-2.7058,-2.7058,-2.7058,-2.7058,-2.6047,-2.5126,-2.5126,-2.4211,-2.3387,-2.3387,-2.3222,-2.3135,-2.3135,-2.3135,-2.3135,-2.3135,-2.3135,-2.3135,-2.3135,-2.3135,-2.3135,-2.3135,-2.3135,-2.3135,-2.3135,-2.3135,-2.3135,-2.3135,-2.3135,-2.3135,-2.3135,-2.3135,-2.3135,-2.3135,-2.3135,-2.3135,-2.3135,-2.3135,-2.2589,-2.1569,-2.1569,-2.0935,-1.9761,-1.8772,-1.8772,-1.9405,-1.8234,-1.7692,-1.7692,-1.7505,-1.6763,-1.5832,-1.5832,-1.5832,-1.5832,-3.914,-3.9648,-4.007,-4.007,-4.007,-4.007,-4.007,-3.9479,-3.8975,-3.8975,-3.7733,-3.6839,-3.6839,-3.62,-3.5633,-3.5482,-3.4805,-3.4337,-3.4337,-3.3819,-3.3499,-3.3499,-3.3499,-3.323,-3.2662,-3.2647,-3.2931,-3.3499,-3.3499,-3.3499,-3.3499,-3.3499,-3.3423,-3.33,-3.2576,-3.1669,-3.0651,-2.9931,-2.9158,-2.8373,-2.885,-2.9051,-2.9101,-2.9603,-2.9792,-2.9792,-2.9792,-2.9792,-2.9792,-2.9792,-2.9792,-2.9792,-2.9792,-2.9792,-2.9792,-2.9624,-2.9534,-2.9534,-2.9378,-2.9378,-2.9378,-2.9378,-2.9378,-2.9378,-2.9378,-2.7718,-2.6307,-2.6307,-2.5378,-2.4542,-2.4542,-2.38,-2.3135,-2.3135,-2.3135,-2.3135,-2.3135,-2.3135,-2.3135,-2.3135,-2.3135,-2.3135,-2.3135,-2.3135,-2.3135,-2.3135,-2.3135,-2.3135,-2.3135,-2.3135,-2.3135,-2.3135,-2.3135,-2.3135,-2.3135,-2.3135,-2.3135,-2.3135,-2.3135,-2.3047,-2.2862,-2.2862,-2.2217,-2.1025,-2.0845,-2.0305,-1.9405,-1.8234,-1.7692,-1.7598,-1.648,-1.592,-1.5832,-1.5832,-1.5832,-1.5832,-3.8396,-3.865,-3.887,-3.887,-3.887,-3.887,-3.887,-3.8582,-3.8396,-3.8396,-3.7816,-3.7385,-3.7385,-3.6319,-3.5489,-3.5064,-3.4413,-3.3811,-3.3454,-3.3146,-3.2831,-3.2392,-3.2392,-3.2258,-3.1973,-3.1958,-3.2108,-3.2392,-3.2392,-3.2392,-3.2392,-3.2392,-3.2392,-3.2348,-3.2328,-3.1826,-3.0983,-3.0926,-3.0132,-2.8879,-2.9052,-2.8877,-2.8524,-2.9101,-2.9315,-2.9352,-2.9679,-2.9792,-2.9792,-2.9792,-2.9792,-2.9792,-2.9792,-2.9792,-2.9792,-2.9792,-2.9792,-2.9792,-2.9792,-2.9792,-2.9792,-2.9792,-2.9792,-2.9792,-2.9792,-2.904,-2.8131,-2.7533,-2.6036,-2.4787,-2.4787,-2.3887,-2.3135,-2.3135,-2.3135,-2.3135,-2.3135,-2.3135,-2.3135,-2.3135,-2.3135,-2.3135,-2.3135,-2.3135,-2.3135,-2.3135,-2.3135,-2.3135,-2.3135,-2.3135,-2.3135,-2.3135,-2.3135,-2.3135,-2.3135,-2.3135,-2.3135,-2.3135,-2.3135,-2.3135,-2.3135,-2.3135,-2.2775,-2.2306,-2.1569,-2.1391,-2.14,-2.0223,-1.9314,-1.868,-1.8848,-1.8025,-1.6763,-1.6015,-1.5832,-1.5832]},{"header":{"parameterUnit":"m.s-1","parameterCategory":1,"la1":30.6,"la2":28.766,"lo1":-90.7593,"lo2":-88.6598,"dy":0.0162,"dx":0.0183,"nx":116,"ny":114,"refTime":"2023-07-13T06:00:00:Z","depth":0,"parameterNumber":3,"parameterNumberName":"V-component_of_WINDS"},"data":[0.0,0.0,0.0,0.0,0.0,0.0,0.0,0.0,0.0,0.0,0.0,0.0,0.0,0.0,0.0,0.0,0.0,0.0,0.0,0.0,0.0,0.0,0.0,0.0,0.0,0.0,0.0,0.0,0.0,0.0,0.0,0.0,0.0,0.0,0.0,0.0,0.0,0.0,0.0,0.0,0.0,0.0,0.0,0.0,0.0,0.0,0.0,0.0,0.0,0.0,0.0,0.0,0.0,0.0,0.0,0.0,0.0,0.0,0.0,0.0,0.0,0.0,0.0,0.0,0.0,0.0,0.0,0.0,0.0,0.0,0.0,0.0,0.0,0.0,0.0,0.0,0.0,0.0,0.0,0.0,0.0,0.0,0.0,0.0,0.0,0.0,0.0,0.0,0.0,0.0,0.0,0.0,0.0,0.0,0.0,0.0,0.0,0.0,0.0,0.0,0.0,0.0,0.0,0.0,0.0,0.0,0.0,0.0,0.0,0.0,0.0,0.0,0.0,0.0,0.0,0.0,0.0,0.0,0.0,0.0,0.0,0.0,0.0,0.0,0.0,0.0,0.0,0.0,0.0,0.0,0.0,0.0,0.0,0.0,0.0,0.0,0.0,0.0,0.0,0.0,0.0,0.0,0.0,0.0,0.0,0.0,0.0,0.0,0.0,0.0,0.0,0.0,0.0,0.0,0.0,0.0,0.0,0.0,0.0,0.0,0.0,0.0,0.0,0.0,0.0,0.0,0.0,0.0,0.0,0.0,0.0,0.0,0.0,0.0,0.0,0.0,0.0,0.0,0.0,0.0,0.0,0.0,0.0,0.0,0.0,0.0,0.0,0.0,0.0,0.0,0.0,0.0,0.0,0.0,0.0,0.0,0.0,0.0,0.0,0.0,0.0,0.0,0.0,0.0,0.0,0.0,0.0,0.0,0.0,0.0,0.0,0.0,0.0,0.0,0.0,0.0,0.0,0.0,0.0,0.0,0.0,0.0,0.0,0.0,0.0,0.0,0.0,0.0,0.0,0.0,0.0,0.0,0.0,0.0,0.0,0.0,0.0,0.0,0.0,0.0,0.0,0.0,0.0,0.0,0.0,0.0,0.0,0.0,0.0,0.0,0.0,0.0,0.0,0.0,0.0,0.0,0.0,0.0,0.0,0.0,0.0,0.0,0.0,0.0,0.0,0.0,0.0,0.0,0.0,0.0,0.0,0.0,0.0,0.0,0.0,0.0,0.0,0.0,0.0,0.0,0.0,0.0,0.0,0.0,0.0,0.0,0.0,0.0,0.0,0.0,0.0,0.0,0.0,0.0,0.0,0.0,0.0,0.0,0.0,0.0,0.0,0.0,0.0,0.0,0.0,0.0,0.0,0.0,0.0,0.0,0.0,0.0,0.0,0.0,0.0,0.0,0.0,0.0,0.0,0.0,0.0,0.0,0.0,0.0,0.0,0.0,0.0,0.0,0.0,0.0,0.0,0.0,0.0,0.0,0.0,0.0,0.0,0.0,0.0,0.0,0.0,0.0,0.0,0.0,0.0,0.0,0.0,0.0,0.0,0.0,0.0,0.0,0.0,0.0,0.0,0.0,0.0,0.0,0.0,0.0,0.0,0.0,0.0,0.0,0.0,0.0,0.0,0.0,0.0,0.0,0.0,0.0,0.0,0.0,0.0,0.0,0.0,0.0,0.0,0.0,0.0,0.0,0.0,0.0,0.0,0.0,0.0,0.0,0.0,0.0,0.0,0.0,0.0,0.0,0.0,0.0,0.0,0.0,0.0,0.0,0.0,0.0,0.0,0.0,0.0,0.0,0.0,0.0,0.0,0.0,0.0,0.0,0.0,0.0,0.0,0.0,0.0,0.0,0.0,0.0,0.0,0.0,0.0,0.0,0.0,0.0,0.0,0.0,0.0,0.0,0.0,0.0,0.0,0.0,0.0,0.0,0.0,0.0,0.0,0.0,0.0,0.0,0.0,0.0,0.0,0.0,0.0,0.0,0.0,0.0,0.0,0.0,0.0,0.0,0.0,0.0,0.0,0.0,0.0,0.0,0.0,0.0,0.0,0.0,0.0,0.0,0.0,0.0,0.0,0.0,0.0,0.0,0.0,0.0,0.0,0.0,0.0,0.0,0.0,0.0,0.0,0.0,0.0,0.0,0.0,0.0,0.0,0.0,0.0,0.0,0.0,0.0,0.0,0.0,0.0,0.0,0.0,0.0,0.0,0.0,0.0,0.0,0.0,0.0,0.0,0.0,0.0,0.0,0.0,0.0,0.0,0.0,0.0,0.0,0.0,0.0,0.0,0.0,0.0,0.0,0.0,0.0,0.0,0.0,0.0,0.0,0.0,0.0,0.0,0.0,0.0,0.0,0.0,0.0,0.0,0.0,0.0,0.0,0.0,0.0,0.0,0.0,0.0,0.0,0.0,0.0,0.0,0.0,0.0,0.0,0.0,0.0,0.0,0.0,0.0,0.0,0.0,0.0,0.0,0.0,0.0,0.0,0.0,0.0,0.0,0.0,0.0,0.0,0.0,0.0,0.0,0.0,0.0,0.0,0.0,0.0,0.0,0.0,0.0,0.0,0.0,0.0,0.0,0.0,0.0,0.0,0.0,0.0,0.0,0.0,0.0,0.0,0.0,0.0,0.0,0.0,0.0,0.0,0.0,0.0,0.0,0.0,0.0,0.0,0.0,0.0,0.0,0.0,0.0,0.0,0.0,0.0,0.0,0.0,0.0,0.0,0.0,0.0,0.0,0.0,0.0,0.0,0.0,0.0,0.0,0.0,0.0,0.0,0.0,0.0,0.0,0.0,0.0,0.0,0.0,0.0,0.0,0.0,0.0,0.0,0.0,0.0,0.0,0.0,0.0,0.0,0.0,0.0,0.0,0.0,0.0,0.0,0.0,0.0,0.0,0.0,0.0,0.0,0.0,0.0,0.0,0.0,0.0,0.0,0.0,0.0,0.0,0.0,0.0,0.0,0.0,0.0,0.0,0.0,0.0,0.0,0.0,0.0,0.0,0.0,0.0,0.0,0.0,0.0,0.0,0.0,0.0,0.0,0.0,0.0,0.0,0.0,0.0,0.0,0.0,0.0,0.0,0.0,0.0,0.0,0.0,0.0,0.0,0.0,0.0,0.0,0.0,0.0,0.0,0.0,0.0,0.0,0.0,0.0,0.0,0.0,0.0,0.0,0.0,0.0,0.0,0.0,0.0,0.0,0.0,0.0,0.0,0.0,0.0,0.0,0.0,0.0,0.0,0.0,0.0,0.0,0.0,0.0,0.0,0.0,0.0,0.0,0.0,0.0,0.0,0.0,0.0,0.0,0.0,0.0,0.0,0.0,0.0,0.0,0.0,0.0,0.0,0.0,0.0,0.0,0.0,0.0,0.0,0.0,0.0,0.0,0.0,0.0,0.0,0.0,0.0,0.0,0.0,0.0,0.0,0.0,0.0,0.0,0.0,0.0,0.0,0.0,0.0,0.0,0.0,0.0,0.0,0.0,0.0,0.0,0.0,0.0,0.0,0.0,0.0,0.0,0.0,0.0,0.0,0.0,0.0,0.0,0.0,0.0,0.0,0.0,0.0,0.0,0.0,0.0,0.0,0.0,0.0,0.0,0.0,0.0,0.0,0.0,0.0,0.0,0.0,0.0,0.0,0.0,0.0,0.0,0.0,0.0,0.0,0.0,0.0,0.0,0.0,0.0,0.0,0.0,0.0,0.0,0.0,0.0,0.0,0.0,0.0,0.0,0.0,0.0,0.0,0.0,0.0,0.0,0.0,0.0,0.0,0.0,0.0,0.0,0.0,0.0,0.0,0.0,0.0,0.0,0.0,0.0,0.0,0.0,0.0,0.0,0.0,0.0,0.0,0.0,0.0,0.0,0.0,0.0,0.0,0.0,0.0,0.0,0.0,0.0,0.0,0.0,0.0,0.0,0.0,0.0,0.0,0.0,0.0,0.0,0.0,0.0,0.0,0.0,0.0,0.0,0.0,0.0,0.0,0.0,0.0,0.0,0.0,0.0,0.0,0.0,0.0,0.0,0.0,0.0,0.0,0.0,0.0,0.0,0.0,0.0,0.0,0.0,0.0,0.0,0.0,0.0,0.0,0.0,0.0,0.0,0.0,0.0,0.0,0.0,0.0,0.0,0.0,0.0,0.0,0.0,0.0,0.0,0.0,0.0,0.0,0.0,0.0,0.0,0.0,0.0,0.0,0.0,0.0,0.0,0.0,0.0,0.0,0.0,0.0,0.0,0.0,0.0,0.0,0.0,0.0,0.0,0.0,0.0,0.0,0.0,0.0,0.0,0.0,0.0,0.0,0.0,0.0,0.0,0.0,0.0,0.0,0.0,0.0,0.0,0.0,0.0,0.0,0.0,0.0,0.0,0.0,0.0,0.0,0.0,0.0,0.0,0.0,0.0,0.0,0.0,0.0,0.0,0.0,0.0,0.0,0.0,0.0,0.0,0.0,0.0,0.0,0.0,0.0,0.0,0.0,0.0,0.0,0.0,0.0,0.0,0.0,0.0,0.0,0.0,0.0,0.0,0.0,0.0,0.0,0.0,0.0,0.0,0.0,0.0,0.0,0.0,0.0,0.0,0.0,0.0,0.0,0.0,0.0,0.0,0.0,0.0,0.0,0.0,0.0,0.0,0.0,0.0,0.0,0.0,0.0,0.0,0.0,0.0,0.0,0.0,0.0,0.0,0.0,0.0,0.0,0.0,0.0,0.0,0.0,0.0,0.0,0.0,0.0,0.0,0.0,0.0,0.0,0.0,0.0,0.0,0.0,0.0,0.0,0.0,0.0,0.0,0.0,0.0,0.0,0.0,0.0,0.0,0.0,0.0,0.0,0.0,0.0,0.0,0.0,0.0,0.0,0.0,0.0,0.0,0.0,0.0,0.0,0.0,0.0,0.0,0.0,0.0,0.0,0.0,0.0,0.0,0.0,0.0,0.0,0.0,0.0,0.0,0.0,0.0,0.0,0.0,0.0,0.0,0.0,0.0,0.0,0.0,0.0,0.0,0.0,0.0,0.0,0.0,0.0,0.0,0.0,0.0,0.0,0.0,0.0,0.0,0.0,0.0,0.0,0.0,0.0,0.0,0.0,0.0,0.0,0.0,0.0,0.0,0.0,0.0,0.0,0.0,0.0,0.0,0.0,0.0,0.0,0.0,0.0,0.0,0.0,0.0,0.0,0.0,0.0,0.0,0.0,0.0,0.0,0.0,0.0,0.0,0.0,0.0,0.0,0.0,0.0,0.0,0.0,0.0,0.0,0.0,0.0,0.0,0.0,0.0,0.0,0.0,0.0,0.0,0.0,0.0,0.0,0.0,0.0,0.0,0.0,0.0,0.0,0.0,0.0,0.0,0.0,0.0,0.0,0.0,0.0,0.0,0.0,0.0,0.0,0.0,0.0,0.0,0.0,0.0,0.0,0.0,0.0,0.0,0.0,0.0,0.0,0.0,0.0,0.0,0.0,0.0,0.0,0.0,0.0,0.0,0.0,0.0,0.0,0.0,0.0,0.0,0.0,0.0,0.0,0.0,0.0,0.0,0.0,0.0,0.0,0.0,0.0,0.0,0.0,0.0,0.0,0.0,0.0,0.0,0.0,0.0,0.0,0.0,0.0,0.0,0.0,0.0,0.0,0.0,0.0,0.0,0.0,0.0,0.0,0.0,0.0,0.0,0.0,0.0,0.0,0.0,0.0,0.0,0.0,0.0,0.0,0.0,0.0,0.0,0.0,0.0,0.0,0.0,0.0,0.0,0.0,0.0,0.0,0.0,0.0,0.0,0.0,0.0,0.0,0.0,0.0,0.0,0.0,0.0,0.0,0.0,0.0,0.0,0.0,0.0,0.0,0.0,0.0,0.0,0.0,0.0,0.0,0.0,0.0,0.0,0.0,0.0,0.0,0.0,0.0,0.0,0.0,0.0,0.0,0.0,0.0,0.0,0.0,0.0,0.0,0.0,0.0,0.0,0.0,0.0,0.0,0.0,0.0,0.0,0.0,0.0,0.0,0.0,0.0,0.0,0.0,0.0,0.0,0.0,0.0,0.0,0.0,0.0,0.0,0.0,0.0,0.0,0.0,0.0,0.0,0.0,0.0,0.0,0.0,0.0,-2.8687,0.0,0.0,0.0,0.0,0.0,0.0,0.0,0.0,0.0,0.0,0.0,0.0,0.0,0.0,0.0,0.0,0.0,0.0,0.0,0.0,0.0,0.0,0.0,0.0,0.0,0.0,0.0,0.0,0.0,0.0,0.0,0.0,0.0,0.0,0.0,0.0,0.0,0.0,0.0,0.0,-1.198,-1.1466,-1.2681,-1.2948,-1.2425,0.0,0.0,0.0,0.0,0.0,0.0,0.0,0.0,0.0,0.0,0.0,0.0,0.0,0.0,0.0,0.0,0.0,0.0,0.0,0.0,0.0,0.0,0.0,0.0,0.0,0.0,0.0,0.0,0.0,0.0,0.0,0.0,0.0,0.0,0.0,0.0,0.0,0.0,0.0,0.0,0.0,0.0,0.0,0.0,0.0,0.0,0.0,0.0,0.0,0.0,0.0,0.0,0.0,0.0,0.0,0.0,0.0,0.0,0.0,0.0,0.0,0.0,0.0,0.0,0.0,0.0,0.0,0.0,0.0,0.0,0.0,-3.1245,0.0,0.0,0.0,0.0,0.0,0.0,0.0,0.0,0.0,0.0,0.0,0.0,0.0,0.0,0.0,0.0,0.0,0.0,0.0,0.0,0.0,0.0,0.0,0.0,0.0,0.0,0.0,0.0,0.0,0.0,0.0,0.0,0.0,0.0,0.0,0.0,0.0,0.0,-1.2857,-1.2328,-1.2328,-1.2328,-1.1809,-1.0956,0.0,0.0,0.0,0.0,0.0,0.0,0.0,0.0,0.0,0.0,0.0,0.0,0.0,0.0,0.0,0.0,0.0,0.0,0.0,0.0,0.0,0.0,0.0,0.0,0.0,0.0,0.0,0.0,0.0,0.0,0.0,0.0,0.0,0.0,0.0,0.0,0.0,0.0,0.0,0.0,0.0,0.0,0.0,0.0,0.0,0.0,0.0,0.0,0.0,0.0,0.0,0.0,0.0,0.0,0.0,0.0,0.0,0.0,0.0,0.0,0.0,0.0,0.0,0.0,0.0,0.0,-3.4296,-3.2458,-3.4054,-3.8216,-3.3845,-3.452,-3.8478,0.0,0.0,0.0,0.0,0.0,0.0,0.0,0.0,0.0,0.0,0.0,0.0,0.0,0.0,0.0,0.0,0.0,0.0,0.0,0.0,0.0,0.0,0.0,0.0,0.0,0.0,0.0,0.0,0.0,0.0,0.0,0.0,0.0,0.0,0.0,0.0,0.0,-1.2857,-1.2328,-1.2328,-1.2328,-1.2237,-1.2066,-1.2242,0.0,0.0,0.0,0.0,0.0,0.0,0.0,0.0,0.0,0.0,0.0,0.0,0.0,0.0,0.0,0.0,0.0,0.0,0.0,0.0,0.0,0.0,0.0,0.0,0.0,0.0,0.0,0.0,0.0,0.0,0.0,0.0,0.0,0.0,0.0,0.0,0.0,0.0,0.0,0.0,0.0,0.0,0.0,-3.5402,-3.5607,0.0,0.0,0.0,0.0,0.0,0.0,0.0,0.0,0.0,0.0,0.0,0.0,0.0,0.0,-3.6596,-3.7906,-3.8139,-3.7235,-3.8451,-3.9087,-3.9076,-3.8779,-3.9044,-3.9774,-4.0401,0.0,-3.9629,-4.0654,0.0,0.0,0.0,0.0,0.0,0.0,0.0,0.0,0.0,0.0,0.0,0.0,0.0,0.0,0.0,0.0,0.0,0.0,0.0,0.0,0.0,0.0,0.0,0.0,0.0,0.0,0.0,0.0,0.0,0.0,0.0,0.0,0.0,0.0,0.0,0.0,-1.3203,-1.2942,-1.2328,-1.2328,-1.2674,-1.3294,-1.2589,-1.2942,-1.4088,-1.4088,0.0,0.0,0.0,0.0,0.0,0.0,0.0,0.0,0.0,0.0,0.0,0.0,0.0,0.0,0.0,0.0,0.0,0.0,0.0,0.0,0.0,0.0,0.0,0.0,0.0,0.0,0.0,0.0,0.0,0.0,0.0,0.0,0.0,0.0,0.0,0.0,0.0,0.0,0.0,-3.5015,-3.5692,-3.5656,-3.7319,-3.8013,0.0,0.0,0.0,0.0,0.0,0.0,0.0,0.0,0.0,-3.975,-3.9445,-3.9246,-3.907,-4.0165,-4.0304,-3.9624,-4.0361,-4.0902,-4.1265,-4.1265,-4.1972,-4.3149,-4.3796,-4.3878,-4.3473,-4.3562,-4.3371,-4.3105,0.0,0.0,0.0,0.0,0.0,0.0,0.0,0.0,0.0,0.0,0.0,0.0,0.0,0.0,0.0,0.0,0.0,0.0,0.0,0.0,0.0,-1.7342,0.0,0.0,0.0,0.0,0.0,0.0,0.0,0.0,0.0,0.0,0.0,-1.2766,-1.3646,-1.3646,-1.2766,-1.2766,-1.3203,-1.4088,-1.3118,-1.3294,-1.4088,-1.4088,-1.4088,0.0,0.0,0.0,0.0,0.0,0.0,0.0,0.0,0.0,0.0,0.0,0.0,0.0,0.0,0.0,0.0,0.0,0.0,0.0,0.0,0.0,0.0,0.0,0.0,0.0,0.0,0.0,0.0,0.0,0.0,0.0,0.0,0.0,0.0,0.0,0.0,0.0,0.0,-3.5747,-3.6341,-3.6134,-3.8084,-3.8859,0.0,0.0,0.0,0.0,0.0,0.0,-3.9825,-3.9379,-3.9463,-4.0309,-4.0368,-4.0629,-4.1187,-4.18,-4.2039,-4.1754,-4.1754,-4.2136,-4.2907,-4.2907,-4.376,-4.5267,-4.5407,-4.5988,-4.6648,-4.5831,-4.5846,-4.6475,-4.6638,-4.668,0.0,-4.8024,-4.8972,-4.975,0.0,0.0,0.0,0.0,0.0,0.0,0.0,0.0,0.0,0.0,0.0,0.0,0.0,0.0,-1.7342,-1.7342,-1.7253,-1.6764,0.0,0.0,0.0,0.0,0.0,0.0,0.0,0.0,0.0,-1.3997,-1.4088,-1.4088,-1.3997,-1.3997,-1.3997,-1.4088,-1.3997,-1.3997,-1.4088,-1.4088,-1.4088,-1.4088,0.0,0.0,0.0,0.0,0.0,0.0,0.0,0.0,0.0,0.0,0.0,0.0,0.0,0.0,0.0,0.0,0.0,0.0,0.0,0.0,0.0,0.0,0.0,0.0,0.0,0.0,0.0,0.0,0.0,0.0,0.0,0.0,0.0,0.0,0.0,0.0,0.0,0.0,0.0,-3.7748,-3.9511,0.0,0.0,0.0,0.0,-3.8999,-3.9495,-4.0029,-4.0545,-4.0528,-4.0844,-4.1647,-4.1882,-4.1709,-4.1204,-4.1933,-4.2608,-4.3297,-4.3297,-4.3703,-4.4446,-4.4446,-4.4536,-4.4682,-4.5284,-4.6302,-4.7624,-4.7348,-4.6695,-4.5907,-4.7343,-4.7755,-4.7752,-4.959,-5.0996,-5.2083,0.0,0.0,0.0,0.0,0.0,0.0,0.0,0.0,0.0,0.0,0.0,0.0,0.0,-1.9432,-1.9116,-1.847,-1.7738,-1.6846,-1.5779,0.0,0.0,0.0,0.0,0.0,0.0,0.0,-1.4088,-1.4088,-1.3294,-1.2942,-1.2942,-1.2169,-1.2254,-1.2942,-1.2942,-1.3379,-1.4088,-1.4088,-1.4088,-1.4088,-1.4088,-1.5394,0.0,0.0,0.0,0.0,0.0,0.0,0.0,0.0,0.0,0.0,0.0,0.0,0.0,0.0,0.0,0.0,0.0,0.0,0.0,0.0,0.0,0.0,0.0,0.0,0.0,0.0,0.0,0.0,0.0,0.0,0.0,0.0,0.0,0.0,0.0,0.0,0.0,-3.8345,-3.985,0.0,0.0,-4.0976,-4.1637,-4.0643,-4.1556,-4.2333,-4.2668,-4.2282,-4.2296,-4.2678,-4.2784,-4.2755,-4.2625,-4.327,-4.3799,-4.4164,-4.4164,-4.4541,-4.5178,-4.5178,-4.5926,-4.7161,-4.74,-4.8326,-4.9713,-4.9609,-4.9648,-4.9839,-5.0654,-5.1072,-5.13,-5.2043,-5.259,-5.3003,0.0,0.0,0.0,0.0,0.0,0.0,0.0,0.0,0.0,0.0,0.0,-2.0566,-2.0566,-2.0566,-2.0323,-1.9599,-1.8868,-1.7819,-1.6355,0.0,0.0,0.0,0.0,0.0,0.0,-1.4088,-1.4088,-1.4088,-1.3294,-1.2942,-1.2857,-1.2163,-1.2169,-1.2942,-1.2942,-1.3379,-1.4088,-1.4088,-1.4088,-1.4088,-1.4088,-1.5144,-1.6764,0.0,0.0,0.0,0.0,0.0,0.0,0.0,0.0,0.0,0.0,0.0,0.0,0.0,0.0,0.0,0.0,0.0,0.0,0.0,0.0,0.0,0.0,0.0,0.0,0.0,0.0,0.0,0.0,0.0,0.0,0.0,0.0,0.0,0.0,0.0,-3.875,-3.84,-3.985,-4.0487,-3.9396,-4.122,-4.2207,-4.1433,-4.2821,-4.3764,-4.3906,-4.3525,-4.348,-4.3847,-4.3732,-4.3816,-4.4181,-4.4841,-4.5309,-4.5657,-4.5467,-4.5657,-4.6273,-4.6025,-4.6795,-4.8342,-4.8593,-4.9486,-5.0884,-5.1253,-5.197,-5.2817,-5.2504,-5.2919,-5.3645,-5.3741,-5.3972,-5.4285,0.0,0.0,0.0,0.0,0.0,0.0,0.0,0.0,0.0,0.0,-2.0566,-2.0566,-2.0566,-2.0566,-2.0566,-2.0557,-2.0557,-1.9599,-1.7415,-1.7253,0.0,0.0,0.0,0.0,-1.4088,-1.4088,-1.4088,-1.4088,-1.4095,-1.4102,-1.4102,-1.4024,-1.403,-1.403,-1.403,-1.4115,-1.4115,-1.4108,-1.4102,-1.4102,-1.4088,-1.4734,-1.5779,0.0,0.0,0.0,0.0,0.0,0.0,0.0,0.0,0.0,0.0,0.0,0.0,0.0,0.0,0.0,0.0,0.0,0.0,0.0,0.0,0.0,0.0,0.0,0.0,0.0,0.0,0.0,0.0,0.0,0.0,0.0,0.0,0.0,-3.7921,-3.8469,-3.869,-3.7978,-3.9699,-4.0446,-3.9139,-4.0916,-4.1943,-4.1324,-4.3032,-4.412,-4.4137,-4.4155,-4.4526,-4.524,-4.4905,-4.5049,-4.5737,-4.6447,-4.7141,-4.7763,-4.7084,-4.7182,-4.7817,-4.7124,-4.7238,-4.796,-4.862,-4.9734,-5.114,-5.2192,-5.3353,-5.4333,-5.2741,-5.3103,-5.453,-5.453,-5.5107,-5.5943,0.0,0.0,0.0,0.0,0.0,0.0,0.0,0.0,0.0,0.0,-2.0566,-2.0566,-2.0566,-2.0566,-2.0323,-1.952,-1.9441,-1.8461,-1.6273,0.0,0.0,0.0,0.0,0.0,-1.4088,-1.4088,-1.4088,-1.4088,-1.3496,-1.3144,-1.315,-1.2543,-1.2635,-1.3456,-1.3456,-1.3907,-1.471,-1.4496,-1.4402,-1.4382,-1.4168,-1.4734,-1.5703,0.0,0.0,0.0,0.0,0.0,0.0,0.0,0.0,0.0,0.0,0.0,0.0,0.0,0.0,0.0,0.0,0.0,0.0,0.0,0.0,0.0,0.0,0.0,0.0,0.0,0.0,0.0,0.0,0.0,0.0,0.0,0.0,-3.8854,-3.8635,-3.9262,-3.9851,-4.0051,-4.1071,-4.1752,-4.1806,-4.2818,-4.3401,-4.3261,-4.4226,-4.4912,-4.502,-4.6073,-4.6543,-4.6374,-4.6691,-4.6764,-4.6481,-4.6684,-4.6886,-4.7084,-4.6886,-4.7391,-4.8534,-4.8329,-4.9185,-5.085,-5.1046,-5.1693,-5.2633,-5.3234,-5.3877,-5.4478,-5.4306,-5.4702,-5.5376,-5.5376,-5.5588,-5.5923,0.0,0.0,0.0,0.0,0.0,0.0,0.0,0.0,0.0,0.0,-2.0566,-2.0566,-2.0566,-2.0566,-2.0323,-1.9678,-1.9283,-1.8221,-1.6519,0.0,0.0,0.0,0.0,-1.4088,-1.4088,-1.4088,-1.4148,-1.4269,-1.3722,-1.358,-1.3698,-1.3219,-1.3302,-1.3948,-1.3948,-1.4315,-1.495,-1.4776,-1.4703,-1.4689,-1.4522,-1.4716,-1.5054,-1.5538,-1.6355,-1.7423,-1.855,-1.9283,-1.9766,-2.0401,0.0,0.0,0.0,0.0,0.0,0.0,0.0,0.0,0.0,0.0,0.0,0.0,0.0,0.0,0.0,0.0,0.0,0.0,0.0,0.0,0.0,0.0,0.0,0.0,-3.8707,-3.9484,-3.9801,-4.0253,-4.0679,-4.0959,-4.1694,-4.2307,-4.2628,-4.3617,-4.4277,-4.4277,-4.5434,-4.6253,-4.6377,-4.7178,-4.7612,-4.7609,-4.774,-4.7814,-4.7716,-4.7716,-4.7861,-4.8121,-4.7878,-4.8277,-4.9276,-4.9276,-5.014,0.0,-5.1908,-5.2498,-5.3248,-5.3833,-5.4255,0.0,0.0,0.0,0.0,0.0,-5.578,-5.5939,0.0,0.0,0.0,0.0,0.0,0.0,0.0,0.0,0.0,0.0,0.0,-2.0566,-2.0566,-2.0566,-2.0566,-2.0566,-1.9599,-1.847,0.0,0.0,0.0,-1.4088,-1.4088,-1.4088,-1.4088,-1.4122,-1.4262,-1.4522,-1.4583,-1.4756,-1.5017,-1.505,-1.5064,-1.5064,-1.5064,-1.5064,-1.5057,-1.5023,-1.5017,-1.501,-1.4977,-1.4629,-1.4304,-1.5354,-1.6304,-1.7253,-1.855,-1.9599,-2.0401,-2.0566,0.0,0.0,0.0,0.0,0.0,0.0,0.0,0.0,0.0,0.0,0.0,0.0,0.0,0.0,0.0,0.0,0.0,0.0,0.0,0.0,0.0,0.0,0.0,0.0,-3.9235,-4.046,-4.1221,-4.1407,-4.1424,-4.1339,-4.2049,-4.2557,-4.2557,-4.3927,-4.4823,-4.4823,-4.6649,-4.7738,0.0,0.0,0.0,0.0,0.0,-4.8386,-4.8984,-4.9001,-4.9316,-4.9879,-4.9359,-4.9462,-5.0146,-5.0185,-5.0715,-5.1485,-5.2096,-5.2826,-5.3594,-5.4418,-5.4831,-5.4936,-5.5111,-5.5399,-5.5703,-5.5703,-5.578,0.0,0.0,0.0,0.0,0.0,0.0,0.0,0.0,0.0,0.0,-2.0566,-2.0566,-2.0566,-2.0566,-2.0566,-2.0566,-2.0566,-1.9599,-1.8141,0.0,0.0,-1.4088,-1.4088,-1.4088,-1.4088,-1.4088,-1.4315,-1.4462,-1.4522,-1.4997,-1.5257,-1.5317,-1.5551,-1.5665,-1.5665,-1.5665,-1.5665,-1.5645,-1.5411,-1.5311,-1.5291,-1.5057,-1.475,-1.4515,-1.5589,-1.6012,-1.6273,-1.831,-1.9116,-1.9441,-2.0323,-2.0566,-2.0848,-2.2268,0.0,0.0,0.0,0.0,0.0,0.0,0.0,0.0,0.0,0.0,0.0,0.0,0.0,0.0,0.0,0.0,0.0,0.0,0.0,0.0,-3.86,-3.9979,-4.1238,-4.1982,-4.2608,-4.276,-4.2151,-4.3301,-4.4147,-4.4147,-4.5483,-4.6363,-4.6363,-4.7293,-4.7844,-4.7844,-4.8965,0.0,-4.8991,-4.934,-4.9426,-4.9001,-4.9001,-4.9063,-4.9212,0.0,0.0,-5.0929,-5.1444,-5.2473,-5.378,-5.3888,-5.4607,-5.573,-5.6209,-5.689,-5.7445,-5.6092,-5.564,-5.5703,-5.5703,-5.5722,-5.5876,0.0,0.0,0.0,0.0,0.0,0.0,0.0,0.0,0.0,0.0,-2.0566,-2.0566,-2.0566,-2.0079,-1.9766,-1.9766,-1.8301,0.0,0.0,0.0,0.0,-1.4088,-1.4088,-1.4088,-1.4088,-1.4369,-1.4596,-1.4743,-1.5184,-1.5471,-1.5618,-1.5758,-1.5832,-1.5832,-1.5832,-1.5832,-1.5818,-1.5671,-1.5611,-1.5605,-1.5451,-1.5224,-1.5026,-1.6068,-1.6667,-1.7283,-1.895,-1.997,-2.0557,-2.106,-2.123,-2.142,-2.2181,-2.3402,-2.4878,0.0,0.0,0.0,0.0,0.0,0.0,0.0,0.0,0.0,0.0,0.0,0.0,0.0,0.0,-3.5619,0.0,0.0,-3.8605,-3.9381,-4.08,-4.2016,-4.276,-4.3521,-4.3859,-4.347,-4.4451,-4.5297,-4.5652,-4.6701,-4.7361,-4.7361,-4.8037,-4.846,-4.846,-4.9112,-4.9376,-4.9001,-4.9657,-4.9922,-4.9543,-4.9932,-5.0118,-5.0118,-5.0858,-5.1389,-5.1783,-5.2842,-5.3766,-5.4528,-5.5109,-5.5723,-5.6369,-5.6984,-5.7679,-5.8204,-5.7338,-5.6992,-5.6992,-5.6992,-5.6992,-5.7088,0.0,0.0,0.0,0.0,0.0,0.0,0.0,0.0,0.0,0.0,0.0,-2.0489,-2.0323,-1.952,-1.8798,0.0,0.0,0.0,0.0,0.0,0.0,0.0,-1.4088,-1.4088,-1.4088,-1.4429,-1.4723,-1.4963,-1.5311,-1.5598,-1.5832,-1.5832,-1.5832,-1.5832,-1.5832,-1.5832,-1.5832,-1.5832,-1.5832,-1.5832,-1.5832,-1.5779,-1.5906,-1.6974,-1.7747,-1.8587,-2.0036,-2.1089,-2.1885,-2.1885,-2.1885,-2.1977,-2.2541,-2.3811,-2.5318,-2.6291,-2.7735,0.0,0.0,0.0,0.0,0.0,0.0,0.0,0.0,0.0,-3.5504,-3.5504,-3.5609,-3.5864,-3.6474,-3.7975,-3.9382,-4.014,-4.1527,-4.2828,-4.3741,-4.4401,-4.4908,-4.5196,-4.5771,-4.6363,-4.6955,-4.7682,-4.8122,-4.8122,-4.8663,-4.9001,-4.9001,-4.9137,-4.9221,-4.9221,-4.9932,-5.0304,-5.0304,-5.0913,-5.1217,-5.1217,-5.1993,-5.2438,-5.2654,-5.3989,-5.4737,-5.5094,-5.6348,-5.6912,-5.6968,-5.787,-5.8451,-5.88,-5.88,-5.88,-5.8742,-5.8415,-5.83,-5.8357,0.0,0.0,0.0,0.0,0.0,0.0,0.0,0.0,0.0,0.0,0.0,0.0,0.0,0.0,0.0,0.0,0.0,0.0,0.0,0.0,0.0,0.0,-1.4088,-1.4088,-1.4088,-1.4629,-1.493,-1.4963,-1.5511,-1.5798,-1.5832,-1.5832,-1.5832,-1.5832,-1.5832,-1.5832,-1.5832,-1.5832,-1.5832,-1.5832,-1.5832,-1.6459,-1.7531,-1.876,-1.8888,-1.8673,-2.0922,-2.1792,-2.1885,-2.1885,-2.1885,-2.2347,-2.4638,-2.5494,-2.6223,-2.8626,0.0,-2.9704,-2.9779,-2.9869,-3.0216,-3.1106,-3.2033,-3.2961,0.0,0.0,-3.5504,-3.5504,-3.5968,-3.6439,-3.649,-3.8293,-4.0043,-4.0791,-4.2253,-4.3792,-4.5246,-4.5517,-4.6075,-4.7394,-4.7614,-4.7699,-4.7784,-4.8443,-4.8883,-4.8883,-4.8951,-4.9001,-4.9001,-4.961,-4.9965,-4.9965,-5.0693,-5.1099,-5.1099,-5.1166,-5.1217,-5.1217,-5.1949,-5.2654,-5.3296,-5.4143,-5.5257,-5.663,-5.8314,-5.9055,-5.9125,-6.0051,-6.0469,-6.0512,-6.0512,-6.0512,-6.0339,-5.8858,-5.83,-5.8454,0.0,0.0,0.0,0.0,0.0,0.0,0.0,0.0,0.0,0.0,0.0,0.0,0.0,0.0,0.0,0.0,0.0,0.0,0.0,0.0,0.0,0.0,-1.4088,-1.4088,-1.4088,-1.4496,-1.479,-1.4963,-1.5378,-1.5665,-1.5832,-1.5832,-1.5832,-1.5832,-1.5832,-1.5832,-1.5832,-1.5832,-1.5832,-1.5832,-1.5832,-1.6574,-1.787,-1.9039,-1.9749,-2.0281,-2.1978,-2.2617,0.0,0.0,-2.2617,-2.2808,-2.3883,-2.5171,-2.6447,-2.7567,-2.8791,0.0,-2.9792,-2.9792,0.0,0.0,-3.1888,-3.289,-3.3808,-3.4758,-3.5609,-3.5998,-3.6297,-3.6715,-3.7593,-3.8865,-4.0214,0.0,-4.2954,-4.4374,-4.5544,-4.6447,-4.7225,-4.7851,-4.8291,-4.8545,-4.8545,-4.8832,-4.9001,-4.9001,-4.9001,-4.9187,-4.961,-4.9915,-5.0287,-5.0727,-5.1471,-5.1843,-5.1843,-5.2317,-5.2553,-5.2553,-5.3255,-5.4022,-5.475,-5.5558,-5.6605,-5.7979,-5.8971,-5.9559,-5.9855,-6.0527,-6.08,-6.08,-6.08,-6.08,-6.0723,-6.0012,-5.98,-5.9935,0.0,0.0,0.0,0.0,0.0,0.0,0.0,0.0,0.0,0.0,0.0,0.0,0.0,0.0,0.0,0.0,0.0,0.0,0.0,0.0,0.0,0.0,-1.4088,0.0,-1.4088,-1.4369,-1.4629,-1.4843,-1.5217,-1.5504,-1.5712,-1.5792,-1.5832,-1.5832,-1.5832,-1.5832,-1.5832,-1.5832,-1.5832,-1.5832,-1.5832,-1.6756,-1.8319,-1.9131,-2.0486,-2.1933,-2.2775,-2.3135,0.0,0.0,-2.3135,-2.3222,-2.381,-2.5147,-2.6648,-2.7221,-2.8542,-2.9792,-2.9792,0.0,0.0,-3.097,-3.1669,-3.2577,-3.3954,-3.4873,-3.5659,-3.6529,-3.6896,-3.7338,-3.8366,-3.9313,0.0,-4.1604,-4.303,-4.4364,-4.5496,-4.6697,-4.7586,-4.7771,-4.854,-4.8798,-4.8289,-4.8719,-4.8861,-4.8639,-4.9046,-4.94,-4.9715,-5.0345,-5.0947,-5.1505,-5.2249,-5.2638,-5.2638,-5.3213,-5.3501,-5.3501,-5.4264,-5.4982,-5.5706,-5.6755,-5.7682,-5.8568,-5.9158,-5.9592,-5.9946,-6.0553,-6.08,-6.08,-6.08,-6.08,-6.08,-6.0839,-6.0916,-6.0993,0.0,0.0,0.0,0.0,0.0,0.0,0.0,0.0,0.0,0.0,0.0,0.0,0.0,0.0,0.0,0.0,0.0,0.0,0.0,0.0,0.0,0.0,-1.4088,-1.4088,-1.4088,-1.4369,-1.4522,-1.4536,-1.511,-1.5398,-1.5418,-1.5698,-1.5832,-1.5832,-1.5832,-1.5832,-1.5832,-1.5832,-1.5832,-1.5832,-1.5832,-1.7296,-1.9405,-1.9497,-2.0953,-2.3047,-2.3057,0.0,0.0,-2.3135,-2.3135,-2.3474,-2.5724,-2.6472,0.0,-2.9052,-2.9714,-2.9792,0.0,0.0,-2.9998,-3.097,-3.1254,-3.1904,-3.4426,-3.5004,-3.5485,-3.702,-3.7883,-3.8347,-3.8432,-3.9612,-4.0727,-4.0727,-4.2047,-4.3605,-4.5283,-4.6104,-4.6798,-4.7539,-4.8416,-4.8289,0.0,-4.7933,-4.8639,-4.7721,-4.915,-4.9715,-4.876,-5.0944,-5.2249,-5.2266,-5.3061,-5.3467,-5.3467,-5.3501,-5.3501,-5.3501,-5.4264,-5.4982,-5.5762,-5.7247,-5.7997,-5.807,-5.9009,-5.9389,-5.9492,-6.0411,-6.08,-6.08,-6.08,-6.08,-6.0819,-6.0935,-6.0993,-6.1031,0.0,0.0,0.0,0.0,0.0,0.0,0.0,0.0,0.0,0.0,0.0,0.0,0.0,0.0,0.0,0.0,0.0,0.0,0.0,0.0,0.0,0.0,-1.4088,-1.4088,-1.4088,-1.4182,-1.4329,-1.4522,-1.4716,-1.4917,-1.5117,-1.5404,-1.5538,-1.5551,-1.5745,-1.5832,-1.5832,-1.5832,-1.5832,-1.5832,-1.5832,-1.7296,-1.9497,-1.9497,-2.1042,-2.3135,0.0,0.0,-2.3135,-2.3135,-2.3637,-2.4372,-2.5126,-2.6367,-2.7867,-2.9378,-2.9792,-2.9792,-2.9792,0.0,-2.9998,-3.097,-3.1457,-3.2088,-3.3595,-3.394,-3.4181,-3.5178,-3.6144,-3.6965,-3.7404,-3.8758,-4.006,-4.0622,-4.1913,-4.3279,-4.4395,-4.5578,-4.6403,-4.6645,-4.6952,0.0,0.0,0.0,0.0,-4.8281,-4.8256,-4.8744,-5.0043,-5.085,-5.1555,-5.2054,-5.2976,-5.3501,-5.3501,-5.3501,-5.3501,-5.3501,-5.4713,-5.5477,-5.5762,-5.7315,-5.7997,-5.807,-5.8971,-5.9389,-5.9458,-6.0411,-6.08,-6.08,-6.08,-6.08,-6.0819,-6.1112,-6.1215,-6.1239,0.0,0.0,0.0,0.0,0.0,0.0,0.0,0.0,0.0,0.0,0.0,0.0,0.0,0.0,0.0,0.0,0.0,0.0,0.0,0.0,0.0,0.0,-1.4088,-1.4088,-1.4088,-1.4088,-1.4175,-1.4362,-1.4469,-1.4616,-1.481,-1.5104,-1.5244,-1.5251,-1.5438,-1.5518,-1.5524,-1.5631,-1.5618,-1.5531,-1.5631,-1.7128,-1.9397,-1.9397,-2.0918,0.0,0.0,0.0,-2.3135,-2.3135,-2.3551,-2.4296,-2.5126,-2.6953,-2.8767,-2.9106,-2.9456,-2.9702,-2.9275,-2.9592,-3.0224,-3.0854,-3.1422,-3.2058,-3.3028,-3.3254,-3.3499,-3.4333,-3.5305,-3.6115,-3.6533,-3.7986,-3.9092,-3.9269,-4.0444,-4.1748,-4.2864,-4.4078,-4.4966,-4.5658,-4.5977,0.0,0.0,0.0,0.0,-4.7555,-4.763,-4.8198,-4.9634,-5.0327,-5.105,-5.1905,-5.2557,-5.311,-5.3518,-5.3501,-5.3783,-5.4281,-5.5279,-5.6004,-5.6562,-5.7546,-5.7997,-5.807,-5.8971,-5.9389,-5.9458,-6.0411,-6.08,-6.08,-6.08,-6.08,-6.0839,-6.1189,-6.1291,-6.1336,0.0,0.0,0.0,0.0,0.0,0.0,0.0,0.0,0.0,0.0,0.0,0.0,0.0,0.0,0.0,0.0,0.0,0.0,0.0,0.0,0.0,-1.4088,-1.4088,-1.4088,-1.4088,-1.4088,-1.4088,-1.4088,-1.4362,-1.4496,-1.4502,-1.4803,-1.4943,-1.4943,-1.4957,-1.4963,-1.4983,-1.5257,-1.5217,-1.499,-1.5264,-1.6889,-1.9024,-1.9024,0.0,0.0,0.0,0.0,0.0,-2.3135,0.0,0.0,-2.5808,-2.7971,-2.9456,-2.8347,-2.8858,-2.9456,-2.8462,-2.9352,-3.062,-3.0645,-3.1022,-3.1699,-3.2712,-3.2922,-3.3207,-3.4176,-3.5204,-3.5856,0.0,0.0,-3.8035,-3.707,-3.7976,-3.9372,-4.0995,-4.1806,-4.2818,0.0,0.0,0.0,0.0,0.0,0.0,-4.5712,0.0,-4.8127,-4.7898,-4.941,-5.0779,-5.176,-5.1849,-5.24,-5.3501,-5.3501,-5.4235,-5.561,-5.5649,-5.6456,-5.7886,-5.7932,-5.7997,-5.807,-5.8971,-5.9389,-5.9458,-6.0411,-6.08,-6.08,-6.08,-6.08,-6.0839,-6.1189,-6.1291,-6.1353,0.0,0.0,0.0,0.0,0.0,0.0,0.0,0.0,0.0,0.0,0.0,0.0,0.0,0.0,0.0,0.0,0.0,0.0,0.0,0.0,0.0,0.0,0.0,0.0,0.0,0.0,0.0,0.0,0.0,-1.4202,-1.4202,-1.4496,-1.4636,-1.4643,-1.4863,-1.4963,-1.497,-1.5044,-1.503,-1.497,0.0,-1.6469,-1.8556,-1.8556,0.0,0.0,0.0,0.0,0.0,0.0,0.0,0.0,0.0,-2.6894,-2.7302,-2.6964,-2.7695,-2.8602,-2.8652,-2.9633,-3.0708,-3.1097,-3.1298,-3.1468,-3.1779,-3.1474,-3.1274,-3.1564,-3.3009,-3.4251,0.0,0.0,0.0,-3.7934,-3.872,0.0,-4.1145,-4.194,0.0,-4.3539,0.0,-4.4031,-4.4003,-4.4439,0.0,0.0,-4.6568,-4.7344,-4.8449,-4.8976,-4.9679,-5.0779,-5.1541,-5.24,-5.3501,-5.3501,-5.3668,-5.4059,-5.5161,-5.5893,-5.6349,-5.748,-5.7997,-5.807,-5.8971,-5.9389,-5.9458,-6.0411,-6.08,-6.08,-6.08,-6.08,-6.0839,-6.1189,-6.1291,-6.1353,0.0,0.0,0.0,0.0,0.0,0.0,0.0,0.0,0.0,0.0,0.0,0.0,0.0,0.0,0.0,0.0,0.0,0.0,0.0,0.0,0.0,0.0,0.0,0.0,0.0,0.0,0.0,0.0,0.0,0.0,-1.4088,-1.4255,-1.4329,-1.4335,-1.4509,-1.4583,-1.4589,-1.4716,0.0,0.0,0.0,0.0,-1.8269,0.0,0.0,0.0,0.0,0.0,0.0,0.0,0.0,-2.4872,-2.5546,-2.6141,-2.6389,-2.5891,0.0,-2.7962,-2.7474,-2.9141,-3.091,-3.0925,-3.1394,-3.1687,-3.1449,-3.0984,-3.0612,-3.079,-3.2104,0.0,0.0,0.0,0.0,0.0,0.0,0.0,-4.0492,-4.1022,-4.177,0.0,-4.3584,0.0,-4.4272,-4.484,-4.5514,0.0,-4.6322,-4.6831,-4.8111,-4.8141,-4.861,-4.9694,-5.0687,-5.1938,-5.3501,-5.3501,-5.3668,-5.3994,-5.5161,-5.5893,-5.6259,-5.7431,-5.7997,-5.807,0.0,-5.9389,-5.9458,-6.0411,-6.08,-6.08,-6.08,-6.08,-6.0819,-6.1093,-6.1214,-6.1334,0.0,0.0,0.0,0.0,0.0,0.0,0.0,0.0,0.0,0.0,0.0,0.0,0.0,0.0,0.0,0.0,0.0,0.0,0.0,0.0,0.0,0.0,0.0,0.0,0.0,0.0,0.0,0.0,0.0,0.0,0.0,0.0,0.0,0.0,0.0,0.0,0.0,0.0,0.0,0.0,0.0,0.0,0.0,0.0,0.0,0.0,0.0,0.0,0.0,0.0,-2.38,-2.4542,-2.4542,-2.521,-2.5891,-2.4872,-2.6025,-2.7313,-2.5872,-2.8191,-3.0827,-3.0491,-3.1089,-3.1785,-3.1411,-3.0952,-3.0802,-3.1149,0.0,-3.3031,-3.3876,0.0,-3.6117,-3.6025,0.0,-3.7471,-3.9561,-3.9987,-4.0856,-4.3006,-4.3913,-4.4347,-4.4436,-4.5589,-4.6367,-4.6456,-4.6456,-4.6711,-4.7279,-4.7309,-4.7849,-4.8988,-5.0165,-5.1647,-5.3501,-5.3501,-5.3881,-5.4589,-5.5379,-5.6132,-5.6912,-5.766,-5.7997,-5.807,0.0,0.0,-5.9458,-6.0411,-6.08,-6.08,-6.08,-6.08,-6.0819,-6.0935,-6.1138,-6.1316,0.0,0.0,0.0,0.0,0.0,0.0,0.0,0.0,0.0,0.0,0.0,0.0,0.0,0.0,0.0,0.0,0.0,0.0,0.0,0.0,0.0,0.0,0.0,0.0,0.0,0.0,0.0,0.0,0.0,0.0,0.0,0.0,0.0,0.0,0.0,0.0,0.0,0.0,0.0,0.0,0.0,0.0,0.0,0.0,0.0,0.0,0.0,0.0,0.0,0.0,-2.3222,-2.3387,-2.3387,-2.3551,-2.3637,-2.3464,-2.4296,-2.5476,-2.6003,-2.7338,-2.8821,-3.0048,-3.0203,-3.0181,-3.0617,-3.0881,0.0,0.0,0.0,-3.3808,-3.3959,-3.4264,0.0,-3.617,0.0,0.0,0.0,0.0,-4.1694,0.0,0.0,0.0,0.0,0.0,0.0,0.0,0.0,0.0,-4.7294,-4.7309,-4.8157,-5.0087,-5.1954,-5.3127,-5.3501,-5.3501,-5.3881,-5.4589,-5.5379,-5.6132,-5.6912,-5.766,-5.7997,-5.807,0.0,0.0,-5.9458,-6.0411,-6.08,-6.08,-6.08,-6.08,-6.0819,-6.0935,-6.1119,-6.1312,0.0,0.0,0.0,0.0,0.0,0.0,0.0,0.0,0.0,0.0,-2.0566,-2.0566,0.0,0.0,0.0,0.0,0.0,0.0,0.0,0.0,0.0,0.0,0.0,0.0,0.0,0.0,0.0,0.0,0.0,0.0,0.0,0.0,0.0,0.0,0.0,0.0,0.0,0.0,0.0,0.0,0.0,0.0,0.0,0.0,0.0,0.0,0.0,0.0,0.0,0.0,-2.3135,-2.3135,-2.3135,-2.3135,-2.3135,-2.3135,-2.3877,-2.4911,-2.5227,-2.6437,-2.791,-2.9183,-2.932,-2.945,-3.0418,0.0,0.0,0.0,-3.2321,-3.3449,-3.3876,0.0,0.0,0.0,0.0,0.0,0.0,0.0,0.0,0.0,0.0,0.0,0.0,0.0,0.0,0.0,0.0,0.0,0.0,-4.7764,-4.8759,-5.032,-5.1865,-5.2956,-5.3501,-5.3501,-5.3881,-5.4589,-5.5379,-5.6132,-5.6912,-5.766,-5.8142,-5.8418,0.0,0.0,-5.9823,-6.0508,-6.08,-6.08,-6.08,-6.08,-6.08,-6.0858,-6.105,-6.1302,0.0,0.0,0.0,0.0,0.0,0.0,0.0,-2.0566,-2.0566,-2.0566,-2.0566,-2.0566,-2.0566,-2.0566,0.0,0.0,0.0,0.0,0.0,0.0,0.0,0.0,0.0,0.0,0.0,0.0,0.0,0.0,0.0,0.0,0.0,0.0,0.0,0.0,0.0,0.0,0.0,0.0,0.0,0.0,0.0,0.0,0.0,0.0,0.0,0.0,0.0,0.0,0.0,0.0,-2.3135,-2.3135,-2.3387,-2.3299,-2.3135,-2.3135,-2.3714,-2.4385,-2.4335,-2.543,-2.679,-2.7988,-2.8362,-2.8857,-3.0127,-3.0249,0.0,0.0,-3.196,-3.282,-3.3533,0.0,0.0,0.0,0.0,0.0,0.0,0.0,0.0,0.0,0.0,0.0,0.0,0.0,0.0,0.0,0.0,0.0,0.0,-4.8444,-4.9536,-5.0397,-5.1631,-5.2627,-5.3501,-5.3501,-5.3881,-5.4589,-5.5379,-5.6132,-5.6912,-5.766,-5.8238,-5.8735,0.0,0.0,0.0,-6.0622,-6.08,-6.08,-6.08,-6.08,-6.08,-6.0819,-6.1031,-6.1315,0.0,0.0,0.0,0.0,0.0,0.0,0.0,-2.0566,-2.0566,-2.0566,-2.0566,-2.0566,-2.0566,-2.0566,0.0,0.0,0.0,0.0,0.0,0.0,0.0,0.0,0.0,0.0,0.0,0.0,0.0,0.0,0.0,0.0,0.0,0.0,0.0,0.0,0.0,0.0,0.0,0.0,0.0,0.0,0.0,0.0,0.0,0.0,0.0,0.0,0.0,0.0,0.0,0.0,0.0,-2.3299,-2.4296,-2.3963,-2.3135,-2.3135,0.0,0.0,-2.3721,-2.3988,-2.4583,-2.6713,-2.7256,-2.7748,-2.9473,0.0,0.0,-3.118,-3.196,-3.2593,-3.2749,-3.282,-3.3129,0.0,0.0,-3.5532,0.0,0.0,0.0,0.0,0.0,0.0,0.0,0.0,0.0,0.0,0.0,0.0,0.0,-4.9166,-5.032,-5.0397,-5.2329,-5.3416,-5.3501,-5.3501,-5.3881,-5.4589,-5.5379,-5.6132,-5.6912,-5.766,-5.8238,-5.8735,0.0,0.0,0.0,-6.0622,-6.08,-6.08,-6.08,-6.08,-6.08,-6.0935,-6.1131,-6.1324,0.0,0.0,0.0,0.0,0.0,0.0,0.0,-2.0566,-2.0566,-2.0566,-2.0566,-2.0566,-2.0566,-2.0566,-2.0566,0.0,0.0,0.0,0.0,0.0,0.0,0.0,0.0,0.0,0.0,0.0,0.0,0.0,0.0,0.0,0.0,0.0,0.0,0.0,0.0,0.0,0.0,0.0,0.0,0.0,0.0,0.0,0.0,0.0,0.0,0.0,0.0,0.0,0.0,0.0,0.0,0.0,-2.3627,-2.3963,0.0,0.0,-2.3637,-2.3232,-2.3672,-2.3603,-2.3967,-2.6441,-2.6892,-2.7298,-2.9337,0.0,-3.0343,-3.0343,-3.1119,-3.1742,-3.1742,-3.2664,-3.338,0.0,0.0,0.0,0.0,0.0,0.0,0.0,0.0,0.0,0.0,0.0,0.0,0.0,0.0,0.0,0.0,0.0,-5.0397,-5.0397,-5.2416,-5.3501,-5.3501,-5.3501,-5.4106,-5.5262,-5.5552,-5.6349,-5.7565,-5.7886,-5.8238,0.0,0.0,0.0,0.0,-6.0622,-6.08,-6.08,-6.08,-6.08,-6.0819,-6.0935,-6.1116,-6.1322,0.0,0.0,0.0,0.0,0.0,0.0,-2.0566,-2.0566,-2.0566,-2.0566,-2.0566,-2.0566,-2.0566,-2.0566,-2.0566,-2.0566,0.0,0.0,0.0,0.0,0.0,0.0,0.0,0.0,0.0,0.0,0.0,0.0,0.0,0.0,0.0,0.0,0.0,0.0,0.0,0.0,0.0,0.0,0.0,0.0,0.0,0.0,0.0,0.0,0.0,0.0,0.0,0.0,0.0,0.0,0.0,0.0,0.0,0.0,0.0,0.0,-2.3963,-2.362,-2.3595,-2.3379,-2.3707,-2.6308,-2.6729,-2.7058,0.0,0.0,-2.9792,-2.9792,-3.0355,-3.0758,-3.0758,-3.2105,-3.2961,-3.2321,0.0,-3.415,0.0,0.0,0.0,0.0,0.0,0.0,0.0,0.0,0.0,0.0,0.0,0.0,0.0,0.0,-5.0397,-5.0397,-5.2098,-5.3179,-5.3501,-5.3501,-5.4106,-5.5379,-5.561,-5.6403,-5.766,-5.7886,-5.8238,0.0,0.0,0.0,0.0,-6.0622,-6.08,-6.08,-6.08,-6.08,-6.0819,-6.1012,-6.1175,-6.1324,0.0,0.0,0.0,0.0,0.0,0.0,0.0,-2.0566,-2.0566,-2.0566,-2.0566,-2.0566,-2.0566,-2.0566,-2.0566,-2.0566,0.0,0.0,0.0,0.0,0.0,0.0,0.0,0.0,0.0,0.0,0.0,-2.0566,0.0,0.0,0.0,0.0,0.0,0.0,0.0,0.0,0.0,0.0,0.0,0.0,0.0,0.0,0.0,0.0,0.0,0.0,0.0,0.0,0.0,0.0,0.0,0.0,0.0,0.0,0.0,0.0,-2.3877,-2.4542,-2.3387,-2.3144,-2.3637,-2.5902,-2.6483,-2.7058,0.0,0.0,-2.9792,-2.9792,-2.9792,-2.9792,-2.9792,-3.0558,-3.1254,-3.1254,-3.1655,0.0,0.0,0.0,0.0,0.0,0.0,0.0,0.0,0.0,0.0,0.0,0.0,0.0,0.0,0.0,-5.0397,-5.0397,-5.1394,-5.24,-5.3501,-5.3501,-5.3881,-5.4589,-5.5379,-5.6132,-5.6912,-5.7679,0.0,0.0,0.0,0.0,0.0,-6.0622,-6.08,-6.08,-6.08,-6.08,-6.0839,-6.117,-6.1291,-6.1353,0.0,0.0,0.0,0.0,0.0,0.0,0.0,-2.0566,-2.0566,-2.0566,-2.0566,-2.0566,-2.0566,-2.0566,-2.0566,-2.0566,0.0,0.0,0.0,0.0,0.0,0.0,0.0,0.0,0.0,0.0,-2.0566,-2.0566,-2.0566,-2.0411,0.0,0.0,0.0,0.0,0.0,0.0,0.0,0.0,0.0,0.0,0.0,0.0,0.0,0.0,0.0,0.0,0.0,0.0,0.0,0.0,0.0,0.0,0.0,0.0,0.0,-2.4713,0.0,0.0,-2.5305,-2.5389,-2.5808,-2.7197,-2.7602,-2.7947,-2.9456,0.0,-2.9792,-2.9792,-2.9792,-2.9792,-2.9792,-3.0558,-3.118,-3.118,-3.1325,0.0,0.0,0.0,0.0,0.0,0.0,0.0,0.0,0.0,0.0,0.0,0.0,0.0,0.0,0.0,0.0,-5.0413,-5.2098,-5.3179,-5.3501,-5.3501,-5.4106,-5.5379,-5.5592,-5.6403,-5.766,0.0,0.0,0.0,0.0,0.0,0.0,-6.0482,-6.08,-6.08,-6.08,-6.08,-6.0839,-6.1189,-6.1291,-6.1353,0.0,0.0,0.0,0.0,0.0,0.0,0.0,-2.0566,-2.0566,-2.0566,-2.0566,-2.0566,-2.0566,-2.0566,-2.0566,-2.0566,0.0,0.0,0.0,0.0,0.0,0.0,0.0,0.0,0.0,-2.0566,-2.0566,-2.0566,-2.0566,-2.0566,-2.0566,-2.0566,-2.0566,0.0,0.0,0.0,0.0,0.0,0.0,0.0,0.0,0.0,-2.0566,0.0,0.0,0.0,0.0,0.0,0.0,0.0,0.0,0.0,0.0,0.0,0.0,0.0,-2.6025,-2.6119,0.0,-2.6483,-2.6719,-2.7844,-2.8096,0.0,0.0,0.0,-2.9792,-2.9792,-2.9792,-2.9792,-2.9792,-3.0279,-3.0696,-3.0696,-3.0696,0.0,0.0,0.0,0.0,0.0,0.0,0.0,0.0,0.0,0.0,0.0,0.0,0.0,0.0,0.0,0.0,-5.0413,-5.2026,-5.311,-5.3518,-5.3501,-5.4218,-5.5706,-5.5706,-5.6509,-5.7997,0.0,0.0,0.0,0.0,0.0,0.0,-6.0411,-6.08,-6.08,-6.08,-6.08,-6.0839,-6.1189,-6.1291,-6.1353,0.0,0.0,0.0,0.0,0.0,0.0,0.0,0.0,0.0,0.0,-2.0566,-2.0566,-2.0566,-2.0566,-2.0566,0.0,0.0,0.0,0.0,0.0,0.0,0.0,0.0,0.0,0.0,-2.0566,-2.0566,-2.0566,-2.0566,-2.0566,-2.0566,-2.0566,-2.0566,-2.0566,-2.0566,-2.0566,-2.0566,-2.0566,-2.0566,-2.0566,-2.0566,-2.0566,0.0,0.0,0.0,0.0,0.0,0.0,0.0,0.0,0.0,0.0,0.0,0.0,0.0,0.0,0.0,0.0,0.0,-2.673,0.0,0.0,0.0,0.0,0.0,0.0,0.0,-2.9792,-2.9792,-2.9792,-2.9792,-2.9792,-2.9792,-2.9792,-2.9829,0.0,0.0,0.0,0.0,0.0,0.0,0.0,0.0,0.0,0.0,0.0,0.0,0.0,0.0,0.0,0.0,0.0,-5.1304,-5.237,-5.3501,-5.3551,-5.4281,-5.5706,-5.5762,-5.6562,-5.7997,0.0,0.0,0.0,0.0,0.0,0.0,-6.0411,-6.08,-6.08,-6.08,-6.08,-6.0839,-6.1189,-6.1291,-6.1353,0.0,0.0,0.0,0.0,0.0,0.0,0.0,0.0,0.0,0.0,0.0,-2.0566,-2.0566,-2.0566,0.0,0.0,0.0,0.0,0.0,0.0,0.0,0.0,0.0,0.0,0.0,-2.0566,-2.0566,-2.0566,-2.0566,-2.0566,-2.0566,-2.0566,-2.0566,-2.0566,-2.0566,-2.0566,-2.0566,-2.0566,-2.0566,-2.0566,-2.0566,-2.0566,0.0,0.0,0.0,0.0,-2.2246,-2.2705,0.0,0.0,0.0,0.0,0.0,0.0,0.0,0.0,-2.8688,-2.9365,-2.9118,0.0,-2.904,-2.9365,-2.9365,-2.9456,0.0,0.0,0.0,0.0,0.0,-2.9792,-2.9792,-2.9792,-2.9792,-2.9792,-3.0143,0.0,0.0,0.0,0.0,0.0,0.0,0.0,0.0,0.0,0.0,0.0,0.0,0.0,0.0,0.0,0.0,0.0,-5.0482,-5.2084,-5.3501,-5.4042,-5.4818,-5.5706,-5.6313,-5.7116,0.0,0.0,0.0,0.0,0.0,0.0,0.0,-6.0411,-6.08,-6.08,-6.08,-6.08,-6.0839,-6.1189,-6.1291,-6.1353,0.0,0.0,0.0,0.0,0.0,0.0,0.0,0.0,0.0,0.0,0.0,0.0,0.0,0.0,0.0,0.0,0.0,0.0,0.0,0.0,0.0,0.0,0.0,0.0,-2.0566,-2.0566,-2.0566,-2.0566,-2.0566,-2.0566,-2.0566,-2.0566,-2.0566,-2.0566,-2.0566,-2.0566,-2.0566,-2.0566,-2.0566,-2.0566,-2.0566,0.0,0.0,0.0,0.0,0.0,-2.2363,-2.2783,0.0,-2.3135,-2.3887,-2.4787,0.0,0.0,0.0,0.0,-2.8937,-2.9792,-2.9792,-2.9792,-2.9792,-2.9792,-2.9792,-2.9792,-2.9792,0.0,0.0,0.0,0.0,-2.9792,-2.9792,-3.0139,-3.0279,-2.9856,0.0,0.0,0.0,0.0,0.0,0.0,0.0,0.0,0.0,0.0,0.0,0.0,0.0,0.0,0.0,0.0,0.0,0.0,0.0,-5.1775,-5.2942,-5.3685,-5.465,-5.5706,-5.6492,-5.7284,0.0,0.0,0.0,0.0,0.0,0.0,-5.9773,-6.0508,-6.08,-6.08,-6.08,-6.0839,-6.0916,-6.1208,-6.1348,-6.1423,0.0,0.0,0.0,0.0,0.0,0.0,0.0,0.0,0.0,0.0,0.0,0.0,0.0,0.0,0.0,0.0,0.0,0.0,0.0,0.0,0.0,0.0,0.0,-2.0566,-2.0566,-2.0566,-2.0566,-2.0566,-2.0566,-2.0566,-2.0566,-2.0566,-2.0566,-2.0566,-2.0566,-2.0566,-2.0566,-2.0566,-2.0566,-2.0566,-2.0566,0.0,0.0,0.0,0.0,0.0,0.0,0.0,0.0,-2.3135,-2.3887,-2.4872,-2.5041,0.0,0.0,0.0,0.0,0.0,-2.9792,-2.9792,-2.9792,-2.9792,-2.9792,-2.9792,-2.9792,0.0,0.0,0.0,0.0,0.0,0.0,0.0,0.0,0.0,0.0,0.0,0.0,0.0,0.0,0.0,0.0,0.0,0.0,0.0,0.0,0.0,0.0,0.0,0.0,0.0,0.0,0.0,0.0,0.0,-5.2123,-5.3176,-5.4297,-5.5529,-5.6597,-5.7401,-5.7997,0.0,0.0,0.0,0.0,0.0,-6.0132,-6.0622,-6.08,-6.08,-6.08,-6.0877,-6.1016,-6.1222,-6.1373,-6.1539,0.0,0.0,0.0,0.0,0.0,0.0,0.0,0.0,0.0,0.0,0.0,0.0,0.0,0.0,0.0,0.0,0.0,0.0,0.0,0.0,0.0,0.0,-2.0566,-2.0566,-2.0566,-2.0566,-2.0566,-2.0566,-2.0566,-2.0566,-2.0566,-2.0566,-2.0566,-2.0566,-2.0566,-2.0566,-2.0566,-2.0566,-2.0566,-2.0566,-2.0566,0.0,0.0,0.0,0.0,0.0,0.0,0.0,0.0,-2.3135,-2.3887,-2.4957,-2.5975,0.0,0.0,0.0,0.0,0.0,-2.9792,-2.9792,-2.9792,-2.9792,-2.9792,-2.9792,-2.9792,-2.9792,0.0,0.0,0.0,0.0,0.0,0.0,0.0,0.0,0.0,0.0,0.0,0.0,0.0,0.0,0.0,0.0,0.0,0.0,0.0,0.0,0.0,0.0,0.0,0.0,0.0,0.0,0.0,0.0,0.0,-5.3414,-5.4553,-5.4788,-5.6871,-5.7886,-5.7997,-5.7997,0.0,0.0,0.0,0.0,-6.0132,-6.0622,-6.08,-6.08,-6.08,-6.0877,-6.1023,-6.1217,-6.1384,-6.1539,0.0,0.0,0.0,0.0,0.0,0.0,0.0,0.0,0.0,0.0,0.0,0.0,0.0,0.0,0.0,0.0,0.0,0.0,0.0,0.0,0.0,-2.0566,-2.0566,-2.0566,-2.0566,-2.0566,-2.0566,-2.0566,-2.0566,-2.0566,-2.0566,-2.0566,-2.0566,-2.0566,-2.0566,-2.0566,-2.0566,-2.0566,-2.0566,-2.0566,0.0,0.0,0.0,0.0,0.0,0.0,0.0,0.0,0.0,0.0,-2.4798,-2.588,-2.7035,0.0,0.0,0.0,0.0,0.0,-2.9792,-2.9792,-2.9792,-2.9792,-2.9792,-2.9792,-2.9792,-2.9792,0.0,0.0,0.0,0.0,0.0,0.0,0.0,0.0,0.0,0.0,0.0,0.0,0.0,0.0,0.0,0.0,0.0,0.0,0.0,0.0,0.0,0.0,0.0,0.0,0.0,0.0,0.0,0.0,0.0,-5.2423,-5.3958,-5.5186,-5.6678,-5.7574,-5.7997,-5.7997,-5.8375,0.0,0.0,-5.9823,-6.0482,-6.0714,-6.08,-6.08,-6.08,-6.0935,-6.1205,-6.1432,-6.1561,-6.1617,0.0,0.0,0.0,0.0,0.0,0.0,0.0,0.0,0.0,0.0,0.0,0.0,0.0,0.0,0.0,0.0,0.0,0.0,0.0,0.0,-2.0566,-2.0566,-2.0566,-2.0566,-2.0566,-2.0566,-2.0566,-2.0566,-2.0566,-2.0566,-2.0566,-2.0566,-2.0566,-2.0566,-2.0566,-2.0712,-2.0934,-2.0712,-2.0712,-2.0934,0.0,0.0,0.0,0.0,0.0,0.0,0.0,0.0,0.0,0.0,0.0,0.0,0.0,0.0,0.0,-2.9792,-2.9792,-2.9792,-2.9792,-2.9792,-2.9792,-2.9792,0.0,-2.9792,-2.9792,-2.9792,0.0,0.0,0.0,0.0,0.0,0.0,0.0,0.0,0.0,0.0,0.0,0.0,0.0,0.0,0.0,0.0,0.0,0.0,0.0,0.0,0.0,0.0,0.0,0.0,0.0,0.0,0.0,0.0,0.0,-5.1368,-5.3155,-5.5433,-5.6382,-5.7226,-5.7997,-5.7997,-5.8526,-5.9389,-5.9389,-5.9916,-6.08,-6.08,-6.08,-6.08,-6.08,-6.0988,-6.1312,-6.1598,-6.1699,-6.1699,0.0,0.0,0.0,0.0,0.0,0.0,0.0,0.0,0.0,0.0,0.0,0.0,0.0,0.0,0.0,0.0,0.0,0.0,0.0,0.0,-2.0566,-2.0566,-2.0566,-2.0566,-2.0566,-2.0566,-2.0566,-2.0566,-2.0566,-2.0566,-2.0566,-2.0566,-2.0566,-2.0566,-2.0566,-2.1078,-2.1811,-2.0934,-2.1078,-2.1811,-2.0934,0.0,0.0,0.0,0.0,0.0,0.0,0.0,0.0,0.0,0.0,0.0,0.0,0.0,-2.9792,-2.9792,-2.9792,-2.9792,-2.9792,-2.9792,-2.9792,-2.9792,-2.9792,0.0,-2.9792,-2.9792,0.0,-2.9792,0.0,0.0,0.0,0.0,0.0,0.0,0.0,0.0,0.0,0.0,0.0,0.0,0.0,0.0,0.0,0.0,0.0,0.0,0.0,0.0,0.0,0.0,0.0,0.0,0.0,0.0,0.0,0.0,-5.2335,-5.4706,-5.6126,-5.7226,-5.7997,-5.7997,-5.8526,-5.9389,-5.9389,-5.9916,-6.08,-6.08,-6.08,-6.08,-6.08,-6.1002,-6.1328,-6.1603,-6.1699,-6.1699,0.0,0.0,0.0,0.0,0.0,0.0,0.0,0.0,0.0,0.0,0.0,0.0,0.0,0.0,0.0,0.0,0.0,0.0,0.0,0.0,-2.0566,-2.0566,-2.0566,-2.0566,-2.0566,-2.0566,-2.0566,-2.0566,-2.1145,-2.1441,-2.1441,-2.1441,-2.1155,-2.0644,-2.1221,-2.1669,-2.2027,-2.2264,-2.2264,-2.2027,-2.2264,-2.2489,0.0,0.0,0.0,0.0,0.0,0.0,0.0,0.0,-2.7429,-2.8255,0.0,-2.9443,-2.9792,-2.9792,-2.9792,-2.9792,-2.9792,-2.9792,-2.9792,-2.9792,-2.9792,0.0,0.0,-2.9792,-2.9792,-2.9792,-3.0558,0.0,0.0,0.0,0.0,0.0,0.0,0.0,0.0,0.0,0.0,0.0,0.0,0.0,0.0,0.0,0.0,0.0,0.0,0.0,0.0,0.0,0.0,0.0,0.0,0.0,0.0,0.0,-5.2215,-5.451,-5.5558,-5.6473,-5.7262,-5.8086,-5.8814,-5.9443,-5.9709,-6.0189,-6.08,-6.08,-6.08,-6.08,-6.0877,-6.1079,-6.1323,-6.1509,-6.1621,-6.1699,0.0,0.0,0.0,0.0,0.0,0.0,0.0,0.0,0.0,0.0,0.0,0.0,0.0,0.0,0.0,0.0,0.0,0.0,0.0,-2.0566,-2.0566,-2.0566,-2.0566,-2.0566,-2.0566,-2.0566,-2.0712,-2.1001,-2.2038,-2.2478,-2.2478,-2.2478,-2.2113,-2.1527,-2.2188,-2.2627,-2.2925,-2.2999,-2.2999,-2.2936,-2.3249,-2.3339,0.0,0.0,0.0,0.0,0.0,0.0,0.0,0.0,-2.8347,0.0,0.0,0.0,0.0,-2.9792,-2.9792,-2.9792,-2.9792,-2.9792,-2.9792,-2.9792,0.0,0.0,-2.9792,-2.9792,-2.9856,-3.0216,-3.0914,0.0,0.0,0.0,0.0,0.0,0.0,0.0,0.0,0.0,0.0,0.0,0.0,0.0,0.0,0.0,0.0,0.0,0.0,0.0,0.0,0.0,0.0,0.0,0.0,0.0,0.0,0.0,-5.1996,-5.3697,-5.4715,-5.5776,-5.6822,-5.7722,-5.8572,-5.9424,-5.9741,-6.0236,-6.08,-6.08,-6.08,-6.0819,-6.1012,-6.1175,-6.1322,-6.1499,-6.1621,-6.1699,0.0,0.0,0.0,0.0,0.0,0.0,0.0,0.0,0.0,0.0,0.0,0.0,0.0,0.0,0.0,0.0,0.0,0.0,-2.0566,-2.0566,-2.0566,-2.0566,-2.0566,-2.0566,-2.0566,-2.0644,-2.1078,-2.2027,-2.2999,-2.3514,-2.3514,-2.3514,-2.3514,-2.3514,-2.3514,-2.4036,-2.4862,-2.285,-2.322,-2.4909,-2.3471,-2.3092,-2.3384,0.0,0.0,0.0,0.0,0.0,0.0,0.0,-2.8858,-2.9792,0.0,0.0,0.0,-2.9792,-2.9792,-2.9792,-2.9792,-2.9792,-2.9792,0.0,0.0,0.0,-2.9869,-2.9792,-3.0075,-3.1044,0.0,0.0,0.0,0.0,0.0,0.0,0.0,0.0,0.0,0.0,0.0,0.0,0.0,0.0,0.0,0.0,0.0,0.0,0.0,0.0,0.0,0.0,0.0,0.0,0.0,0.0,0.0,0.0,-5.1444,-5.2112,-5.3679,-5.5225,-5.6785,-5.6804,-5.7765,-5.9389,-5.9389,-5.9916,-6.08,-6.08,-6.08,-6.0819,-6.117,-6.1304,-6.1323,-6.1601,-6.1699,-6.1699,0.0,0.0,0.0,0.0,0.0,0.0,0.0,0.0,0.0,0.0,0.0,0.0,0.0,0.0,0.0,0.0,0.0,0.0,-2.0566,-2.0566,-2.0566,-2.0566,-2.0566,-2.0566,-2.0566,-2.1973,-2.2787,-2.3073,-2.4047,-2.4564,-2.4564,-2.4564,-2.4192,-2.3514,-2.4264,-2.4707,-2.5004,-2.5134,-2.5338,-2.5612,-2.5852,-2.6064,-2.623,0.0,0.0,0.0,0.0,0.0,0.0,0.0,0.0,0.0,0.0,0.0,0.0,-2.9792,-2.9792,-2.9792,-2.9792,-3.0279,0.0,0.0,0.0,0.0,0.0,-3.0784,0.0,0.0,0.0,0.0,0.0,0.0,0.0,0.0,0.0,0.0,0.0,0.0,0.0,0.0,0.0,0.0,0.0,0.0,0.0,0.0,0.0,0.0,0.0,0.0,0.0,0.0,0.0,0.0,0.0,0.0,0.0,-5.2893,-5.3341,-5.4106,-5.5152,-5.6631,-5.7752,-5.8612,-5.9495,-6.0236,-6.08,-6.08,-6.08,-6.08,-6.0896,-6.1099,-6.1313,-6.1393,-6.1544,-6.1699,0.0,0.0,0.0,0.0,0.0,0.0,0.0,0.0,0.0,0.0,0.0,0.0,0.0,0.0,0.0,0.0,0.0,0.0,0.0,0.0,-2.0789,-2.1155,-2.1155,-2.1375,-2.1745,-2.3305,-2.4108,-2.4108,-2.5063,-2.5594,-2.5594,-2.5594,-2.5288,-2.4696,-2.5358,-2.5594,-2.5581,-2.5804,-2.6098,-2.6444,-2.6821,-2.7198,-2.7424,0.0,0.0,0.0,0.0,0.0,0.0,0.0,0.0,0.0,0.0,0.0,0.0,-3.0279,-3.0343,-3.0419,-3.0771,-3.1341,0.0,0.0,0.0,0.0,0.0,0.0,0.0,0.0,0.0,0.0,0.0,0.0,0.0,0.0,0.0,0.0,0.0,0.0,0.0,0.0,0.0,0.0,0.0,0.0,0.0,0.0,0.0,0.0,0.0,0.0,0.0,0.0,0.0,0.0,0.0,0.0,0.0,0.0,-5.3206,-5.3463,-5.3977,-5.5572,-5.6985,-5.8287,-5.9741,-6.0553,-6.08,-6.08,-6.08,-6.08,-6.0858,-6.1,-6.1209,-6.1334,-6.1475,-6.1621,0.0,0.0,0.0,0.0,0.0,0.0,0.0,0.0,0.0,0.0,-2.0566,0.0,0.0,0.0,0.0,0.0,0.0,0.0,0.0,0.0,-2.1011,-2.1952,-2.2103,-2.2627,-2.3588,-2.4564,-2.5004,-2.5158,-2.6025,-2.6533,-2.6533,-2.6533,-2.6533,-2.6533,-2.6533,-2.6533,-2.6465,-2.5572,-2.6042,-2.7322,-2.693,-2.7071,-2.7598,-2.8076,0.0,0.0,0.0,0.0,0.0,0.0,0.0,0.0,0.0,-2.9792,-3.0011,-3.0833,-3.1106,-3.1389,-3.2249,0.0,0.0,0.0,0.0,0.0,0.0,0.0,0.0,0.0,0.0,0.0,0.0,0.0,0.0,0.0,0.0,0.0,0.0,0.0,0.0,0.0,0.0,0.0,0.0,0.0,0.0,0.0,0.0,0.0,0.0,0.0,0.0,0.0,0.0,0.0,0.0,0.0,0.0,0.0,-5.3206,-5.3206,-5.3243,-5.4032,-5.5779,-5.8287,-5.997,-6.0723,-6.08,-6.08,-6.08,-6.08,-6.0916,-6.0973,-6.1032,-6.1354,-6.1482,-6.1523,0.0,0.0,0.0,0.0,0.0,0.0,0.0,0.0,0.0,0.0,0.0,0.0,0.0,0.0,0.0,0.0,0.0,0.0,0.0,0.0,-2.1011,-2.1952,-2.2776,-2.3672,-2.4636,-2.4862,-2.537,-2.6176,-2.6383,-2.6533,-2.6533,-2.6533,-2.6533,-2.6533,-2.6533,-2.6533,-2.649,-2.6706,-2.7276,-2.7984,-2.8288,-2.8773,-2.9282,-2.9406,-2.9443,0.0,0.0,0.0,0.0,0.0,0.0,0.0,-2.9792,-2.9792,-2.9869,-3.0075,-3.062,-3.1254,0.0,-3.2593,0.0,0.0,0.0,0.0,0.0,0.0,0.0,0.0,0.0,0.0,0.0,0.0,0.0,0.0,0.0,0.0,0.0,0.0,0.0,0.0,0.0,0.0,0.0,0.0,0.0,0.0,0.0,0.0,0.0,0.0,0.0,0.0,0.0,0.0,0.0,-5.1086,-5.1825,0.0,-5.3206,-5.3206,-5.3243,-5.4032,-5.5779,-5.8249,-5.9338,-6.0165,-6.08,-6.08,-6.08,-6.08,-6.0819,-6.0896,-6.1039,-6.1254,-6.1412,-6.1523,0.0,0.0,0.0,0.0,0.0,0.0,0.0,0.0,0.0,0.0,0.0,0.0,0.0,0.0,0.0,0.0,0.0,0.0,0.0,0.0,0.0,-2.3368,-2.4397,-2.5205,-2.5734,-2.5734,-2.5955,-2.6533,-2.6533,-2.6533,-2.6533,-2.6533,-2.6533,-2.6533,-2.6533,-2.6603,-2.6866,-2.7155,-2.7758,-2.8524,-2.8812,-2.9277,-2.9792,-2.9792,-2.9792,-2.9792,-2.9792,0.0,0.0,0.0,0.0,0.0,0.0,0.0,-2.9869,-3.0343,-3.0833,-3.1389,0.0,0.0,0.0,0.0,0.0,0.0,0.0,0.0,0.0,0.0,0.0,0.0,0.0,0.0,0.0,0.0,0.0,0.0,0.0,0.0,0.0,0.0,0.0,0.0,0.0,0.0,0.0,0.0,0.0,0.0,0.0,0.0,0.0,0.0,0.0,0.0,-5.1086,-5.1086,-5.1825,-5.3206,-5.3206,-5.3206,-5.3225,-5.4271,-5.5585,-5.7059,-5.8118,-5.9177,-6.0185,-6.0185,-6.0416,-6.08,-6.08,-6.0839,-6.0935,-6.1208,-6.1349,-6.1422,0.0,0.0,0.0,0.0,0.0,0.0,0.0,0.0,0.0,0.0,0.0,0.0,0.0,0.0,0.0,0.0,0.0,0.0,0.0,0.0,0.0,-2.4933,-2.5943,-2.6533,-2.6533,-2.6533,-2.6533,-2.6533,-2.6533,-2.6533,-2.6533,-2.6533,-2.6533,-2.6533,-2.6634,-2.6854,-2.7293,-2.7494,-2.8097,-2.8938,-2.9038,-2.9365,-2.9792,-2.9792,-2.9792,-2.9792,-2.9792,-2.9792,-2.9792,-2.9792,0.0,0.0,0.0,0.0,-2.9934,-3.0771,-3.1031,-3.1536,0.0,0.0,0.0,0.0,0.0,0.0,0.0,0.0,0.0,0.0,0.0,0.0,0.0,0.0,0.0,0.0,0.0,0.0,0.0,0.0,0.0,0.0,0.0,0.0,0.0,0.0,0.0,0.0,0.0,0.0,0.0,0.0,0.0,0.0,0.0,-4.9681,-5.1086,-5.1086,-5.1825,-5.3206,-5.3206,-5.3206,-5.3243,-5.4288,-5.5098,-5.5775,-5.6892,-5.8125,-5.93,-5.9435,-5.9915,-6.0589,-6.0742,-6.08,-6.0839,-6.1151,-6.1272,-6.1353,0.0,0.0,0.0,0.0,0.0,0.0,0.0,0.0,0.0,0.0,0.0,0.0,0.0,0.0,0.0,0.0,0.0,0.0,-2.0634,0.0,0.0,-2.4933,-2.5943,-2.6533,-2.6533,-2.6533,-2.6533,-2.6533,-2.6533,-2.6533,-2.6533,-2.6533,-2.6533,-2.6546,-2.6967,-2.7218,-2.7344,-2.8298,-2.88,-2.8976,-2.9478,-2.9729,-2.9792,-2.9792,-2.9792,-2.9792,-2.9792,-2.9792,-2.9792,-2.9792,-2.9792,0.0,0.0,0.0,0.0,-2.9934,-3.0558,-3.1254,0.0,0.0,0.0,0.0,0.0,0.0,0.0,0.0,0.0,0.0,0.0,0.0,0.0,0.0,0.0,0.0,0.0,0.0,0.0,0.0,0.0,0.0,0.0,0.0,0.0,0.0,0.0,0.0,0.0,0.0,0.0,0.0,0.0,-4.9001,-4.9001,0.0,-5.1086,-5.1086,-5.1825,-5.3206,-5.3206,-5.3206,-5.3225,-5.3382,-5.4278,-5.5737,-5.6302,-5.7283,-5.8511,-5.9204,-5.9569,-5.9742,-6.0512,-6.08,-6.0819,-6.0973,-6.1156,-6.1334,0.0,0.0,0.0,0.0,0.0,0.0,0.0,0.0,0.0,0.0,0.0,0.0,0.0,0.0,0.0,-2.2264,-2.2627,-2.2925,-2.3084,-2.3902,-2.4779,-2.5804,-2.6233,-2.6533,-2.6533,-2.6533,-2.6533,-2.6533,-2.6533,-2.6533,-2.6533,-2.6848,-2.6917,-2.6929,-2.7168,-2.762,-2.8235,-2.8725,-2.9114,-2.944,-2.9691,-2.9792,-2.9792,-2.9792,-2.9792,-2.9792,-2.9792,-2.9792,-2.9792,-2.9792,-2.9792,-2.9792,-2.9792,0.0,0.0,0.0,-3.0908,0.0,-3.2464,0.0,0.0,0.0,0.0,0.0,0.0,0.0,0.0,0.0,0.0,0.0,0.0,0.0,0.0,0.0,0.0,0.0,0.0,0.0,0.0,0.0,0.0,0.0,0.0,0.0,0.0,0.0,0.0,0.0,0.0,-4.9001,-4.9001,-4.9001,-4.9001,0.0,-5.1086,-5.1086,-5.1825,-5.3206,-5.3206,-5.3206,-5.3206,-5.3404,-5.4093,-5.5044,-5.525,-5.6183,-5.7588,-5.7953,-5.8646,-5.955,-5.9915,-6.0358,-6.0819,-6.0935,-6.1132,-6.1317,0.0,0.0,0.0,0.0,0.0,0.0,0.0,0.0,0.0,0.0,0.0,0.0,0.0,0.0,0.0,0.0,-2.3734,-2.4192,-2.4933,-2.5004,-2.5441,-2.6452,-2.6533,-2.6533,-2.6533,-2.6533,-2.6533,-2.6533,-2.6533,-2.6596,-2.6678,-2.7092,-2.7431,-2.7708,-2.7708,-2.816,-2.8938,-2.9089,-2.9402,-2.9792,-2.9792,-2.9792,-2.9792,-2.9792,-2.9792,-2.9792,-2.9792,-2.9792,-2.9792,-2.9792,-2.9792,-2.9792,-2.9792,-2.9921,0.0,0.0,0.0,0.0,0.0,0.0,0.0,0.0,0.0,0.0,0.0,0.0,0.0,0.0,0.0,0.0,0.0,0.0,0.0,0.0,0.0,0.0,0.0,0.0,0.0,0.0,0.0,0.0,0.0,0.0,0.0,0.0,0.0,0.0,0.0,-4.89,-4.9001,-4.9001,-4.9168,-4.9838,-5.1086,-5.1462,-5.2149,-5.3206,-5.3206,-5.3206,-5.3206,-5.3643,-5.4048,-5.4503,-5.4628,-5.5423,-5.6684,-5.6896,-5.7742,-5.8915,-5.9338,-5.9896,-6.0512,-6.0819,-6.1112,-6.1304,0.0,0.0,0.0,0.0,0.0,0.0,0.0,0.0,0.0,0.0,0.0,0.0,-2.3294,-2.4337,-2.4564,-2.3588,-2.4337,-2.4933,-2.5004,-2.5004,-2.5441,-2.6452,-2.6533,0.0,-2.6533,-2.6533,-2.6533,-2.6533,-2.6533,-2.6728,-2.7243,-2.7268,-2.7846,-2.885,-2.885,-2.8875,-2.8963,0.0,0.0,0.0,-2.9792,-2.9792,-2.9792,-2.9792,-2.9792,-2.9792,-2.9792,-2.9792,-2.9792,-2.9792,-2.9792,-2.9792,-2.9792,-3.0419,-3.1106,0.0,0.0,0.0,0.0,0.0,0.0,0.0,0.0,0.0,0.0,0.0,0.0,0.0,0.0,0.0,0.0,0.0,0.0,0.0,0.0,0.0,0.0,0.0,0.0,0.0,0.0,0.0,0.0,0.0,0.0,0.0,0.0,0.0,-4.797,-4.8629,-4.9001,-4.9001,-4.9622,-5.0297,-5.1086,-5.2417,-5.3121,-5.3206,-5.3206,-5.3206,-5.3206,-5.3643,-5.4048,-5.4535,-5.4905,-5.5326,-5.5818,-5.6646,-5.7049,-5.728,-5.8877,-5.9531,-5.9665,-6.0492,-6.1012,-6.1299,0.0,0.0,0.0,0.0,0.0,0.0,0.0,0.0,0.0,0.0,0.0,0.0,0.0,-2.5853,-2.6453,-2.642,-2.6761,-2.6991,-2.6991,-2.6991,-2.7135,-2.7519,-2.7519,-2.7519,-2.7519,-2.7519,-2.7519,0.0,-2.7519,-2.762,-2.7821,-2.8172,-2.8549,-2.8925,-2.8925,-2.9139,-2.9503,-2.9704,0.0,0.0,0.0,0.0,-2.9792,-2.9792,0.0,0.0,0.0,0.0,0.0,-2.9792,-2.9792,-2.9934,-3.0482,-3.0895,-3.1462,-3.2664,-3.3241,0.0,0.0,0.0,0.0,0.0,0.0,0.0,0.0,0.0,0.0,0.0,0.0,0.0,0.0,0.0,0.0,0.0,0.0,0.0,0.0,0.0,0.0,0.0,0.0,0.0,0.0,0.0,0.0,0.0,0.0,0.0,-4.7192,-4.7902,-4.8498,-4.8942,-4.962,-5.0554,-5.1741,-5.2725,-5.3206,-5.3206,-5.3206,-5.3206,-5.3206,-5.3943,-5.4322,-5.4535,-5.5186,-5.5577,-5.5722,-5.603,-5.6492,-5.7049,-5.7646,-5.855,-5.955,-5.9858,-6.0531,-6.1296,0.0,0.0,0.0,0.0,0.0,0.0,0.0,0.0,0.0,-2.3275,0.0,0.0,0.0,0.0,-2.7708,-2.8072,-2.8109,-2.8109,-2.8109,-2.8109,-2.8109,-2.8109,-2.8109,-2.8109,-2.8109,-2.7921,-2.7921,0.0,0.0,0.0,0.0,-2.875,-2.9038,-2.9214,-2.9214,-2.9428,0.0,0.0,0.0,-2.9792,0.0,0.0,-2.9792,0.0,0.0,0.0,0.0,0.0,0.0,0.0,0.0,-2.9921,-3.0895,-3.1609,-3.2464,-3.4041,-3.4476,0.0,-3.5294,0.0,0.0,0.0,0.0,0.0,0.0,0.0,0.0,0.0,0.0,0.0,0.0,0.0,0.0,0.0,0.0,0.0,0.0,0.0,0.0,0.0,0.0,0.0,0.0,0.0,0.0,0.0,0.0,0.0,-4.643,-4.7325,-4.8346,-4.9539,-5.0294,-5.1274,-5.2445,-5.2937,-5.3206,-5.3206,-5.3206,-5.3206,-5.3248,-5.4121,-5.4503,-5.4547,-5.5331,-5.5703,-5.5703,-5.5703,-5.603,-5.6588,-5.6876,-5.7857,-5.9127,-5.9396,-6.0262,-6.1296,0.0,0.0,0.0,0.0,0.0,0.0,0.0,0.0,-2.2686,-2.4714,0.0,0.0,0.0,0.0,0.0,-2.816,-2.816,-2.816,-2.816,-2.816,-2.816,-2.816,-2.816,-2.816,-2.816,-2.7632,-2.762,0.0,0.0,0.0,0.0,0.0,-2.9252,-2.9792,-2.9792,-2.9792,-2.9792,0.0,-2.9792,-2.9792,0.0,-2.9792,-2.9792,0.0,0.0,0.0,-2.9792,-2.9792,0.0,0.0,0.0,0.0,0.0,0.0,-3.4245,-3.5213,-3.5504,0.0,0.0,0.0,0.0,0.0,0.0,0.0,0.0,0.0,0.0,0.0,0.0,0.0,0.0,0.0,0.0,0.0,0.0,0.0,0.0,0.0,0.0,0.0,0.0,0.0,0.0,0.0,0.0,0.0,0.0,-4.5669,-4.5669,-4.7,-4.8696,-5.0811,-5.1679,-5.2472,-5.3206,-5.3206,-5.3206,-5.3206,-5.3206,-5.3206,-5.3248,-5.4121,-5.4503,-5.4547,-5.5375,-5.5703,-5.5703,-5.5703,-5.5703,-5.578,-5.6626,-5.7492,-5.8357,-5.9165,-6.0223,-6.1257,0.0,0.0,0.0,0.0,0.0,0.0,0.0,0.0,-2.2828,0.0,0.0,0.0,-2.738,-2.8583,-2.9327,-2.9327,-2.9327,-2.9327,-2.9327,-2.9327,-2.9327,-2.9327,-2.9327,-2.9327,-2.9327,-2.9176,-2.9176,0.0,0.0,0.0,0.0,0.0,0.0,0.0,-2.9792,-2.9792,-2.9792,-2.9792,0.0,0.0,-2.9792,-2.9792,0.0,0.0,0.0,0.0,0.0,-2.9792,0.0,0.0,-2.9792,-3.0075,0.0,0.0,-3.5133,0.0,0.0,-3.5504,-3.5504,0.0,0.0,0.0,0.0,0.0,0.0,0.0,0.0,0.0,0.0,0.0,0.0,0.0,0.0,0.0,0.0,0.0,0.0,0.0,0.0,0.0,0.0,0.0,0.0,0.0,0.0,0.0,0.0,-4.5541,-4.5541,-4.7315,-4.9131,-5.0857,-5.1617,-5.2395,-5.3206,-5.3206,-5.3206,-5.3206,-5.3206,-5.3359,-5.3663,-5.424,-5.464,-5.4979,-5.5489,-5.5703,-5.5703,-5.5703,-5.5703,-5.5722,-5.5972,-5.6588,-5.7453,-5.8319,-5.9377,-6.0445,0.0,0.0,0.0,0.0,0.0,0.0,0.0,-2.293,-2.3097,0.0,0.0,0.0,-2.8113,-2.918,-2.9792,-2.9792,-2.9792,-2.9792,-2.9792,-2.9792,-2.9792,-2.9792,-2.9792,-2.9792,-2.9792,-2.9553,-2.9553,0.0,0.0,0.0,0.0,0.0,0.0,0.0,0.0,0.0,0.0,0.0,0.0,0.0,-3.0633,0.0,0.0,-3.0846,-3.0996,0.0,0.0,0.0,-3.0355,-2.9934,-3.0279,0.0,0.0,0.0,0.0,0.0,0.0,-3.5504,-3.5504,-3.5504,0.0,0.0,0.0,0.0,0.0,-3.6768,0.0,0.0,0.0,0.0,0.0,0.0,0.0,0.0,0.0,0.0,0.0,0.0,0.0,0.0,0.0,0.0,0.0,0.0,0.0,0.0,-4.5545,-4.6014,-4.6257,-4.7769,-4.9303,-5.0828,-5.1608,-5.238,-5.3206,-5.3206,-5.3206,-5.3206,-5.3359,-5.3565,-5.3814,-5.4465,-5.4895,-5.5115,-5.5531,-5.5703,-5.5703,-5.5703,-5.5703,-5.5703,-5.5703,-5.6222,-5.7107,-5.7973,-5.9031,-6.0118,0.0,0.0,0.0,0.0,0.0,0.0,0.0,-2.3135,-2.3464,0.0,-2.5714,-2.7302,-2.9546,-2.9792,-2.9792,-2.9792,-2.9792,-2.9792,-2.9792,-2.9792,-2.9792,-2.9792,-2.9792,-2.9792,-2.9792,-2.9289,-2.9277,0.0,0.0,0.0,0.0,0.0,0.0,0.0,0.0,0.0,0.0,0.0,0.0,-3.0292,-3.1901,-3.2033,0.0,0.0,-3.2593,0.0,-3.1669,-3.1389,-3.118,-3.0279,-3.1206,0.0,0.0,0.0,0.0,0.0,-3.5504,-3.5504,-3.5504,-3.5504,-3.5504,0.0,0.0,0.0,-3.7235,-3.7531,0.0,0.0,0.0,0.0,0.0,0.0,0.0,0.0,0.0,0.0,0.0,0.0,0.0,0.0,0.0,0.0,0.0,0.0,0.0,-4.5597,-4.6161,-4.6801,-4.747,-4.8157,-4.921,-5.0637,-5.1444,-5.2252,-5.3078,-5.317,-5.3206,-5.3272,-5.3624,-5.3832,-5.3977,-5.4741,-5.5115,-5.5186,-5.5535,-5.5703,-5.5703,-5.5703,-5.5703,-5.5703,-5.5703,-5.6165,-5.6953,-5.7857,-5.8896,-5.9983,-2.3135,0.0,0.0,0.0,0.0,0.0,0.0,-2.3135,-2.3222,-2.3387,-2.5221,-2.7302,-2.9546,-2.9792,-2.9792,-2.9792,-2.9792,-2.9792,-2.9792,-2.9792,-2.9792,-2.9792,-2.9792,-2.9792,-2.9792,-2.9679,-2.9679,0.0,0.0,0.0,0.0,0.0,0.0,0.0,0.0,0.0,0.0,0.0,0.0,-3.2119,-3.2464,0.0,-3.1315,-3.2249,-3.2593,-3.2593,-3.2393,-3.2321,-3.2177,0.0,-3.2177,-3.3602,0.0,0.0,0.0,0.0,0.0,0.0,0.0,0.0,0.0,0.0,0.0,0.0,-3.5846,-3.5973,0.0,0.0,0.0,0.0,0.0,0.0,0.0,0.0,0.0,0.0,0.0,0.0,0.0,0.0,0.0,0.0,0.0,0.0,0.0,-4.6192,-4.6819,-4.747,-4.8075,-4.8279,-4.8794,-4.9793,-5.06,-5.1426,-5.2215,-5.2894,-5.3359,-5.3683,-5.374,-5.4168,-5.4848,-5.5034,-5.5282,-5.5577,-5.5662,-5.5703,-5.5703,-5.5703,-5.5703,-5.5703,-5.5703,-5.5799,-5.6069,-5.7049,-5.8069,-5.9092,-2.3135,0.0,0.0,0.0,0.0,0.0,0.0,0.0,-2.3135,-2.3135,-2.5062,-2.7302,-2.9546,-2.9792,-2.9792,-2.9792,-2.9792,-2.9792,-2.9792,-2.9792,-2.9792,-2.9792,-2.9792,-2.9792,-2.9792,-2.9792,-2.9792,0.0,0.0,0.0,0.0,0.0,0.0,0.0,0.0,0.0,0.0,0.0,-3.3171,-3.2033,-3.3478,0.0,-3.2678,-3.3685,-3.4056,-3.3973,-3.3463,-3.3031,-3.2522,-3.2033,-3.282,0.0,0.0,-3.4327,-3.5504,0.0,-3.5504,-3.5504,0.0,0.0,0.0,-3.5504,0.0,0.0,0.0,-3.6054,-3.629,0.0,0.0,0.0,0.0,0.0,0.0,0.0,0.0,0.0,0.0,0.0,0.0,0.0,0.0,0.0,0.0,0.0,-4.5959,-4.7245,-4.7656,-4.7977,-4.8267,-4.8306,-4.8691,-4.9554,-4.9976,-5.0765,-5.1977,-5.261,-5.3197,-5.3814,-5.4217,-5.4682,-5.5107,-5.5306,-5.5512,-5.5703,-5.5703,-5.5703,-5.5703,-5.5703,-5.5703,-5.5703,-5.5703,-5.5742,-5.5895,-5.6857,-5.7879,-5.8921,-2.3135,0.0,0.0,0.0,0.0,0.0,0.0,0.0,-2.3222,-2.3387,-2.5052,-2.6964,-2.8961,-2.9131,-2.9131,-2.9131,-2.9131,-2.9287,-2.9456,-2.9456,-2.9534,-2.9792,-2.9792,-2.9792,-2.9792,-2.9792,-2.9792,-2.9792,0.0,0.0,0.0,0.0,0.0,0.0,0.0,0.0,0.0,0.0,0.0,-3.196,0.0,-3.4773,-3.3891,-3.5067,-3.5504,-3.5359,-3.461,-3.3822,-3.3115,-3.2961,0.0,-3.4245,-3.4095,-3.4691,0.0,0.0,0.0,0.0,0.0,0.0,0.0,0.0,0.0,-3.5683,0.0,0.0,0.0,-3.7456,0.0,0.0,0.0,0.0,0.0,0.0,0.0,0.0,0.0,0.0,0.0,0.0,0.0,0.0,0.0,0.0,-4.6024,-4.7801,-4.8041,-4.8172,-4.8306,-4.8306,-4.8618,-4.9315,-4.9499,-5.0349,-5.1864,-5.2345,-5.3084,-5.4065,-5.4771,-5.5134,-5.5212,-5.5535,-5.5703,-5.5703,-5.5703,-5.5703,-5.5703,-5.5703,-5.5703,-5.5703,-5.5703,-5.578,-5.5994,-5.6733,-5.7716,-5.8794,-2.3135,-2.3135,0.0,0.0,0.0,0.0,0.0,0.0,-2.3464,-2.4457,-2.4872,-2.5462,-2.673,-2.6894,0.0,-2.6894,0.0,0.0,-2.8255,0.0,-2.8767,-2.9792,-2.9792,-2.9792,-2.9792,-2.9792,-2.9792,-2.9792,0.0,0.0,0.0,0.0,0.0,0.0,-3.2961,0.0,0.0,0.0,-3.4691,0.0,-3.4986,-3.4409,0.0,-3.4773,-3.5504,-3.5504,-3.5359,-3.5279,-3.5067,0.0,-3.4476,-3.5198,0.0,-3.4691,0.0,0.0,0.0,0.0,0.0,0.0,0.0,0.0,-3.5504,0.0,0.0,0.0,-3.6615,-3.6722,0.0,0.0,0.0,0.0,0.0,0.0,0.0,0.0,0.0,0.0,0.0,0.0,0.0,0.0,0.0,0.0,0.0,-4.6481,-4.7132,-4.7756,-4.8267,-4.8306,-4.8361,-4.8434,-4.9187,-5.0191,-5.1452,-5.2212,-5.3409,-5.496,-5.5061,-5.5282,-5.564,-5.5662,-5.5703,-5.5703,-5.5703,-5.5703,-5.5703,-5.5703,-5.5703,-5.5703,-5.5703,-5.578,-5.592,-5.6204,-5.6947,-5.7989,-2.3135,-2.3135,-2.3135,0.0,0.0,0.0,0.0,0.0,-2.4296,-2.4702,-2.5378,-2.6213,0.0,0.0,0.0,0.0,0.0,-2.7602,0.0,0.0,-2.8597,-2.9792,0.0,0.0,-2.9792,-2.9792,-2.9792,-2.9792,-2.9792,0.0,0.0,0.0,0.0,0.0,-3.282,0.0,-3.289,0.0,0.0,0.0,0.0,0.0,0.0,-3.4986,-3.5504,-3.5504,-3.5504,-3.5504,-3.5439,0.0,-3.5133,0.0,0.0,0.0,0.0,0.0,0.0,0.0,0.0,0.0,0.0,0.0,0.0,0.0,0.0,0.0,-3.7279,0.0,0.0,0.0,0.0,0.0,0.0,0.0,0.0,0.0,0.0,0.0,0.0,0.0,0.0,0.0,0.0,0.0,0.0,0.0,0.0,-4.7225,-4.8231,-4.8306,-4.8306,-4.8306,-4.8655,-4.9436,-5.0647,-5.172,-5.2961,-5.4364,-5.5101,-5.5554,-5.5703,-5.5703,-5.5703,-5.5703,-5.5703,-5.5703,-5.5703,-5.5703,-5.5703,-5.5703,-5.578,-5.5915,-5.6076,-5.6168,-5.6884,-5.795,-2.3135,-2.3135,0.0,0.0,0.0,0.0,0.0,0.0,0.0,0.0,0.0,0.0,-2.6603,-2.6767,0.0,0.0,-2.6767,-2.6849,0.0,0.0,-2.8187,0.0,0.0,0.0,0.0,-2.9792,-2.9792,-2.9792,-3.0075,0.0,0.0,0.0,0.0,0.0,0.0,-3.3463,-3.3671,0.0,0.0,-3.4095,-3.5067,-3.5067,-3.4461,-3.5213,-3.5504,-3.5504,-3.5504,-3.5504,-3.5504,-3.5504,-3.5504,0.0,-3.5504,0.0,0.0,0.0,0.0,0.0,-3.5504,0.0,0.0,0.0,0.0,0.0,0.0,0.0,0.0,0.0,0.0,0.0,0.0,0.0,0.0,0.0,0.0,0.0,0.0,0.0,0.0,0.0,0.0,0.0,0.0,0.0,0.0,0.0,-4.6001,0.0,-4.7901,-4.8196,-4.8364,-4.8458,-4.844,-4.9117,-5.0403,-5.1582,-5.2767,-5.4014,-5.5132,-5.5703,-5.5703,-5.5703,-5.5703,-5.5703,-5.5703,-5.5703,-5.5703,-5.5703,-5.5703,-5.5703,-5.5838,-5.6019,-5.6191,-5.6233,-5.68,-5.7676,-2.3135,-2.3135,0.0,0.0,0.0,0.0,0.0,0.0,0.0,0.0,0.0,0.0,0.0,0.0,0.0,0.0,0.0,-2.3714,-2.4872,0.0,-2.7046,0.0,0.0,-2.9792,0.0,0.0,-2.9792,-2.9792,-3.0696,0.0,0.0,0.0,0.0,0.0,0.0,-3.4409,-3.2749,-3.4639,-3.4905,-3.4095,-3.5067,-3.5504,-3.5439,0.0,-3.5504,-3.5504,-3.5504,0.0,0.0,-3.5504,-3.5504,0.0,0.0,0.0,0.0,0.0,0.0,0.0,0.0,0.0,0.0,-3.6384,0.0,0.0,0.0,0.0,-3.8854,0.0,0.0,0.0,0.0,0.0,-4.007,-4.007,0.0,0.0,0.0,0.0,0.0,0.0,0.0,0.0,0.0,0.0,0.0,0.0,-4.4502,0.0,-4.7056,-4.7884,-4.8495,-4.8863,-4.8897,-4.964,-5.125,-5.2133,-5.3221,-5.4489,-5.5318,-5.5703,-5.5703,-5.5703,-5.5703,-5.5703,-5.5703,-5.5703,-5.5703,-5.5703,-5.5703,-5.5703,-5.5838,-5.6012,-5.6224,-5.6348,-5.6504,-5.6777,-2.3135,0.0,0.0,0.0,0.0,0.0,0.0,-2.3714,0.0,0.0,0.0,0.0,0.0,0.0,-2.4211,0.0,0.0,-2.4372,-2.4787,-2.5891,0.0,0.0,0.0,-2.9456,0.0,0.0,-2.9792,-2.9792,-3.0758,0.0,0.0,0.0,0.0,0.0,0.0,-3.5133,0.0,0.0,0.0,0.0,0.0,-3.5504,-3.5504,0.0,0.0,-3.5504,-3.5504,-3.5504,0.0,-3.5504,-3.5504,-3.5504,-3.5504,-3.5504,-3.5504,-3.5504,-3.5504,0.0,0.0,0.0,-3.5554,-3.5846,0.0,0.0,0.0,0.0,0.0,0.0,0.0,0.0,0.0,0.0,-4.007,-4.007,-4.007,-4.007,0.0,0.0,0.0,0.0,0.0,0.0,0.0,0.0,0.0,-4.3494,-4.4558,-4.5735,0.0,-4.7865,-4.8477,-4.8897,-4.8897,-4.9408,-5.0493,-5.1337,-5.2379,-5.3645,-5.4491,-5.5184,-5.5703,-5.5703,-5.5703,-5.5703,-5.5703,-5.5703,-5.5703,-5.5703,-5.5703,-5.5722,-5.5994,-5.6145,-5.6216,-5.6348,-5.6472,-5.6719,-2.3222,0.0,0.0,0.0,0.0,0.0,0.0,0.0,0.0,0.0,-2.3714,0.0,-2.4211,0.0,-2.4211,0.0,-2.4211,-2.4382,-2.4787,-2.5462,0.0,-2.7046,-2.845,0.0,0.0,-2.9443,-2.9921,-3.0279,-3.1254,-3.2177,0.0,0.0,0.0,0.0,0.0,0.0,0.0,0.0,-3.5504,0.0,0.0,-3.5504,0.0,0.0,-3.5504,0.0,0.0,-3.5504,-3.5504,-3.5504,-3.5504,-3.5504,-3.5504,-3.5504,-3.5504,-3.5504,-3.5504,-3.5504,-3.5504,-3.5504,0.0,0.0,-3.6646,0.0,-3.8076,0.0,0.0,0.0,0.0,0.0,0.0,0.0,-4.002,-3.9731,-3.9901,-4.007,0.0,-4.007,0.0,0.0,0.0,0.0,0.0,0.0,-4.185,-4.3376,-4.4034,-4.503,0.0,0.0,-4.8396,-4.9108,-4.9246,-4.9645,-5.0313,-5.1098,-5.1938,-5.276,-5.3933,-5.4761,-5.528,-5.5568,-5.5703,-5.5703,-5.5703,-5.5703,-5.5703,-5.5703,-5.5703,-5.5722,-5.6071,-5.6203,-5.622,-5.6408,-5.6527,-5.6719,0.0,0.0,0.0,0.0,-2.4125,0.0,0.0,0.0,-2.4372,0.0,-2.3135,-2.3135,-2.3135,-2.3135,-2.3135,-2.3135,-2.3135,0.0,-2.4617,-2.4787,0.0,0.0,-2.8004,-2.8597,-2.9624,-2.9714,-3.0279,0.0,0.0,0.0,0.0,0.0,0.0,0.0,-3.5504,0.0,-3.5504,-3.5504,-3.5504,-3.5504,-3.5504,-3.5504,-3.5504,-3.5504,0.0,-3.5504,-3.5504,-3.5504,-3.5504,-3.5504,-3.5504,-3.5569,-3.5504,-3.5504,-3.5569,-3.5504,-3.5504,-3.5504,-3.5504,-3.5504,-3.5668,-3.6446,0.0,0.0,0.0,0.0,-3.8962,0.0,0.0,0.0,0.0,0.0,0.0,-3.9086,-3.9594,-4.0121,-4.0121,0.0,0.0,0.0,0.0,0.0,0.0,-4.0449,-4.0861,-4.2577,-4.2917,0.0,0.0,0.0,0.0,-4.9428,-4.9879,-5.0294,-5.0702,-5.1471,-5.1875,-5.1933,-5.3587,-5.4414,-5.453,-5.528,-5.5665,-5.5703,-5.5703,-5.5703,-5.5703,-5.5703,-5.5703,-5.5722,-5.6071,-5.6201,-5.6242,-5.6493,-5.6601,-5.6719,-2.5557,-2.5891,-2.5975,0.0,-2.5891,-2.5724,0.0,0.0,0.0,0.0,-2.3135,-2.3135,-2.3135,-2.3135,-2.3135,-2.3135,-2.3135,0.0,0.0,0.0,0.0,-2.4382,-2.6767,-2.7855,-2.7383,-2.8961,0.0,-3.118,0.0,0.0,-3.4027,0.0,0.0,0.0,0.0,0.0,-3.5504,-3.5504,-3.5504,-3.5504,-3.5504,-3.5504,0.0,0.0,-3.5504,-3.5504,-3.5504,-3.5504,-3.5504,-3.5504,-3.5831,-3.6212,-3.5668,-3.5894,-3.6228,-3.5668,-3.5504,-3.5504,-3.5504,-3.5504,-3.5668,-3.6446,-3.7024,-3.7732,0.0,0.0,0.0,0.0,0.0,0.0,0.0,0.0,0.0,-3.985,-4.0285,-4.0703,0.0,0.0,0.0,0.0,0.0,0.0,-4.103,-4.1213,-4.1725,-4.2616,-4.3665,0.0,0.0,0.0,0.0,-4.8948,-4.9719,-5.0294,-5.0702,-5.0894,-5.1318,-5.1914,-5.2356,-5.326,-5.4511,-5.4703,-5.5126,-5.5703,-5.5703,-5.5703,-5.5703,-5.5703,-5.5703,-5.5722,-5.5895,-5.6135,-5.6376,-5.6542,-5.6601,-5.6621,-2.6472,0.0,0.0,-2.7209,0.0,0.0,-2.5115,0.0,0.0,-2.3299,-2.3135,0.0,-2.3135,-2.3135,-2.3135,-2.3135,-2.3135,0.0,0.0,0.0,0.0,-2.5964,-2.6871,-2.7533,-2.7959,-2.9131,0.0,-3.118,0.0,0.0,-3.4027,0.0,0.0,0.0,0.0,-3.5504,0.0,-3.5504,-3.5504,-3.5504,-3.5504,0.0,0.0,-3.5504,-3.5504,-3.5554,-3.5894,-3.5782,-3.5504,-3.5504,-3.5782,-3.607,-3.5619,-3.6006,-3.6492,-3.6117,-3.6243,-3.6492,-3.6492,-3.6492,-3.66,-3.704,-3.7456,-3.7978,-3.8745,-3.9262,-3.961,0.0,0.0,0.0,0.0,0.0,0.0,-4.007,0.0,0.0,0.0,0.0,0.0,0.0,0.0,0.0,-4.1785,-4.189,-4.2297,-4.3014,0.0,0.0,0.0,0.0,0.0,0.0,-4.92,-4.9908,-5.0683,-5.0523,-5.0734,-5.1375,-5.1741,-5.2606,-5.3933,-5.4337,-5.4934,-5.5703,-5.5703,-5.5703,-5.5703,-5.5703,-5.5703,-5.5703,-5.5838,-5.6101,-5.6416,-5.6478,-5.6549,-5.6582,0.0,0.0,0.0,0.0,0.0,0.0,0.0,-2.6047,0.0,-2.38,0.0,-2.3474,-2.3299,-2.3299,-2.3299,-2.3299,0.0,-2.4059,-2.6307,-2.4467,-2.5136,-2.9209,-2.7626,-2.7637,-2.9534,-2.9702,0.0,0.0,0.0,0.0,0.0,0.0,0.0,0.0,0.0,0.0,0.0,-3.5504,-3.5504,0.0,-3.5504,-3.5504,-3.5504,-3.5619,-3.5604,-3.5718,-3.6508,-3.629,-3.5683,-3.5797,-3.5846,-3.591,-3.5846,-3.629,-3.6904,-3.6783,-3.7263,-3.7822,-3.7822,-3.7822,-3.7806,-3.7921,-3.7921,-3.8149,-3.887,-3.9086,-3.9086,-3.9086,-3.961,0.0,0.0,0.0,0.0,0.0,0.0,0.0,0.0,0.0,0.0,0.0,0.0,0.0,0.0,0.0,0.0,0.0,0.0,0.0,0.0,0.0,0.0,0.0,-4.846,0.0,-5.0371,0.0,-5.0272,-5.0643,-5.1375,-5.2202,-5.3068,-5.3818,-5.4664,-5.553,-5.553,-5.5588,-5.5703,-5.5703,-5.5703,-5.5703,-5.5818,-5.6071,-5.6326,-5.632,-5.6418,-5.6539,0.0,0.0,0.0,0.0,0.0,-2.9287,-2.7763,-2.7683,-2.736,-2.6058,-2.5891,0.0,-2.4628,-2.4542,-2.4542,-2.4542,-2.3637,0.0,0.0,0.0,0.0,-2.6976,-2.7533,-2.8016,-2.8426,-2.9287,-3.0279,0.0,0.0,0.0,0.0,0.0,0.0,0.0,0.0,0.0,-3.5504,-3.5504,0.0,-3.5504,-3.5504,-3.5504,-3.5569,-3.6165,-3.6384,-3.6508,-3.7279,-3.71,-3.6508,-3.7175,-3.779,-3.8173,-3.7573,-3.7905,-3.8398,-3.779,-3.769,-3.7822,-3.7822,-3.7822,-3.7921,-3.858,-3.869,-3.8908,-3.9731,-3.9901,-3.9901,-3.9901,-4.002,-4.002,-3.9731,0.0,0.0,0.0,0.0,0.0,0.0,0.0,0.0,0.0,0.0,0.0,0.0,0.0,0.0,0.0,0.0,0.0,0.0,0.0,0.0,0.0,0.0,0.0,0.0,0.0,0.0,-5.0206,-5.0678,-5.1337,-5.2145,-5.2299,-5.3222,-5.4703,-5.4703,-5.5088,-5.5703,-5.5703,-5.5703,-5.5703,-5.5722,-5.5838,-5.5974,-5.5865,-5.6005,-5.6305,0.0,0.0,0.0,0.0,0.0,0.0,0.0,-2.8937,0.0,-2.6719,-2.6483,-2.6307,-2.5714,-2.5714,-2.5714,-2.5714,-2.5221,-2.5557,-2.7197,-2.6295,-2.6461,-2.8131,-2.8108,0.0,-2.8937,-2.9534,-2.9998,-3.0482,0.0,0.0,-3.331,0.0,0.0,0.0,0.0,-3.5504,0.0,0.0,0.0,-3.5504,-3.5504,-3.5504,-3.5569,-3.5894,-3.6275,-3.6784,-3.7971,-3.8392,-3.8376,-3.8392,-3.8866,-3.9388,-3.9039,-3.9462,-4.0005,-3.9667,-3.9837,-4.0117,-4.0117,-4.0117,-4.0227,-4.0571,-4.0679,-4.0648,-4.0696,-4.0663,-4.0544,-4.0155,-4.007,-4.007,-4.007,-4.007,0.0,0.0,0.0,0.0,0.0,0.0,0.0,0.0,0.0,0.0,0.0,0.0,0.0,0.0,0.0,0.0,0.0,0.0,0.0,0.0,0.0,0.0,0.0,0.0,0.0,-5.0421,-5.0604,-5.1125,-5.1914,-5.1914,-5.2606,-5.3857,-5.4299,-5.4722,-5.5107,-5.553,-5.5703,-5.5703,-5.5703,-5.578,-5.5876,-5.5818,-5.5982,-5.6203,0.0,-2.9792,0.0,0.0,-2.9792,0.0,0.0,-2.9792,-2.9209,-2.7464,-2.7221,-2.7139,-2.6883,-2.6883,-2.6883,-2.6883,-2.6637,-2.7046,-2.8347,-2.7452,-2.7718,-2.9702,-2.8937,-2.8858,-2.9792,-2.9792,-2.9792,0.0,0.0,0.0,0.0,0.0,0.0,0.0,0.0,0.0,0.0,0.0,-3.5504,-3.5504,-3.5504,-3.5504,-3.5504,-3.5668,-3.618,-3.7058,-3.8574,-3.9756,-4.0514,-4.0009,-4.0144,-4.0469,-4.0469,-4.091,-4.1415,-4.1415,-4.1837,-4.2286,-4.2286,-4.2286,-4.2286,-4.2286,-4.2286,-4.21,-4.1373,-4.1204,-4.0984,-4.024,-4.007,-4.007,-4.007,-4.007,0.0,0.0,0.0,0.0,0.0,0.0,0.0,0.0,0.0,0.0,0.0,0.0,0.0,0.0,0.0,0.0,0.0,0.0,0.0,0.0,0.0,0.0,-4.8249,0.0,-4.9656,0.0,-5.0624,-5.1029,-5.1645,-5.1645,-5.2106,-5.2972,-5.3645,-5.4164,-5.4549,-5.5184,-5.5549,-5.5703,-5.5703,-5.5761,-5.5857,-5.5857,-5.5974,-5.6074,0.0,0.0,0.0,0.0,0.0,0.0,0.0,-2.9792,-2.9714,-2.9546,-2.9468,-2.9118,-2.8096,-2.7924,-2.7924,-2.7924,-2.7046,-2.7383,-2.9534,-2.8597,-2.8518,-2.9714,-2.9714,-2.9702,-2.9792,-2.9792,-2.9792,0.0,0.0,0.0,0.0,0.0,0.0,0.0,0.0,0.0,0.0,-3.5504,-3.5504,-3.5504,-3.5504,-3.5504,-3.5554,-3.6212,-3.698,-3.7902,-3.9413,-4.0917,-4.2162,-4.28,-4.256,-4.2092,-4.2092,-4.2109,-4.2179,-4.2179,-4.2233,-4.2286,-4.2286,-4.2286,-4.2286,-4.2286,-4.2286,-4.21,-4.1373,-4.1204,-4.0984,-4.024,-4.007,-4.007,-4.007,-4.007,-4.0237,0.0,0.0,0.0,0.0,0.0,0.0,0.0,0.0,0.0,0.0,0.0,0.0,0.0,0.0,0.0,0.0,0.0,0.0,0.0,0.0,-4.5274,-4.6172,-4.7653,0.0,-4.9617,-5.0358,-5.0741,-5.0798,-5.0798,-5.1241,-5.2029,-5.2125,-5.3049,-5.4511,-5.4587,-5.503,-5.5703,-5.5703,-5.5703,-5.5722,-5.5722,-5.5722,-5.5722,0.0,0.0,0.0,0.0,0.0,0.0,0.0,-2.9792,-2.9792,-2.9792,-2.9792,-2.9624,-2.9197,-2.9106,-2.9106,-2.9106,-2.87,-2.8882,-2.9714,-2.9365,-2.9287,-2.9792,-2.9792,-2.9792,-2.9792,-2.9792,-3.0075,0.0,0.0,0.0,0.0,0.0,0.0,0.0,0.0,-3.5504,-3.5504,-3.5504,-3.5504,-3.5504,-3.5504,-3.5504,-3.5504,-3.5831,-3.6707,-3.796,-3.8998,-4.0657,-4.2405,-4.3166,-4.3521,-4.3656,-4.3656,-4.3656,-4.3656,-4.3656,-4.3656,-4.3656,-4.3656,-4.3656,-4.3656,-4.3656,-4.3656,-4.3352,-4.2134,-4.1863,-4.1525,-4.0324,-4.007,-4.007,-4.007,-4.007,-4.0286,0.0,0.0,0.0,0.0,0.0,0.0,0.0,0.0,0.0,0.0,0.0,0.0,0.0,0.0,0.0,0.0,0.0,0.0,-4.3497,0.0,-4.5199,-4.6264,-4.7404,-4.8438,-4.9522,-5.0068,-5.0336,-5.0336,-5.0604,-5.1144,-5.1914,-5.1914,-5.2587,-5.3722,-5.3722,-5.3914,-5.4241,-5.478,-5.4972,-5.503,-5.5511,-5.5703,-5.5703,-2.9792,0.0,-2.9792,0.0,-2.9792,-2.9792,-2.9792,-2.9792,-2.9792,-2.9792,-2.9792,-2.9792,-2.9792,-2.9792,-2.9792,-2.9792,-2.9792,-2.9792,-2.9792,-2.9792,-2.9792,-2.9792,-2.9792,0.0,-2.9792,-3.0075,-3.0558,-3.118,-3.2393,0.0,0.0,0.0,0.0,0.0,-3.5504,-3.5504,-3.5504,-3.5504,-3.5504,-3.5504,-3.5504,-3.5619,-3.5831,-3.5831,-3.6768,-3.823,-3.8998,-4.0414,-4.2083,-4.2828,-4.3606,-4.4282,-4.4502,-4.4587,-4.4587,-4.4587,-4.4587,-4.4587,-4.4587,-4.4418,-4.4231,-4.4231,-4.4062,-4.3572,-4.2269,-4.1965,-4.161,-4.0341,-4.007,-4.007,-4.007,-4.0254,-4.0497,0.0,0.0,0.0,0.0,0.0,0.0,0.0,0.0,0.0,0.0,0.0,0.0,0.0,0.0,0.0,0.0,0.0,0.0,0.0,0.0,0.0,0.0,0.0,-4.7884,-4.8969,-4.9633,-4.9924,-4.9949,-5.0336,-5.083,-5.1367,-5.1489,-5.2029,-5.2818,-5.2818,-5.2972,-5.326,-5.3876,-5.4126,-5.4184,-5.4761,-5.5126,-5.5338,-2.9792,-2.9792,-2.9792,-2.9792,-2.9792,-2.9792,-2.9792,-2.9792,-2.9792,-2.9792,-2.9792,-2.9792,-2.9792,-2.9792,-2.9792,-2.9792,-2.9792,-2.9792,-2.9792,-2.9792,-2.9792,0.0,0.0,-2.9792,-2.9792,-3.0696,-3.118,-3.118,0.0,0.0,-3.4027,0.0,0.0,-3.5504,-3.5504,-3.5504,-3.5504,-3.5504,-3.5504,-3.5504,-3.5504,-3.5958,-3.6615,-3.6615,-3.7526,-3.9007,-3.982,-4.0571,-4.1339,-4.2049,-4.2811,-4.3572,-4.4333,-4.4587,-4.4587,-4.4587,-4.4587,-4.4587,-4.4587,-4.4012,-4.3436,-4.3436,-4.2878,-4.2117,-4.139,-4.1221,-4.1001,-4.024,-4.007,-4.007,-4.007,-4.0528,-4.1087,-4.1664,0.0,0.0,0.0,0.0,0.0,0.0,0.0,0.0,0.0,0.0,0.0,0.0,0.0,0.0,0.0,0.0,0.0,-4.3497,-4.3497,0.0,-4.4709,-4.5927,-4.6936,-4.7756,-4.895,-4.9504,-4.9504,-4.9924,-5.0092,-5.0135,-5.0544,-5.1164,-5.1933,-5.1933,-5.2433,-5.3203,-5.3222,-5.3222,-5.3222,-5.3241,-5.378,-5.4511,-2.9792,-2.9792,-2.9792,-2.9792,-2.9792,-2.9792,-2.9792,-2.9792,-2.9792,-2.9792,-2.9792,-2.9792,-2.9792,-2.9792,-2.9792,0.0,-2.9792,-2.9792,0.0,-2.9792,-2.9792,-2.9792,-2.9792,-3.0075,-3.0758,-3.1044,-3.1815,-3.3101,0.0,0.0,0.0,-3.5359,-3.5504,-3.5504,-3.5504,-3.5504,-3.5504,-3.5504,-3.5504,-3.5554,-3.6054,-3.6384,-3.6661,-3.7219,-3.8003,-3.8941,-3.9188,-4.0121,-4.1238,-4.1474,-4.2033,-4.2692,-4.2946,-4.3741,-4.4468,-4.3944,-4.3792,-4.3673,-4.3166,-4.2844,-4.2642,-4.2642,-4.2472,-4.2189,-4.1883,-4.1381,-4.1043,-4.1202,-4.092,-4.0655,-4.0655,-4.1133,-4.1578,-4.175,0.0,0.0,0.0,0.0,0.0,0.0,0.0,0.0,0.0,0.0,0.0,0.0,0.0,0.0,0.0,0.0,0.0,0.0,-4.3497,0.0,-4.4709,-4.507,-4.5932,-4.7297,-4.7965,-4.8689,-4.9504,-4.9924,-5.0092,-5.0116,-5.0523,-5.0837,-5.1087,-5.1087,-5.1241,-5.1548,-5.2106,-5.2318,-5.2395,-5.2991,-5.3376,-5.3606,-2.9792,-2.9792,-2.9792,-2.9792,-2.9792,-2.9792,-2.9792,-2.9792,-2.9792,-2.9792,-2.9792,-2.9792,-2.9792,-2.9792,0.0,-2.9792,-2.9792,0.0,-2.9792,-3.0139,-3.0139,-2.9792,-3.0139,-3.0419,-3.0696,0.0,0.0,-3.3449,-3.4177,-3.4905,-3.5504,-3.5504,-3.5504,-3.5504,-3.5504,-3.5504,-3.5504,-3.5504,-3.5504,-3.5569,-3.6006,-3.6508,-3.71,-3.7632,-3.843,-3.9368,-3.9368,-3.9964,-4.0781,-4.0781,-4.1271,-4.188,-4.188,-4.2726,-4.3623,-4.3132,-4.2997,-4.2895,-4.2422,-4.21,-4.188,-4.188,-4.1677,-4.1529,-4.1643,-4.1453,-4.1358,-4.1707,-4.149,-4.1223,-4.1223,-4.1707,-4.2121,-4.2121,0.0,0.0,0.0,0.0,0.0,0.0,0.0,0.0,0.0,-4.181,0.0,0.0,0.0,0.0,0.0,0.0,0.0,-4.3497,-4.3497,0.0,-4.425,-4.4562,-4.5369,-4.6673,-4.7497,-4.833,-4.9062,-4.9475,-4.9645,-4.9673,-5.0068,-5.0249,-5.0249,-5.0249,-5.0249,-5.0306,-5.0803,-5.0994,-5.1094,-5.1782,-5.2228,-5.2497,-2.9792,-2.9792,0.0,0.0,-2.9792,0.0,-2.9792,-2.9792,-2.9792,-2.9792,-2.9792,-2.9792,-2.9792,-2.9792,-2.9792,-2.9792,0.0,0.0,0.0,-3.062,-3.0696,-2.9869,-3.0696,0.0,-2.9998,-3.0908,-3.1888,-3.282,-3.4624,-3.5504,-3.5504,-3.5504,-3.5504,-3.5504,-3.5504,-3.5504,-3.5504,-3.5504,-3.5504,-3.5504,-3.5554,-3.6492,-3.7822,-3.7863,-3.8778,-4.007,-4.007,-4.007,-4.007,-4.007,-4.0544,-4.1119,-4.1119,-4.1593,-4.2151,-4.2202,-4.2219,-4.2202,-4.2151,-4.1644,-4.1119,-4.1119,-4.0697,-4.0385,-4.092,-4.1446,-4.181,-4.1853,-4.1853,-4.181,-4.181,-4.2342,-4.275,-4.2711,-4.2711,-4.2711,-4.275,0.0,0.0,0.0,0.0,0.0,0.0,-4.3087,-4.2885,0.0,0.0,0.0,0.0,0.0,0.0,-4.3497,-4.3497,-4.3497,-4.3497,-4.425,-4.5057,-4.592,-4.748,-4.8251,-4.8306,-4.8728,-4.8897,-4.893,-4.9326,-4.9504,-4.9504,-4.9504,-4.9504,-4.9504,-4.9504,-4.9504,-4.9551,-4.9924,-5.0525,-5.1223,0.0,0.0,-2.9792,-2.9792,-2.9792,-2.9792,-2.9792,-2.9792,-2.9792,-2.9792,-2.9792,-2.9792,-2.9792,-2.9792,-2.9792,-2.9792,-2.9792,-2.9792,-2.9792,-2.9998,-2.9998,-2.9792,-3.0696,-3.1389,-3.1901,-3.289,-3.3822,-3.4839,-3.5279,-3.5504,-3.5504,-3.5504,-3.5504,-3.5504,-3.5504,-3.5504,-3.5504,-3.5504,-3.5504,-3.5554,-3.6102,-3.6935,-3.7863,-3.8414,-3.9262,-4.007,-4.007,-4.007,-4.007,-4.007,-4.0206,-4.0341,-4.0341,-4.046,-4.0713,-4.1305,-4.1457,-4.1339,-4.0764,-4.0476,-4.0341,-4.0341,-4.0858,-4.1552,-4.2121,-4.2021,-4.1937,-4.2382,-4.2121,-4.181,-4.181,-4.2619,-4.3178,-4.2788,-4.2711,-4.2864,-4.325,0.0,0.0,0.0,-4.2711,-4.2711,-4.2711,-4.1961,-4.1793,0.0,0.0,0.0,0.0,0.0,-4.3087,-4.3497,-4.3497,-4.3497,-4.3497,-4.3681,-4.4488,-4.5902,-4.6911,-4.7719,-4.8306,-4.8728,-4.8897,-4.893,-4.9326,-4.9504,-4.9504,-4.9504,-4.9504,-4.9504,-4.9504,-4.9504,-4.9504,-4.9608,-4.9778,-4.9929,-2.9792,-2.9792,-2.9792,-2.9792,-2.9792,-2.9792,-2.9792,-2.9792,-2.9792,-2.9792,-2.9792,-2.9792,-2.9792,-2.9792,-2.9792,-2.9792,-2.9792,-2.9792,-2.9792,-3.0216,-3.0279,-2.9792,-3.0696,-3.1254,-3.1341,-3.2249,-3.3394,-3.4839,-3.5279,-3.5504,-3.5504,-3.5504,-3.5504,-3.5504,-3.5504,-3.5504,-3.5504,-3.5504,-3.5504,-3.5504,-3.5958,-3.6753,-3.7863,-3.8246,-3.9102,-4.007,-4.007,-4.007,-4.007,-4.007,-4.007,-4.007,-4.007,-4.007,-4.0155,-4.0578,-4.0696,-4.0595,-4.0189,-4.007,-4.007,-4.007,-4.0767,-4.149,-4.1793,-4.2038,-4.2302,-4.2616,-4.2619,-4.2562,-4.2562,-4.3069,-4.341,-4.3087,-4.3069,-4.3178,-4.3444,-4.325,0.0,-4.3069,-4.3069,-4.2976,-4.2732,-4.2121,-4.1768,-4.1853,0.0,0.0,-4.2244,-4.2559,-4.2939,-4.3479,-4.3497,-4.3497,-4.3497,-4.3864,-4.4488,-4.5369,-4.6544,-4.7352,-4.7774,-4.8384,-4.864,-4.8621,-4.8847,-4.893,-4.893,-4.893,-4.893,-4.893,-4.893,-4.893,-4.8963,-4.9139,-4.9234,-4.9265,-2.9792,-2.9792,-2.9792,-2.9792,-2.9792,-2.9792,-2.9792,-2.9792,-2.9792,-2.9792,-2.9792,-2.9792,-2.9792,-2.9792,-2.9792,-2.9792,-2.9792,-2.9792,-2.9792,-3.0558,-3.0696,-3.0075,-3.0908,-3.1119,-3.0432,-3.1341,-3.2607,-3.4245,-3.5067,-3.5504,-3.5504,-3.5504,-3.5504,-3.5504,-3.5504,-3.5504,-3.5504,-3.5504,-3.5504,-3.5504,-3.5504,-3.6368,-3.7632,-3.7748,-3.8652,-3.9952,-4.007,-4.007,-4.007,-4.007,-4.007,-4.007,-4.007,-4.007,-4.007,-4.007,-4.007,-4.007,-4.007,-4.007,-4.0121,-4.0204,-4.0577,-4.0903,-4.1041,-4.175,-4.244,-4.244,-4.279,-4.3105,-4.3105,-4.3267,-4.3375,-4.3375,-4.3375,-4.3375,-4.3375,0.0,-4.3375,-4.3375,-4.3444,-4.3286,-4.275,-4.2616,-4.2121,-4.0995,-4.1358,0.0,0.0,-4.2382,-4.2902,-4.3356,-4.3444,-4.3497,-4.3497,-4.4176,-4.458,-4.4727,-4.6104,-4.6819,-4.6966,-4.7755,-4.8122,-4.8141,-4.8251,-4.8306,-4.8306,-4.8306,-4.8306,-4.8306,-4.8306,-4.8306,-4.8326,-4.8692,-4.8813,-4.8863,-2.9792,-2.9792,-2.9792,-2.9792,-2.9792,-2.9792,-2.9792,-2.9792,-2.9792,-2.9792,-2.9792,-2.9792,-2.9792,-2.9792,-2.9792,-2.9792,-2.9792,-2.9792,-2.9792,-2.9934,-3.0279,-3.097,-3.1888,-3.2678,-3.331,-3.4341,-3.5001,-3.5279,-3.5424,-3.5504,-3.5504,-3.5504,-3.5504,-3.5504,-3.5504,-3.5504,-3.5504,-3.5504,-3.5504,-3.5504,-3.5504,-3.6006,-3.6843,-3.7515,-3.8318,-3.9193,-3.985,-4.007,-4.007,-4.007,-4.007,-4.007,-4.007,-4.007,-4.007,-4.007,-4.007,-4.007,-4.007,-4.007,-4.0204,-4.0655,-4.0827,-4.1041,-4.1534,-4.1402,-4.1178,-4.1178,-4.1251,-4.1313,-4.1393,-4.218,-4.2826,-4.2826,-4.2826,-4.2826,0.0,0.0,-4.2826,-4.2826,-4.3214,-4.3286,-4.275,-4.2244,-4.1664,-4.0949,-4.0995,-4.1268,-4.175,-4.2382,-4.275,-4.2826,-4.325,-4.3497,-4.3497,-4.3608,-4.403,-4.4709,-4.4966,-4.5443,-4.6104,-4.6929,-4.7297,-4.7333,-4.8012,-4.8306,-4.8306,-4.8306,-4.8306,-4.8306,-4.8306,-4.8306,-4.8306,-4.8364,-4.8383,-4.8383,-2.9792,-2.9792,-2.9792,-2.9792,-2.9792,-2.9792,-2.9792,-2.9792,-2.9792,-2.9792,-2.9792,-2.9792,-2.9792,-2.9792,-2.9792,-2.9792,-2.9792,-2.9792,-2.9792,-3.0279,-3.0983,-3.1888,-3.1888,-3.2321,-3.3241,-3.4177,-3.4986,-3.5504,-3.5504,-3.5504,-3.5504,-3.5504,-3.5504,-3.5504,-3.5504,-3.5504,-3.5504,-3.5504,-3.5504,-3.5504,-3.5504,-3.618,-3.7279,-3.7632,-3.8541,-3.961,-3.9969,-4.007,-4.007,-4.007,-4.007,-4.007,-4.007,-4.007,-4.007,-4.007,-4.007,-4.007,-4.007,-4.007,-4.0171,-4.0417,-4.0449,-4.0546,-4.0814,-4.0874,-4.0903,-4.0903,-4.1178,-4.1402,-4.1437,-4.1871,-4.2221,-4.2221,-4.2221,0.0,0.0,-4.244,-4.2342,-4.2655,-4.2619,-4.2346,-4.181,-4.149,-4.1087,-4.0497,-4.0449,-4.0703,-4.1251,-4.1578,-4.1895,-4.2203,-4.2752,-4.305,-4.305,-4.3375,-4.3681,-4.4066,-4.4488,-4.4892,-4.5278,-4.6104,-4.6452,-4.6471,-4.6856,-4.7021,-4.704,-4.748,-4.7664,-4.7719,-4.8141,-4.8306,-4.8306,-4.8306,-4.8306,-4.8306,-2.9792,-2.9792,-2.9792,-2.9792,-2.9792,-2.9792,-2.9792,-2.9792,-2.9792,-2.9792,-2.9792,-2.9792,-2.9792,-2.9792,-2.9792,-2.9792,-2.9792,-2.9856,-3.0139,-3.0833,-3.1536,-3.2249,-3.1815,-3.196,-3.289,-3.3602,-3.4461,-3.5504,-3.5504,-3.5504,-3.5504,-3.5504,-3.5504,-3.5504,-3.5504,-3.5504,-3.5504,-3.5504,-3.5504,-3.5504,-3.5504,-3.6196,-3.7294,-3.7456,-3.8246,-3.9315,-3.9662,-3.9833,-3.9833,-4.002,-4.007,-4.007,-4.007,-4.007,-4.007,-4.007,-4.007,-4.007,-4.007,-4.007,-4.007,-4.007,-4.007,-4.007,-4.007,-4.0417,-4.0685,-4.0685,-4.1105,-4.142,-4.142,-4.1508,-4.1578,-4.1578,0.0,0.0,0.0,-4.1895,-4.175,-4.2221,-4.1997,-4.1578,-4.0949,-4.0903,-4.0703,-4.0121,-4.0204,-4.0449,-4.0856,-4.1041,-4.1268,-4.1578,-4.2162,-4.248,-4.248,-4.305,-4.3321,-4.3339,-4.4086,-4.4415,-4.4452,-4.5259,-4.5626,-4.5626,-4.581,-4.5902,-4.5957,-4.6581,-4.6838,-4.6911,-4.7719,-4.8031,-4.8049,-4.8233,-4.8306,-4.8306,-2.9792,-2.9792,-2.9792,-2.9792,-2.9792,-2.9792,-2.9792,-2.9792,-2.9792,-2.9792,-2.9792,-2.9792,-2.9792,-2.9792,-2.9792,-2.9792,-2.9792,-3.0139,-3.1044,-3.118,-3.1254,-3.1315,-3.2105,-3.2961,-3.3876,-3.3959,-3.4461,-3.5504,-3.5504,-3.5504,-3.5504,-3.5504,-3.5504,-3.5504,-3.5504,-3.5504,-3.5504,-3.5504,-3.5504,-3.5504,-3.5504,-3.5569,-3.5733,-3.6446,-3.6783,-3.7068,-3.8453,-3.8962,-3.9086,-3.985,-4.007,-4.007,-4.007,-4.007,-4.007,-4.007,-4.007,-4.007,-4.007,-4.007,-4.007,-4.007,-4.007,-4.007,-4.007,-4.0121,-4.0171,-4.0171,-4.0204,-4.0204,-4.0204,-4.0625,-4.0949,-4.0949,0.0,0.0,-4.1041,-4.0995,-4.0995,-4.1041,-4.149,-4.1578,-4.0949,-4.0903,-4.0703,-4.0121,-4.0577,-4.0856,-4.0903,-4.1446,-4.149,-4.0995,-4.1534,-4.1853,-4.1853,-4.248,-4.275,-4.2788,-4.3305,-4.3589,-4.3608,-4.4415,-4.48,-4.4837,-4.5571,-4.5902,-4.5902,-4.5957,-4.5993,-4.6067,-4.6874,-4.7205,-4.7297,-4.8031,-4.8306,-4.8306,-2.8767,-2.9275,-2.9792,-2.9792,-2.9792,-2.9792,-2.9792,-2.9792,-2.9792,-2.9792,-2.9792,-2.9792,-2.9792,-2.9792,-2.9792,-2.9792,-2.9792,-2.9934,-3.0279,-3.0355,-3.0633,-3.118,-3.2105,-3.2464,-3.2249,-3.338,-3.4177,-3.4543,-3.5213,-3.5504,-3.5504,-3.5504,-3.5504,-3.5504,-3.5504,-3.5504,-3.5504,-3.5504,-3.5504,-3.5504,-3.5504,-3.5782,-3.6228,-3.6492,-3.6904,-3.7499,-3.8525,-3.8908,-3.9032,-3.9833,-4.007,-4.007,-4.007,-4.007,-4.007,-4.007,-4.007,-4.007,-4.007,-4.007,-4.007,-4.007,-4.007,-4.007,-4.007,-4.007,-4.007,-4.007,-4.007,-4.007,-4.007,-4.0254,-4.0417,-4.0417,0.0,-4.0528,-4.0856,-4.0607,-4.0546,-4.0856,-4.0797,-4.0642,-4.0417,-4.0417,-4.0336,-4.0138,-4.0286,-4.0417,-4.0417,-4.0642,-4.0642,-4.0417,-4.0642,-4.1076,-4.1793,-4.2382,-4.2864,-4.3214,-4.341,-4.3497,-4.3497,-4.3809,-4.3956,-4.3975,-4.4268,-4.4397,-4.4452,-4.4947,-4.5168,-4.5241,-4.6049,-4.6361,-4.6452,-4.7278,-4.7572,-4.7645,-2.8597,-2.9275,-2.9792,-2.9792,-2.9792,-2.9792,-2.9792,-2.9792,-2.9792,-2.9792,-2.9792,-2.9792,-2.9792,-2.9792,-2.9792,-2.9792,-2.9792,-2.9792,-2.9792,-2.9792,-3.0075,-3.0771,-3.1402,-3.1536,-3.118,-3.2749,-3.3671,-3.4027,-3.4986,-3.5504,-3.5504,-3.5504,-3.5504,-3.5504,-3.5504,-3.5504,-3.5504,-3.5504,-3.5504,-3.5504,-3.5504,-3.5782,-3.6275,-3.6275,-3.6585,-3.7175,-3.7889,-3.8157,-3.8286,-3.9102,-3.9401,-3.9401,-3.9401,-3.9558,-3.9782,-4.002,-4.007,-4.007,-4.007,-4.007,-4.007,-4.007,-4.007,-4.007,-4.007,-4.007,-4.007,-4.007,-4.007,-4.007,-4.007,-4.007,-4.007,-4.007,-4.007,-4.0254,-4.0625,-4.0336,-4.0254,-4.0625,-4.0336,-4.007,-4.007,-4.007,-4.007,-4.007,-4.007,-4.007,-4.007,-4.007,-4.007,-4.007,-4.007,-4.0546,-4.149,-4.1937,-4.2324,-4.2678,-4.3069,-4.325,-4.325,-4.341,-4.3497,-4.3497,-4.3497,-4.3497,-4.3534,-4.4103,-4.4323,-4.4397,-4.5204,-4.5516,-4.5626,-4.6434,-4.6728,-4.6819,-2.9792,-2.9792,-2.9792,-2.9792,-2.9792,-2.9792,-2.9792,-2.9792,-2.9792,-2.9792,-2.9792,-2.9792,-2.9792,-2.9792,-2.9792,-2.9792,-2.9792,-2.9792,-2.9792,-2.9792,-2.9792,-2.9792,-2.9792,-3.0203,-3.118,-3.2105,-3.3031,-3.3959,-3.4986,-3.5504,-3.5504,-3.5504,-3.5504,-3.5504,-3.5504,-3.5504,-3.5504,-3.5504,-3.5504,-3.5504,-3.5504,-3.5504,-3.5504,-3.5504,-3.5504,-3.5619,-3.6337,-3.6615,-3.6722,-3.7515,-3.7822,-3.7822,-3.7822,-3.8302,-3.9086,-3.9833,-4.007,-4.007,-4.007,-4.007,-4.007,-4.007,-4.007,-4.007,-4.007,-4.007,-4.007,-4.007,-4.007,-4.007,-4.007,-4.007,-4.007,-4.007,-4.007,-4.007,-4.007,-4.007,-4.007,-4.007,-4.007,-4.007,-4.007,-4.007,-4.007,-4.007,-4.007,-4.007,-4.007,-4.007,-4.007,-4.007,-4.007,-4.0385,-4.0903,-4.0903,-4.0903,-4.0903,-4.2121,-4.2711,-4.2711,-4.325,-4.3497,-4.3497,-4.3497,-4.3497,-4.3497,-4.3497,-4.3497,-4.3571,-4.4378,-4.4709,-4.48,-4.559,-4.5883,-4.5883,-2.6284,-2.6964,-2.7718,-2.8518,-2.8597,-2.8858,-2.9702,-2.9792,-2.9792,-2.9792,-2.9792,-2.9792,-2.9792,-2.9792,-2.9792,-2.9792,-2.9792,-2.9792,-2.9792,-2.9792,-2.9792,-2.9792,-2.9792,-2.9934,-3.0216,-3.1119,-3.1742,-3.2033,-3.3671,-3.4461,-3.4461,-3.5133,-3.5504,-3.5504,-3.5504,-3.5504,-3.5504,-3.5504,-3.5504,-3.5504,-3.5504,-3.5504,-3.5504,-3.5504,-3.5504,-3.5619,-3.6337,-3.6615,-3.6722,-3.7515,-3.7822,-3.7863,-3.8414,-3.8745,-3.9086,-3.9833,-4.007,-4.007,-4.007,-4.007,-4.007,-4.007,-4.007,-4.007,-4.007,-4.007,-4.007,-4.007,-4.007,-4.007,-4.007,-4.007,-4.007,-4.007,-4.007,-4.007,-4.007,-4.007,-4.007,-4.007,-4.007,-4.007,-4.007,-4.007,-4.007,-4.007,-4.007,-4.007,-4.007,-4.007,-4.007,-4.007,-4.007,-4.0171,-4.0336,-4.0685,-4.1133,-4.1534,-4.1895,-4.2302,-4.2711,-4.2864,-4.3142,-4.3497,-4.3497,-4.3497,-4.3497,-4.3497,-4.3497,-4.3516,-4.3754,-4.3864,-4.3956,-4.4764,-4.5057,-4.5149,-2.5462,-2.6058,-2.6719,-2.736,-2.7441,-2.7695,-2.8383,-2.887,-2.9118,-2.9118,-2.9534,-2.9792,-2.9792,-2.9792,-2.9792,-2.9792,-2.9792,-2.9792,-2.9792,-2.9792,-2.9792,-2.9792,-2.9792,-2.9792,-2.9792,-3.0696,-3.118,-3.118,-3.2749,-3.3449,-3.3449,-3.4041,-3.4558,-3.4905,-3.4905,-3.5133,-3.5504,-3.5504,-3.5504,-3.5504,-3.5504,-3.5504,-3.5504,-3.5504,-3.5504,-3.5554,-3.6006,-3.6165,-3.6228,-3.6707,-3.689,-3.7011,-3.7774,-3.7987,-3.823,-3.9315,-3.961,-3.9714,-4.002,-4.007,-4.007,-4.007,-4.007,-4.007,-4.007,-4.007,-4.007,-4.007,-4.007,-4.007,-4.007,-4.007,-4.007,-4.007,-4.007,-4.007,-4.007,-4.007,-4.007,-4.007,-4.007,-4.007,-4.007,-4.007,-4.007,-4.007,-4.007,-4.007,-4.007,-4.007,-4.007,-4.007,-4.007,-4.007,-4.007,-4.0417,-4.075,-4.1122,-4.1358,-4.175,-4.2342,-4.2577,-4.2976,-4.3497,-4.3497,-4.3497,-4.3497,-4.3497,-4.3497,-4.3497,-4.3497,-4.3497,-4.3552,-4.4048,-4.4232,-4.4287,-2.6235,-2.6235,-2.6224,-2.6307,-2.6307,-2.6389,-2.6472,-2.7371,-2.7936,-2.7936,-2.8937,-2.9624,-2.9624,-2.9714,-2.9792,-2.9792,-2.9792,-2.9792,-2.9792,-2.9792,-2.9792,-2.9792,-2.9792,-2.9767,-2.9716,-3.0594,-3.1106,-3.1106,-3.2033,-3.2464,-3.2464,-3.2522,-3.3031,-3.3876,-3.3959,-3.4543,-3.5359,-3.5439,-3.5504,-3.5504,-3.5504,-3.5504,-3.5504,-3.5504,-3.5504,-3.5504,-3.5504,-3.5504,-3.5504,-3.5504,-3.5504,-3.5619,-3.6399,-3.6615,-3.6904,-3.8398,-3.8799,-3.8978,-3.9679,-3.9901,-3.9901,-3.9901,-3.9901,-3.9901,-4.007,-4.007,-4.007,-4.007,-4.007,-4.007,-4.007,-4.007,-4.007,-4.007,-4.007,-4.007,-4.007,-4.007,-4.007,-4.007,-4.007,-4.007,-4.007,-4.007,-4.007,-4.007,-4.007,-4.007,-4.007,-4.007,-4.007,-4.007,-4.007,-4.007,-4.007,-4.007,-4.007,-4.0138,-4.0577,-4.1133,-4.175,-4.2302,-4.2846,-4.341,-4.341,-4.3463,-4.3497,-4.3497,-4.3497,-4.3497,-4.3497,-4.3497,-4.3497,-4.3497,-4.3497,-4.3497,-2.381,-2.381,-2.4135,-2.5041,-2.521,-2.5462,-2.6389,-2.6719,-2.6883,-2.6883,-2.7775,-2.8426,-2.8426,-2.9287,-2.9792,-2.9792,-2.9792,-2.9792,-2.9792,-2.9792,-2.9792,-2.9792,-2.9792,-2.9578,-2.9126,-2.977,-3.0062,-3.0062,-3.1044,-3.1536,-3.1536,-3.2249,-3.2749,-3.2961,-3.3671,-3.4095,-3.4394,-3.5133,-3.5504,-3.5504,-3.5504,-3.5504,-3.5504,-3.5504,-3.5504,-3.5504,-3.5504,-3.5504,-3.5504,-3.5504,-3.5504,-3.5619,-3.6399,-3.6615,-3.6783,-3.7732,-3.8035,-3.8092,-3.8262,-3.8318,-3.8318,-3.8318,-3.8318,-3.8596,-3.985,-4.007,-4.007,-4.007,-4.007,-4.007,-4.007,-4.007,-4.007,-4.007,-4.007,-4.007,-4.007,-4.007,-4.007,-4.007,-4.007,-4.007,-4.007,-4.007,-4.007,-4.007,-4.007,-4.007,-4.007,-4.007,-4.007,-4.007,-4.007,-4.007,-4.007,-4.007,-4.007,-4.007,-4.0204,-4.0528,-4.1087,-4.1223,-4.1877,-4.2864,-4.2864,-4.3087,-4.3497,-4.3497,-4.3497,-4.3497,-4.3497,-4.3497,-4.3497,-4.3497,-4.3497,-4.3497,-2.3135,-2.3135,-2.3309,-2.3877,-2.3963,-2.4221,-2.4808,-2.5305,-2.5714,-2.5714,-2.6625,-2.736,-2.736,-2.8359,-2.9086,-2.9326,-2.9139,-2.8988,-2.8988,-2.8988,-2.8988,-2.8988,-2.8988,-2.885,-2.8549,-2.8837,-2.8988,-2.8988,-2.9461,-2.9731,-2.9731,-3.0217,-3.0695,-3.1135,-3.1914,-3.275,-3.3662,-3.4478,-3.5067,-3.5504,-3.5504,-3.5504,-3.5504,-3.5504,-3.5504,-3.5504,-3.5504,-3.5504,-3.5504,-3.5504,-3.5504,-3.5569,-3.5943,-3.6054,-3.6228,-3.698,-3.7219,-3.7338,-3.7706,-3.7822,-3.7822,-3.7822,-3.7822,-3.7978,-3.8832,-3.9262,-3.9542,-3.9542,-3.9833,-4.007,-4.007,-4.007,-4.007,-4.007,-4.007,-4.007,-4.007,-4.007,-4.007,-4.007,-4.007,-4.007,-4.007,-4.007,-4.007,-4.007,-4.007,-4.007,-4.007,-4.007,-4.007,-4.007,-4.007,-4.007,-4.007,-4.007,-4.007,-4.007,-4.007,-4.0368,-4.0903,-4.0903,-4.1402,-4.2302,-4.2577,-4.2693,-4.2734,-4.2995,-4.3142,-4.3142,-4.3142,-4.325,-4.3497,-4.3497,-4.3497,-4.3497,-2.3027,-2.3086,-2.3135,-2.3135,-2.3135,-2.3135,-2.3135,-2.3816,-2.4428,-2.4428,-2.5362,-2.598,-2.598,-2.6944,-2.7746,-2.8196,-2.7978,-2.7865,-2.7865,-2.8024,-2.8109,-2.8109,-2.8109,-2.8059,-2.7971,-2.7959,-2.8009,-2.8109,-2.8109,-2.8109,-2.8109,-2.8109,-2.8507,-2.928,-2.9979,-3.1155,-3.2815,-3.3413,-3.4288,-3.5175,-3.528,-3.5325,-3.534,-3.5459,-3.5504,-3.5504,-3.5504,-3.5504,-3.5504,-3.5504,-3.5504,-3.5504,-3.5504,-3.5504,-3.5619,-3.6228,-3.6384,-3.6569,-3.7235,-3.7413,-3.7413,-3.7413,-3.7413,-3.7413,-3.7413,-3.8076,-3.869,-3.869,-3.9315,-3.9901,-3.9901,-4.002,-4.007,-4.007,-4.007,-4.007,-4.007,-4.007,-4.007,-4.007,-4.007,-4.007,-4.007,-4.007,-4.007,-4.007,-4.007,-4.007,-4.007,-4.007,-4.007,-4.007,-4.007,-4.007,-4.007,-4.007,-4.007,-4.007,-4.007,-4.0336,-4.078,-4.078,-4.1087,-4.1664,-4.2162,-4.2162,-4.1853,-4.244,-4.2711,-4.2711,-4.2788,-4.3105,-4.3497,-4.3497,-4.3497,-4.3497,-2.2598,-2.2891,-2.3135,-2.3135,-2.3135,-2.3135,-2.3135,-2.2908,-2.2843,-2.2843,-2.3464,-2.3924,-2.3924,-2.488,-2.5652,-2.5661,-2.6347,-2.6827,-2.6827,-2.7631,-2.8109,-2.8109,-2.8109,-2.7883,-2.7406,-2.7394,-2.7632,-2.8109,-2.8109,-2.8109,-2.8109,-2.8109,-2.817,-2.8315,-2.9203,-3.0185,-3.1191,-3.2097,-3.2957,-3.3814,-3.4382,-3.4622,-3.4681,-3.528,-3.5504,-3.5504,-3.5504,-3.5504,-3.5504,-3.5504,-3.5504,-3.5504,-3.5504,-3.5504,-3.5504,-3.5619,-3.5668,-3.5668,-3.5797,-3.5797,-3.5797,-3.5797,-3.5797,-3.5797,-3.5797,-3.6951,-3.7921,-3.7921,-3.8525,-3.9086,-3.9086,-3.961,-4.007,-4.007,-4.007,-4.007,-4.007,-4.007,-4.007,-4.007,-4.007,-4.007,-4.007,-4.007,-4.007,-4.007,-4.007,-4.007,-4.007,-4.007,-4.007,-4.007,-4.007,-4.007,-4.007,-4.007,-4.007,-4.007,-4.007,-4.0121,-4.0204,-4.0204,-4.0497,-4.1041,-4.1133,-4.1402,-4.1853,-4.244,-4.2711,-4.275,-4.3214,-4.3444,-4.3497,-4.3497,-4.3497,-4.3497,-2.2168,-2.2314,-2.2441,-2.2441,-2.2441,-2.2441,-2.2441,-2.2275,-2.2168,-2.2168,-2.2386,-2.2574,-2.2574,-2.3361,-2.4051,-2.4666,-2.4773,-2.5133,-2.567,-2.613,-2.6586,-2.718,-2.718,-2.7067,-2.6829,-2.6816,-2.6942,-2.718,-2.718,-2.718,-2.718,-2.718,-2.718,-2.7264,-2.7979,-2.8782,-2.9659,-3.0391,-3.1476,-3.2786,-3.3128,-3.3513,-3.3993,-3.4681,-3.4936,-3.4981,-3.537,-3.5504,-3.5504,-3.5504,-3.5504,-3.5504,-3.5504,-3.5504,-3.5504,-3.5504,-3.5504,-3.5504,-3.5504,-3.5504,-3.5504,-3.5504,-3.5504,-3.5504,-3.5504,-3.6022,-3.6662,-3.704,-3.806,-3.8908,-3.8908,-3.9558,-4.007,-4.007,-4.007,-4.007,-4.007,-4.007,-4.007,-4.007,-4.007,-4.007,-4.007,-4.007,-4.007,-4.007,-4.007,-4.007,-4.007,-4.007,-4.007,-4.007,-4.007,-4.007,-4.007,-4.007,-4.007,-4.007,-4.007,-4.007,-4.007,-4.007,-4.0254,-4.0449,-4.078,-4.0874,-4.0891,-4.1464,-4.1895,-4.2203,-4.2085,-4.2465,-4.3105,-4.341,-4.3497,-4.3497]}]]